[[{"header":{"parameterUnit":"m.s-1","parameterCategory":1,"la1":31.0,"la2":29.5877,"lo1":-88.7671,"lo2":-86.6584,"dy":0.0162,"dx":0.0185,"nx":115,"ny":88,"refTime":"2024-07-30T00:00:00:Z","depth":0,"parameterNumber":2,"parameterNumberName":"U-component_of_WINDS"},"data":[0.0,0.0,0.0,0.0,0.0,0.0,0.0,0.0,0.0,0.0,0.0,0.0,0.0,0.0,0.0,0.0,0.0,0.0,0.0,0.0,0.0,0.0,0.0,0.0,0.0,0.0,0.0,0.0,0.0,0.0,0.0,0.0,0.0,0.0,0.0,0.0,0.0,0.0,0.0,0.0,0.0,0.0,0.0,0.0,0.0,0.0,0.0,0.0,0.0,0.0,0.0,0.0,0.0,0.0,0.0,0.0,0.0,0.0,0.0,0.0,0.0,0.0,0.0,0.0,0.0,0.0,0.0,0.0,0.0,0.0,0.0,0.0,0.0,0.0,0.0,0.0,0.0,0.0,0.0,0.0,0.0,0.0,0.0,0.0,0.0,0.0,0.0,0.0,0.0,0.0,0.0,0.0,0.0,0.0,0.0,0.0,0.0,0.0,0.0,0.0,0.0,0.0,0.0,0.0,0.0,0.0,0.0,0.0,0.0,0.0,0.0,0.0,0.0,0.0,0.0,0.0,0.0,0.0,0.0,0.0,0.0,0.0,0.0,0.0,0.0,0.0,0.0,0.0,0.0,0.0,0.0,0.0,0.0,0.0,0.0,0.0,0.0,0.0,0.0,0.0,0.0,0.0,0.0,0.0,0.0,0.0,0.0,0.0,0.0,0.0,0.0,0.0,0.0,0.0,0.0,0.0,0.0,0.0,0.0,0.0,0.0,0.0,0.0,0.0,0.0,0.0,0.0,0.0,0.0,0.0,0.0,0.0,0.0,0.0,0.0,0.0,0.0,0.0,0.0,0.0,0.0,0.0,0.0,0.0,0.0,0.0,0.0,0.0,0.0,0.0,0.0,0.0,0.0,0.0,0.0,0.0,0.0,0.0,0.0,0.0,0.0,0.0,0.0,0.0,0.0,0.0,0.0,0.0,0.0,0.0,0.0,0.0,0.0,0.0,0.0,0.0,0.0,0.0,0.0,0.0,0.0,0.0,0.0,0.0,0.0,0.0,0.0,0.0,0.0,0.0,0.0,0.0,0.0,0.0,0.0,0.0,0.0,0.0,0.0,0.0,0.0,0.0,0.0,0.0,0.0,0.0,0.0,0.0,0.0,0.0,0.0,0.0,0.0,0.0,0.0,0.0,0.0,0.0,0.0,0.0,0.0,0.0,0.0,0.0,0.0,0.0,0.0,0.0,0.0,0.0,0.0,0.0,0.0,0.0,0.0,0.0,0.0,0.0,0.0,0.0,0.0,0.0,0.0,0.0,0.0,0.0,0.0,0.0,0.0,0.0,0.0,0.0,0.0,0.0,0.0,0.0,0.0,0.0,0.0,0.0,0.0,0.0,0.0,0.0,0.0,0.0,0.0,0.0,0.0,0.0,0.0,0.0,0.0,0.0,0.0,0.0,0.0,0.0,0.0,0.0,0.0,0.0,0.0,0.0,0.0,0.0,0.0,0.0,0.0,0.0,0.0,0.0,0.0,0.0,0.0,0.0,0.0,0.0,0.0,0.0,0.0,0.0,0.0,0.0,0.0,0.0,0.0,0.0,0.0,0.0,0.0,0.0,0.0,0.0,0.0,0.0,0.0,0.0,0.0,0.0,0.0,0.0,0.0,0.0,0.0,0.0,0.0,0.0,0.0,0.0,0.0,0.0,0.0,0.0,0.0,0.0,0.0,0.0,0.0,0.0,0.0,0.0,0.0,0.0,0.0,0.0,0.0,0.0,0.0,0.0,0.0,0.0,0.0,0.0,0.0,0.0,0.0,0.0,0.0,0.0,0.0,0.0,0.0,0.0,0.0,0.0,0.0,0.0,0.0,0.0,0.0,0.0,0.0,0.0,0.0,0.0,0.0,0.0,0.0,0.0,0.0,0.0,0.0,0.0,0.0,0.0,0.0,0.0,0.0,0.0,0.0,0.0,0.0,0.0,0.0,0.0,0.0,0.0,0.0,0.0,0.0,0.0,0.0,0.0,0.0,0.0,0.0,0.0,0.0,0.0,0.0,0.0,0.0,0.0,0.0,0.0,0.0,0.0,0.0,0.0,0.0,0.0,0.0,0.0,0.0,0.0,0.0,0.0,0.0,0.0,0.0,0.0,0.0,0.0,0.0,0.0,0.0,0.0,0.0,0.0,0.0,0.0,0.0,0.0,0.0,0.0,0.0,0.0,0.0,0.0,0.0,0.0,0.0,0.0,0.0,0.0,0.0,0.0,0.0,0.0,0.0,0.0,0.0,0.0,0.0,0.0,0.0,0.0,0.0,0.0,0.0,0.0,0.0,0.0,0.0,0.0,0.0,0.0,0.0,0.0,0.0,0.0,0.0,0.0,0.0,0.0,0.0,0.0,0.0,0.0,0.0,0.0,0.0,0.0,0.0,0.0,0.0,0.0,0.0,0.0,0.0,0.0,0.0,0.0,0.0,0.0,0.0,0.0,0.0,0.0,0.0,0.0,0.0,0.0,0.0,0.0,0.0,0.0,0.0,0.0,0.0,0.0,0.0,0.0,0.0,0.0,0.0,0.0,0.0,0.0,0.0,0.0,0.0,0.0,0.0,0.0,0.0,0.0,0.0,0.0,0.0,0.0,0.0,0.0,0.0,0.0,0.0,0.0,0.0,0.0,0.0,0.0,0.0,0.0,0.0,0.0,0.0,0.0,0.0,0.0,0.0,0.0,0.0,0.0,0.0,0.0,0.0,0.0,0.0,0.0,0.0,0.0,0.0,0.0,0.0,0.0,0.0,0.0,0.0,0.0,0.0,0.0,0.0,0.0,0.0,0.0,0.0,0.0,0.0,0.0,0.0,0.0,0.0,0.0,0.0,0.0,0.0,0.0,0.0,0.0,0.0,0.0,0.0,0.0,0.0,0.0,0.0,0.0,0.0,0.0,0.0,0.0,0.0,0.0,0.0,0.0,0.0,0.0,0.0,0.0,0.0,0.0,0.0,0.0,0.0,0.0,0.0,0.0,0.0,0.0,0.0,0.0,0.0,0.0,0.0,0.0,0.0,0.0,0.0,0.0,0.0,0.0,0.0,0.0,0.0,0.0,0.0,0.0,0.0,0.0,0.0,0.0,0.0,0.0,0.0,0.0,0.0,0.0,0.0,0.0,0.0,0.0,0.0,0.0,0.0,0.0,0.0,0.0,0.0,0.0,0.0,0.0,0.0,0.0,0.0,0.0,0.0,0.0,0.0,0.0,0.0,0.0,0.0,0.0,0.0,0.0,0.0,0.0,0.0,0.0,0.0,0.0,0.0,0.0,0.0,0.0,0.0,0.0,0.0,0.0,0.0,0.0,0.0,0.0,0.0,0.0,0.0,0.0,0.0,0.0,0.0,0.0,0.0,0.0,0.0,0.0,0.0,0.0,0.0,0.0,0.0,0.0,0.0,0.0,0.0,0.0,0.0,0.0,0.0,0.0,0.0,0.0,0.0,0.0,0.0,0.0,0.0,0.0,0.0,0.0,0.0,0.0,0.0,0.0,0.0,0.0,0.0,0.0,0.0,0.0,0.0,0.0,0.0,0.0,0.0,0.0,0.0,0.0,0.0,0.0,0.0,0.0,0.0,0.0,0.0,0.0,0.0,0.0,0.0,0.0,0.0,0.0,0.0,0.0,0.0,0.0,0.0,0.0,0.0,0.0,0.0,0.0,0.0,0.0,0.0,0.0,0.0,0.0,0.0,0.0,0.0,0.0,0.0,0.0,0.0,0.0,0.0,0.0,0.0,0.0,0.0,0.0,0.0,0.0,0.0,0.0,0.0,0.0,0.0,0.0,0.0,0.0,0.0,0.0,0.0,0.0,0.0,0.0,0.0,0.0,0.0,0.0,0.0,0.0,0.0,0.0,0.0,0.0,0.0,0.0,0.0,0.0,0.0,0.0,0.0,0.0,0.0,0.0,0.0,0.0,0.0,0.0,0.0,0.0,0.0,0.0,0.0,0.0,0.0,0.0,0.0,0.0,0.0,0.0,0.0,0.0,0.0,0.0,0.0,0.0,0.0,0.0,0.0,0.0,0.0,0.0,0.0,0.0,0.0,0.0,0.0,0.0,0.0,0.0,0.0,0.0,0.0,0.0,0.0,0.0,0.0,0.0,0.0,0.0,0.0,0.0,0.0,0.0,0.0,0.0,0.0,0.0,0.0,0.0,0.0,0.0,0.0,0.0,0.0,0.0,0.0,0.0,0.0,0.0,0.0,0.0,0.0,0.0,0.0,0.0,0.0,0.0,0.0,0.0,0.0,0.0,0.0,0.0,0.0,0.0,0.0,0.0,0.0,0.0,0.0,0.0,-1.1387,0.0,0.0,0.0,0.0,0.0,0.0,0.0,0.0,0.0,0.0,0.0,0.0,0.0,0.0,0.0,0.0,0.0,0.0,0.0,0.0,0.0,0.0,0.0,0.0,0.0,0.0,0.0,0.0,0.0,0.0,0.0,0.0,0.0,0.0,0.0,0.0,0.0,0.0,0.0,0.0,0.0,0.0,0.0,0.0,0.0,0.0,0.0,0.0,0.0,0.0,0.0,0.0,0.0,0.0,0.0,0.0,0.0,0.0,0.0,0.0,0.0,0.0,0.0,0.0,0.0,0.0,0.0,0.0,0.0,0.0,0.0,0.0,0.0,0.0,0.0,0.0,0.0,0.0,0.0,0.0,0.0,0.0,0.0,0.0,0.0,0.0,0.0,0.0,0.0,0.0,0.0,0.0,0.0,0.0,0.0,0.0,0.0,0.0,0.0,0.0,0.0,0.0,0.0,0.0,0.0,0.0,0.0,0.0,0.0,0.0,-0.751,-0.9672,-1.116,-1.2817,-1.4666,0.0,0.0,0.0,0.0,0.0,0.0,0.0,0.0,0.0,0.0,0.0,0.0,0.0,0.0,0.0,0.0,0.0,0.0,0.0,0.0,0.0,0.0,0.0,0.0,0.0,0.0,0.0,0.0,0.0,0.0,0.0,0.0,0.0,0.0,0.0,0.0,0.0,0.0,0.0,0.0,0.0,0.0,0.0,0.0,0.0,0.0,0.0,0.0,0.0,0.0,0.0,0.0,0.0,0.0,0.0,0.0,0.0,0.0,0.0,0.0,0.0,0.0,0.0,0.0,0.0,0.0,0.0,0.0,0.0,0.0,0.0,0.0,0.0,0.0,0.0,0.0,0.0,0.0,0.0,0.0,0.0,0.0,0.0,0.0,0.0,0.0,0.0,0.0,0.0,0.0,0.0,0.0,0.0,0.0,0.0,0.0,0.0,0.0,0.0,0.0,0.0,0.0,0.0,0.0,0.0,0.0,0.0,0.0,0.0,0.0,0.0,0.0,-1.3625,-1.5244,-1.7417,0.0,0.0,0.0,0.0,0.0,0.0,0.0,0.0,0.0,0.0,0.0,0.0,0.0,0.0,0.0,0.0,0.0,0.0,0.0,0.0,0.0,0.0,0.0,0.0,0.0,0.0,0.0,0.0,0.0,0.0,0.0,0.0,0.0,0.0,0.0,0.0,0.0,0.0,0.0,0.0,0.0,0.0,0.0,0.0,0.0,0.0,0.0,0.0,0.0,0.0,0.0,0.0,0.0,0.0,0.0,0.0,0.0,0.0,0.0,0.0,0.0,0.0,0.0,0.0,0.0,0.0,0.0,0.0,0.0,0.0,0.0,0.0,0.0,0.0,0.0,0.0,0.0,0.0,0.0,0.0,0.0,0.0,0.0,0.0,0.0,0.0,0.0,0.0,0.0,0.0,0.0,0.0,0.0,0.0,0.0,0.0,0.0,0.0,0.0,0.0,0.0,0.0,0.0,0.0,0.0,0.0,0.0,0.0,0.0,0.0,-1.1379,-1.5199,-1.6298,0.0,-1.852,0.0,0.0,0.0,0.0,0.0,0.0,0.0,0.0,0.0,0.0,0.0,0.0,0.0,0.0,0.0,0.0,0.0,0.0,0.0,0.0,0.0,0.0,0.0,0.0,0.0,0.0,0.0,0.0,0.0,0.0,0.0,0.0,0.0,0.0,0.0,0.0,0.0,0.0,0.0,0.0,0.0,0.0,0.0,0.0,0.0,0.0,0.0,0.0,0.0,0.0,0.0,0.0,0.0,0.0,0.0,0.0,0.0,0.0,0.0,0.0,0.0,0.0,0.0,0.0,0.0,0.0,0.0,0.0,0.0,0.0,0.0,0.0,0.0,0.0,0.0,0.0,0.0,0.0,0.0,0.0,0.0,0.0,0.0,0.0,0.0,0.0,0.0,0.0,0.0,0.0,0.0,0.0,0.0,0.0,0.0,0.0,0.0,0.0,0.0,0.0,0.0,0.0,0.0,0.0,0.0,0.0,0.0,0.0,0.0,0.0,0.0,-1.7416,-1.772,-1.7705,0.0,0.0,0.0,0.0,0.0,0.0,0.0,0.0,0.0,0.0,0.0,0.0,0.0,0.0,0.0,0.0,0.0,0.0,0.0,0.0,0.0,0.0,0.0,0.0,0.0,0.0,0.0,0.0,0.0,0.0,0.0,0.0,0.0,0.0,0.0,0.0,0.0,0.0,0.0,0.0,0.0,0.0,0.0,0.0,0.0,0.0,0.0,0.0,0.0,0.0,0.0,0.0,0.0,0.0,0.0,0.0,0.0,0.0,0.0,0.0,0.0,0.0,0.0,0.0,0.0,0.0,0.0,0.0,0.0,0.0,0.0,0.0,0.0,0.0,0.0,0.0,0.0,0.0,0.0,0.0,0.0,0.0,0.0,0.0,0.0,0.0,0.0,0.0,0.0,0.0,0.0,0.0,0.0,0.0,0.0,0.0,0.0,0.0,0.0,0.0,0.0,0.0,0.0,0.0,0.0,0.0,0.0,0.0,0.0,0.0,-1.4682,0.0,-1.8089,-1.8235,-1.7371,-1.56,0.0,0.0,0.0,0.0,0.0,0.0,0.0,0.0,0.0,0.0,0.0,0.0,0.0,0.0,0.0,0.0,0.0,0.0,0.0,0.0,0.0,0.0,0.0,0.0,0.0,0.0,0.0,0.0,0.0,0.0,0.0,0.0,0.0,0.0,0.0,0.0,0.0,0.0,0.0,0.0,0.0,0.0,0.0,0.0,0.0,0.0,0.0,0.0,0.0,0.0,0.0,0.0,0.0,0.0,0.0,0.0,0.0,0.0,0.0,0.0,0.0,0.0,0.0,0.0,0.0,0.0,0.0,0.0,0.0,0.0,0.0,0.0,0.0,0.0,0.0,0.0,0.0,0.0,0.0,0.0,0.0,0.0,0.0,0.0,0.0,0.0,0.0,0.0,0.0,0.0,0.0,0.0,0.0,0.0,0.0,0.0,0.0,0.0,0.0,0.0,0.0,0.0,0.0,0.0,0.0,0.0,0.0,0.0,0.0,-1.4814,-1.563,-1.7046,-1.7711,-1.6616,0.0,0.0,0.0,0.0,0.0,0.0,0.0,0.0,0.0,0.0,0.0,0.0,0.0,0.0,0.0,0.0,0.0,0.0,0.0,0.0,0.0,0.0,0.0,0.0,0.0,0.0,0.0,0.0,0.0,0.0,0.0,0.0,0.0,0.0,0.0,0.0,0.0,0.0,0.0,0.0,0.0,0.0,0.0,0.0,0.0,0.0,0.0,0.0,0.0,0.0,0.0,0.0,0.0,0.0,0.0,0.0,0.0,0.0,0.0,0.0,0.0,0.0,0.0,0.0,0.0,0.0,0.0,0.0,0.0,0.0,0.0,0.0,0.0,0.0,0.0,0.0,0.0,0.0,0.0,0.0,0.0,0.0,0.0,0.0,0.0,0.0,0.0,0.0,0.0,0.0,0.0,0.0,0.0,0.0,0.0,0.0,0.0,0.0,0.0,0.0,0.0,0.0,0.0,0.0,0.0,0.0,0.0,0.0,0.0,-1.262,-1.4505,-1.6734,0.0,-1.6211,-1.4179,0.0,0.0,0.0,0.0,0.0,0.0,0.0,0.0,0.0,0.0,0.0,0.0,0.0,0.0,0.0,0.0,0.0,0.0,0.0,0.0,0.0,0.0,0.0,0.0,0.0,0.0,0.0,0.0,0.0,0.0,0.0,0.0,0.0,0.0,0.0,0.0,0.0,0.0,0.0,0.0,0.0,0.0,0.0,0.0,0.0,0.0,0.0,0.0,0.0,0.0,0.0,0.0,0.0,0.0,0.0,0.0,0.0,0.0,0.0,0.0,0.0,0.0,0.0,0.0,0.0,0.0,0.0,0.0,0.0,0.0,0.0,0.0,0.0,0.0,0.0,0.0,0.0,0.0,0.0,0.0,0.0,0.0,0.0,0.0,0.0,0.0,0.0,0.0,0.0,0.0,0.0,0.0,0.0,0.0,0.0,0.0,0.0,0.0,0.0,0.0,0.0,0.0,0.0,0.0,0.0,0.0,0.0,0.0,0.0,-1.3311,0.0,-1.7256,0.0,-1.5196,-1.2753,0.0,0.0,0.0,0.0,0.0,0.0,0.0,0.0,0.0,0.0,0.0,0.0,0.0,0.0,0.0,0.0,0.0,0.0,0.0,0.0,0.0,0.0,0.0,0.0,0.0,0.0,0.0,0.0,0.0,0.0,0.0,0.0,0.0,0.0,0.0,0.0,0.0,0.0,0.0,0.0,0.0,0.0,0.0,0.0,0.0,0.0,0.0,0.0,0.0,0.0,0.0,0.0,0.0,0.0,0.0,0.0,0.0,0.0,0.0,0.0,0.0,0.0,0.0,0.0,0.0,0.0,0.0,0.0,0.0,0.0,0.0,0.0,0.0,0.0,0.0,0.0,0.0,0.0,0.0,0.0,0.0,0.0,0.0,0.0,0.0,0.0,0.0,0.0,0.0,0.0,0.0,0.0,0.0,0.0,0.0,0.0,0.0,0.0,0.0,0.0,0.0,0.0,0.0,0.0,0.0,0.0,0.0,0.0,0.0,-1.6988,-1.7715,-1.6922,-1.4431,-1.4784,-1.2533,0.0,0.0,0.0,0.0,0.0,0.0,0.0,0.0,0.0,0.0,0.0,0.0,0.0,0.0,0.0,0.0,0.0,0.0,0.0,0.0,0.0,0.0,0.0,0.0,0.0,0.0,0.0,0.0,0.0,0.0,0.0,0.0,0.0,0.0,0.0,0.0,0.0,0.0,0.0,0.0,0.0,0.0,0.0,0.0,0.0,0.0,0.0,0.0,0.0,0.0,0.0,0.0,0.0,0.0,0.0,0.0,0.0,0.0,0.0,0.0,0.0,0.0,0.0,0.0,0.0,0.0,0.0,0.0,0.0,0.0,0.0,0.0,0.0,0.0,0.0,0.0,0.0,0.0,0.0,0.0,0.0,0.0,0.0,0.0,0.0,0.0,0.0,0.0,0.0,0.0,0.0,0.0,0.0,0.0,0.0,0.0,0.0,0.0,0.0,0.0,0.0,0.0,0.0,0.0,0.0,0.0,0.0,0.0,0.0,-1.6556,-1.6469,-1.6544,-1.6692,-1.3739,-1.1357,0.0,0.0,0.0,0.0,0.0,0.0,0.0,0.0,0.0,0.0,0.0,0.0,0.0,0.0,0.0,0.0,0.0,0.0,0.0,0.0,0.0,0.0,0.0,0.0,0.0,0.0,0.0,0.0,0.0,0.0,0.0,0.0,0.0,0.0,0.0,0.0,0.0,0.0,0.0,0.0,0.0,0.0,0.0,0.0,0.0,0.0,0.0,0.0,0.0,0.0,0.0,0.0,0.0,0.0,0.0,0.0,0.0,0.0,0.0,0.0,0.0,0.0,0.0,0.0,0.0,0.0,0.0,0.0,0.0,0.0,0.0,0.0,0.0,0.0,0.0,0.0,0.0,0.0,0.0,0.0,0.0,0.0,0.0,0.0,0.0,0.0,0.0,0.0,0.0,0.0,0.0,0.0,0.0,0.0,0.0,0.0,0.0,0.0,0.0,0.0,0.0,0.0,0.0,0.0,0.0,0.0,0.0,0.0,0.0,-1.6817,-1.6959,-1.7025,-1.7006,-1.3559,-1.1006,-0.9538,0.0,0.0,0.0,0.0,0.0,0.0,0.0,0.0,0.0,0.0,0.0,0.0,0.0,0.0,0.0,0.0,0.0,0.0,0.0,0.0,0.0,0.0,0.0,0.0,0.0,0.0,0.0,0.0,0.0,0.0,0.0,0.0,0.0,0.0,0.0,0.0,0.0,0.0,0.0,0.0,0.0,0.0,0.0,0.0,0.0,0.0,0.0,0.0,0.0,0.0,0.0,0.0,0.0,0.0,0.0,0.0,0.0,0.0,0.0,0.0,0.0,0.0,0.0,0.0,0.0,0.0,0.0,0.0,0.0,0.0,0.0,0.0,0.0,0.0,0.0,0.0,0.0,0.0,0.0,0.0,0.0,0.0,0.0,0.0,0.0,0.0,0.0,0.0,0.0,0.0,0.0,0.0,0.0,0.0,0.0,0.0,0.0,0.0,0.0,0.0,0.0,0.0,0.0,0.0,0.0,0.0,0.0,0.0,-1.7517,-1.8719,-1.8107,-1.563,-1.4121,-1.1424,0.0,0.0,0.0,0.0,0.0,0.0,0.0,0.0,0.0,0.0,0.0,0.0,0.0,0.0,0.0,0.0,0.0,0.0,0.0,0.0,0.0,0.0,0.0,0.0,0.0,0.0,0.0,0.0,0.0,0.0,0.0,0.0,0.0,0.0,0.0,0.0,0.0,0.0,0.0,0.0,0.0,0.0,0.0,0.0,0.0,0.0,0.0,0.0,0.0,0.0,0.0,0.0,0.0,0.0,0.0,0.0,0.0,0.0,0.0,0.0,0.0,0.0,0.0,0.0,0.0,0.0,0.0,0.0,0.0,0.0,0.0,0.0,0.0,0.0,0.0,0.0,0.0,0.0,0.0,0.0,0.0,0.0,0.0,0.0,0.0,0.0,0.0,0.0,0.0,0.0,0.0,0.0,0.0,0.0,0.0,0.0,0.0,0.0,0.0,0.0,0.0,0.0,0.0,0.0,0.0,0.0,0.0,0.0,0.0,-1.6556,-1.7321,-1.7752,-1.7712,-1.4744,-1.1959,0.0,0.0,0.0,0.0,0.0,0.0,0.0,0.0,0.0,0.0,0.0,0.0,0.0,0.0,0.0,0.0,0.0,0.0,0.0,0.0,0.0,0.0,0.0,0.0,0.0,0.0,0.0,0.0,0.0,0.0,0.0,0.0,0.0,0.0,0.0,0.0,0.0,0.0,0.0,0.0,0.0,0.0,0.0,0.0,0.0,0.0,0.0,0.0,0.0,0.0,0.0,0.0,0.0,0.0,0.0,0.0,0.0,0.0,0.0,0.0,0.0,0.0,0.0,0.0,0.0,0.0,0.0,0.0,0.0,0.0,0.0,0.0,0.0,0.0,0.0,0.0,0.0,0.0,0.0,0.0,0.0,0.0,0.0,0.0,0.0,0.0,0.0,0.0,0.0,0.0,0.0,0.0,0.0,0.0,0.0,0.0,0.0,0.0,0.0,0.0,0.0,0.0,0.0,0.0,0.0,0.0,0.0,0.0,-1.4911,-1.6133,-1.664,-1.7055,-1.7382,-1.4519,-1.2037,0.0,0.0,0.0,0.0,0.0,0.0,0.0,0.0,0.0,0.0,0.0,0.0,0.0,0.0,0.0,0.0,0.0,0.0,0.0,0.0,0.0,0.0,0.0,0.0,0.0,0.0,0.0,0.0,0.0,0.0,0.0,0.0,0.0,0.0,0.0,0.0,0.0,0.0,0.0,0.0,0.0,0.0,0.0,0.0,0.0,0.0,0.0,0.0,0.0,0.0,0.0,0.0,0.0,0.0,0.0,0.0,0.0,0.0,0.0,0.0,0.0,0.0,0.0,0.0,0.0,0.0,0.0,0.0,0.0,0.0,0.0,0.0,0.0,0.0,0.0,0.0,0.0,0.0,0.0,0.0,0.0,0.0,0.0,0.0,0.0,0.0,0.0,0.0,0.0,0.0,0.0,0.0,0.0,0.0,0.0,0.0,0.0,0.0,0.0,0.0,0.0,0.0,0.0,0.0,0.0,0.0,0.0,0.0,-1.4136,-1.5893,-1.6202,-1.6034,-1.5415,-1.3742,-1.1807,0.0,0.0,0.0,0.0,0.0,0.0,0.0,0.0,0.0,0.0,0.0,0.0,0.0,0.0,0.0,0.0,0.0,0.0,0.0,0.0,0.0,0.0,0.0,0.0,0.0,0.0,0.0,0.0,0.0,0.0,0.0,0.0,0.0,0.0,0.0,0.0,0.0,0.0,0.0,0.0,0.0,0.0,0.0,0.0,0.0,0.0,0.0,0.0,0.0,0.0,0.0,0.0,0.0,0.0,0.0,0.0,0.0,0.0,0.0,0.0,0.0,0.0,0.0,0.0,0.0,0.0,0.0,0.0,0.0,0.0,0.0,0.0,0.0,0.0,0.0,0.0,0.0,0.0,0.0,0.0,0.0,0.0,0.0,0.0,0.0,0.0,0.0,0.0,0.0,0.0,0.0,0.0,0.0,0.0,0.0,0.0,0.0,0.0,0.0,0.0,0.0,0.0,0.0,0.0,0.0,0.0,0.0,0.0,-1.3164,-1.495,-1.4709,-1.4509,-1.4407,-1.3089,-1.1328,0.0,0.0,0.0,0.0,0.0,0.0,0.0,0.0,0.0,0.0,0.0,0.0,0.0,0.0,0.0,0.0,0.0,0.0,0.0,0.0,0.0,0.0,0.0,0.0,0.0,0.0,0.0,0.0,0.0,0.0,0.0,0.0,0.0,0.0,0.0,0.0,0.0,0.0,0.0,0.0,0.0,0.0,0.0,0.0,0.0,0.0,0.0,0.0,-1.2113,0.0,0.0,0.0,0.0,0.0,0.0,0.0,0.0,0.0,0.0,0.0,0.0,0.0,0.0,0.0,0.0,0.0,0.0,0.0,0.0,0.0,0.0,0.0,0.0,0.0,0.0,0.0,0.0,0.0,0.0,0.0,0.0,0.0,0.0,0.0,0.0,0.0,0.0,0.0,0.0,0.0,0.0,0.0,0.0,0.0,0.0,0.0,0.0,0.0,0.0,0.0,0.0,0.0,0.0,0.0,0.0,0.0,0.0,0.0,-1.2725,-1.4398,-1.3882,-1.3577,-1.3545,-1.2645,-1.1205,0.0,0.0,0.0,0.0,0.0,0.0,0.0,0.0,0.0,0.0,0.0,0.0,0.0,0.0,0.0,0.0,0.0,0.0,0.0,0.0,0.0,0.0,0.0,0.0,0.0,0.0,0.0,0.0,0.0,0.0,0.0,0.0,0.0,0.0,0.0,0.0,0.0,0.0,0.0,0.0,0.0,0.0,0.0,0.0,0.0,0.0,0.0,0.0,0.0,0.0,0.0,0.0,0.0,0.0,0.0,0.0,0.0,0.0,0.0,0.0,0.0,0.0,0.0,0.0,0.0,0.0,0.0,0.0,0.0,0.0,0.0,0.0,0.0,0.0,0.0,0.0,0.0,0.0,0.0,0.0,0.0,0.0,0.0,0.0,0.0,0.0,0.0,0.0,0.0,0.0,0.0,0.0,0.0,0.0,0.0,0.0,0.0,0.0,0.0,0.0,0.0,0.0,0.0,0.0,0.0,0.0,0.0,-1.0992,-1.2481,-1.4041,-1.3511,-1.3075,-1.2961,-1.2491,-1.1421,-0.9648,0.0,0.0,0.0,0.0,0.0,0.0,0.0,0.0,0.0,0.0,0.0,0.0,0.0,0.0,0.0,0.0,0.0,0.0,0.0,0.0,0.0,0.0,0.0,0.0,0.0,0.0,0.0,0.0,0.0,0.0,0.0,0.0,0.0,0.0,0.0,0.0,0.0,0.0,-1.2718,-1.4056,0.0,0.0,0.0,0.0,0.0,0.0,0.0,0.0,-1.1696,0.0,0.0,0.0,0.0,0.0,0.0,0.0,0.0,0.0,0.0,0.0,0.0,0.0,0.0,0.0,0.0,0.0,0.0,0.0,0.0,0.0,0.0,0.0,0.0,0.0,0.0,0.0,0.0,0.0,0.0,0.0,0.0,0.0,0.0,0.0,0.0,0.0,0.0,0.0,0.0,0.0,0.0,0.0,0.0,0.0,0.0,0.0,0.0,0.0,0.0,0.0,0.0,0.0,0.0,0.0,0.0,-1.0928,-1.1143,-1.2102,-1.3882,-1.3565,-1.3167,-1.278,-1.3145,-1.2195,-0.9767,0.0,0.0,0.0,0.0,0.0,0.0,0.0,0.0,0.0,0.0,0.0,0.0,0.0,0.0,0.0,0.0,0.0,0.0,0.0,0.0,0.0,0.0,0.0,0.0,0.0,0.0,0.0,0.0,0.0,0.0,0.0,0.0,0.0,0.0,0.0,0.0,0.0,0.0,0.0,-1.5906,-1.6547,0.0,0.0,0.0,0.0,0.0,0.0,0.0,0.0,-1.1719,0.0,0.0,0.0,0.0,0.0,0.0,0.0,0.0,0.0,0.0,0.0,0.0,0.0,0.0,0.0,0.0,0.0,0.0,0.0,0.0,0.0,0.0,0.0,0.0,0.0,0.0,0.0,0.0,0.0,0.0,0.0,0.0,0.0,0.0,0.0,0.0,0.0,0.0,0.0,0.0,0.0,0.0,0.0,0.0,0.0,0.0,0.0,0.0,0.0,0.0,0.0,0.0,0.0,0.0,0.0,-1.016,-1.1244,-1.2462,-1.3838,-1.3912,-1.388,-1.3805,-1.332,-1.2481,0.0,0.0,0.0,0.0,0.0,0.0,0.0,0.0,0.0,0.0,0.0,0.0,0.0,0.0,0.0,0.0,0.0,0.0,0.0,0.0,0.0,0.0,0.0,0.0,0.0,0.0,0.0,0.0,0.0,0.0,0.0,0.0,0.0,0.0,0.0,0.0,0.0,0.0,0.0,0.0,-1.6978,-1.7423,-1.7602,0.0,0.0,0.0,0.0,0.0,0.0,-1.397,-1.4207,0.0,0.0,0.0,0.0,0.0,0.0,0.0,0.0,0.0,0.0,0.0,0.0,0.0,0.0,0.0,0.0,0.0,0.0,0.0,0.0,0.0,0.0,0.0,0.0,0.0,0.0,0.0,0.0,0.0,0.0,0.0,0.0,0.0,0.0,0.0,0.0,0.0,0.0,0.0,0.0,0.0,0.0,0.0,0.0,0.0,0.0,0.0,0.0,0.0,0.0,0.0,0.0,0.0,0.0,0.0,-0.9492,-1.1321,-1.2909,-1.4139,-1.4343,-1.4645,-1.4989,-1.3967,-1.3134,0.0,0.0,0.0,0.0,0.0,0.0,0.0,0.0,0.0,0.0,0.0,0.0,0.0,0.0,0.0,0.0,0.0,0.0,0.0,0.0,0.0,0.0,0.0,0.0,0.0,0.0,0.0,0.0,0.0,0.0,0.0,0.0,0.0,0.0,0.0,0.0,0.0,0.0,0.0,0.0,0.0,-1.8153,-1.8792,-1.8214,0.0,0.0,0.0,0.0,-1.3532,-1.5312,0.0,0.0,0.0,0.0,0.0,0.0,0.0,0.0,0.0,0.0,0.0,0.0,0.0,0.0,0.0,0.0,0.0,0.0,0.0,0.0,0.0,0.0,0.0,0.0,0.0,0.0,0.0,0.0,0.0,0.0,0.0,0.0,0.0,0.0,0.0,0.0,0.0,0.0,0.0,0.0,0.0,0.0,0.0,0.0,0.0,0.0,0.0,0.0,0.0,0.0,0.0,0.0,0.0,0.0,0.0,0.0,-1.0297,-1.1325,-1.2945,-1.5002,-1.4788,-1.4953,-1.5743,-1.5984,-1.4977,0.0,0.0,0.0,0.0,0.0,0.0,0.0,0.0,0.0,0.0,0.0,0.0,0.0,0.0,0.0,0.0,0.0,0.0,0.0,0.0,0.0,0.0,0.0,0.0,0.0,0.0,0.0,0.0,0.0,0.0,0.0,0.0,0.0,0.0,0.0,0.0,0.0,0.0,0.0,0.0,0.0,-1.8899,-1.8603,-1.9221,-1.911,0.0,0.0,0.0,-1.7313,-1.5516,0.0,0.0,0.0,0.0,0.0,0.0,0.0,0.0,0.0,0.0,0.0,0.0,0.0,0.0,0.0,0.0,0.0,0.0,0.0,0.0,0.0,0.0,0.0,0.0,0.0,0.0,0.0,0.0,0.0,0.0,0.0,0.0,0.0,0.0,0.0,0.0,0.0,0.0,0.0,0.0,0.0,0.0,0.0,0.0,0.0,0.0,0.0,0.0,0.0,0.0,0.0,0.0,0.0,0.0,0.0,-0.8528,-0.984,-1.1672,-1.338,-1.4904,-1.6027,-1.66,-1.6573,-1.619,-1.4937,0.0,0.0,0.0,0.0,0.0,0.0,0.0,0.0,0.0,0.0,0.0,0.0,0.0,0.0,0.0,0.0,0.0,0.0,0.0,0.0,0.0,0.0,0.0,0.0,0.0,0.0,0.0,0.0,0.0,0.0,0.0,0.0,0.0,0.0,0.0,0.0,0.0,0.0,0.0,0.0,0.0,0.0,-1.9527,-2.1302,0.0,0.0,0.0,-1.7927,-1.8084,0.0,0.0,0.0,0.0,0.0,0.0,0.0,0.0,0.0,0.0,0.0,0.0,0.0,0.0,0.0,0.0,0.0,0.0,0.0,0.0,0.0,0.0,0.0,0.0,0.0,0.0,0.0,0.0,0.0,0.0,0.0,0.0,0.0,0.0,0.0,0.0,0.0,0.0,0.0,0.0,0.0,0.0,0.0,0.0,0.0,0.0,0.0,0.0,0.0,0.0,0.0,0.0,0.0,0.0,0.0,0.0,0.0,-0.9717,-1.2145,-1.4037,-1.5377,-1.7041,-1.7818,-1.7522,-1.6584,0.0,0.0,0.0,0.0,0.0,0.0,0.0,0.0,0.0,0.0,0.0,0.0,0.0,0.0,0.0,0.0,0.0,0.0,0.0,0.0,0.0,0.0,0.0,0.0,0.0,0.0,0.0,-0.7514,0.0,0.0,0.0,0.0,0.0,0.0,0.0,0.0,0.0,0.0,0.0,0.0,0.0,0.0,-1.9677,-2.0543,-2.2823,-2.3585,0.0,0.0,-2.1112,-1.9179,-2.0934,-2.1629,0.0,0.0,0.0,0.0,0.0,0.0,0.0,0.0,0.0,0.0,0.0,0.0,0.0,0.0,0.0,0.0,0.0,0.0,0.0,0.0,0.0,0.0,0.0,0.0,0.0,0.0,0.0,0.0,0.0,0.0,0.0,0.0,0.0,0.0,0.0,0.0,0.0,0.0,0.0,0.0,0.0,0.0,0.0,0.0,0.0,0.0,0.0,0.0,0.0,0.0,0.0,0.0,0.0,0.0,0.0,-1.078,-1.269,-1.4818,-1.7116,-1.7359,-1.7823,-1.8536,-1.7896,-1.6323,0.0,0.0,0.0,0.0,0.0,0.0,0.0,0.0,0.0,0.0,0.0,0.0,0.0,0.0,0.0,0.0,0.0,0.0,0.0,0.0,0.0,0.0,0.0,0.0,0.0,0.0,0.0,0.0,0.0,0.0,0.0,0.0,0.0,0.0,0.0,0.0,0.0,0.0,0.0,0.0,0.0,-2.0362,-2.1213,-2.2892,-2.3779,0.0,0.0,-2.2589,-2.1992,-2.2759,-2.3128,-2.2038,0.0,0.0,0.0,0.0,0.0,0.0,0.0,0.0,0.0,0.0,0.0,0.0,0.0,0.0,0.0,0.0,0.0,0.0,0.0,0.0,0.0,0.0,0.0,0.0,0.0,0.0,0.0,0.0,0.0,0.0,0.0,0.0,0.0,0.0,0.0,0.0,0.0,0.0,0.0,0.0,0.0,0.0,0.0,0.0,0.0,0.0,0.0,0.0,0.0,0.0,0.0,0.0,0.0,-0.8517,-0.9809,-1.2537,-1.4943,-1.701,-1.7741,-1.8166,-1.8401,-1.7777,-1.6402,0.0,0.0,0.0,0.0,0.0,0.0,0.0,0.0,0.0,0.0,0.0,0.0,0.0,0.0,0.0,0.0,0.0,0.0,0.0,0.0,0.0,0.0,0.0,0.0,0.0,0.0,0.0,0.0,-1.068,-1.1974,-1.3107,0.0,0.0,0.0,0.0,0.0,0.0,0.0,0.0,0.0,0.0,-2.1899,-2.2345,-2.3509,0.0,0.0,-2.3392,-2.3127,-2.2509,-2.2586,-2.2723,-2.2661,-1.8948,0.0,0.0,0.0,0.0,0.0,0.0,0.0,0.0,0.0,0.0,0.0,0.0,0.0,0.0,0.0,0.0,0.0,0.0,0.0,0.0,0.0,0.0,0.0,0.0,0.0,0.0,0.0,0.0,0.0,0.0,0.0,0.0,0.0,0.0,0.0,0.0,0.0,0.0,0.0,0.0,0.0,0.0,0.0,0.0,0.0,0.0,0.0,0.0,0.0,0.0,0.0,0.0,-0.8255,-0.9254,-1.2433,-1.4931,-1.6725,-1.7725,-1.8172,-1.7995,-1.7534,-1.6387,0.0,0.0,0.0,0.0,0.0,0.0,0.0,0.0,0.0,0.0,0.0,0.0,0.0,0.0,0.0,0.0,0.0,0.0,0.0,0.0,0.0,0.0,0.0,0.0,0.0,0.0,0.0,0.0,-1.1823,-1.3175,-1.4954,0.0,0.0,0.0,0.0,0.0,0.0,0.0,0.0,0.0,0.0,-2.394,-2.4027,-2.4467,-2.4589,-2.3894,-2.3465,-2.3068,-2.2828,-2.2601,-2.2221,-2.1657,0.0,0.0,0.0,0.0,0.0,0.0,0.0,0.0,0.0,0.0,0.0,0.0,0.0,0.0,0.0,0.0,0.0,0.0,0.0,0.0,0.0,0.0,0.0,0.0,0.0,0.0,0.0,0.0,0.0,0.0,-0.8049,0.0,0.0,0.0,0.0,0.0,0.0,0.0,0.0,0.0,0.0,0.0,0.0,0.0,0.0,0.0,0.0,0.0,0.0,0.0,0.0,0.0,0.0,0.0,-0.9567,-1.2429,-1.4762,-1.648,-1.7308,-1.7655,-1.7545,-1.7279,-1.6383,-1.4694,0.0,0.0,0.0,0.0,0.0,0.0,0.0,0.0,0.0,0.0,0.0,0.0,0.0,0.0,0.0,0.0,0.0,0.0,0.0,0.0,0.0,0.0,0.0,0.0,0.0,0.0,-0.9421,-1.0728,-1.2624,0.0,0.0,0.0,0.0,0.0,0.0,0.0,0.0,0.0,0.0,-2.5176,-2.6324,-2.627,-2.575,-2.5108,-2.4416,-2.3172,-2.2509,-2.3142,-2.3068,-2.1917,0.0,0.0,0.0,0.0,0.0,0.0,0.0,0.0,0.0,0.0,0.0,0.0,0.0,0.0,0.0,0.0,0.0,0.0,0.0,0.0,0.0,0.0,0.0,0.0,0.0,0.0,0.0,-1.2772,-1.1535,0.0,0.0,0.0,0.0,0.0,0.0,0.0,0.0,0.0,0.0,0.0,-1.2537,-1.3363,0.0,0.0,0.0,0.0,0.0,0.0,0.0,0.0,0.0,0.0,0.0,0.0,-0.914,-0.9425,-1.2786,-1.5157,-1.6401,-1.6869,-1.7229,-1.7464,-1.6967,-1.5761,-1.3882,0.0,0.0,0.0,0.0,0.0,0.0,0.0,0.0,0.0,0.0,0.0,0.0,0.0,0.0,0.0,0.0,0.0,0.0,0.0,0.0,0.0,0.0,0.0,0.0,0.0,-0.9713,0.0,0.0,0.0,0.0,0.0,0.0,0.0,0.0,0.0,0.0,0.0,-2.68,-2.683,-2.7166,-2.7078,-2.6184,-2.6437,-2.6372,0.0,0.0,0.0,0.0,0.0,0.0,0.0,0.0,0.0,0.0,0.0,0.0,0.0,0.0,-1.5467,-1.4213,-1.3591,-1.2914,-1.1732,0.0,0.0,0.0,0.0,0.0,0.0,0.0,0.0,0.0,0.0,0.0,0.0,0.0,0.0,-1.5237,0.0,-1.3892,0.0,0.0,0.0,0.0,0.0,0.0,0.0,0.0,-1.2643,-1.3737,-1.4704,-1.5416,-1.5462,0.0,-1.5279,-1.4446,0.0,0.0,0.0,0.0,0.0,0.0,0.0,0.0,-1.0155,-1.0411,-1.3132,-1.5133,-1.611,-1.6477,-1.6728,-1.6942,-1.6287,-1.5212,-1.3608,-1.2269,-1.1088,0.0,0.0,0.0,0.0,0.0,0.0,0.0,0.0,0.0,0.0,0.0,0.0,0.0,0.0,0.0,0.0,0.0,0.0,0.0,0.0,0.0,0.0,0.0,-0.9915,0.0,0.0,0.0,0.0,0.0,0.0,0.0,0.0,0.0,-2.1973,-2.5733,-2.8264,-2.7879,-2.8221,-2.804,-2.6782,0.0,0.0,0.0,0.0,0.0,0.0,0.0,-2.4979,-2.4909,-2.5155,-2.5077,-2.4232,-2.2282,-2.0673,-2.0125,0.0,0.0,-1.6157,-1.5498,-1.4779,-1.4251,-1.3211,-1.2409,-1.2348,-1.2136,-1.1907,0.0,0.0,0.0,0.0,0.0,0.0,0.0,0.0,-1.8379,-1.7999,0.0,-1.7219,0.0,0.0,0.0,0.0,0.0,0.0,0.0,0.0,-1.5232,-1.6261,-1.6125,-1.6841,-1.7299,-1.7479,-1.7871,-1.7678,-1.6892,-1.4521,0.0,0.0,0.0,0.0,0.0,0.0,-1.1344,-1.2426,-1.3593,-1.4682,-1.5698,-1.6192,-1.6269,-1.5914,-1.5391,-1.4704,-1.3939,-1.3053,-1.1931,-1.0546,-0.9278,0.0,0.0,0.0,0.0,0.0,0.0,0.0,0.0,0.0,0.0,0.0,0.0,0.0,0.0,0.0,0.0,0.0,0.0,0.0,0.0,-0.8756,0.0,0.0,0.0,0.0,0.0,0.0,0.0,0.0,0.0,0.0,-2.6787,-2.8497,-2.8766,-2.7122,0.0,0.0,0.0,0.0,-2.8864,-2.7623,-2.8383,-2.8372,-2.6352,-2.7105,-2.7031,-2.4432,0.0,0.0,-2.3589,-2.3375,-2.2752,-2.0459,-1.7996,-1.6826,-1.8536,-1.7086,-1.62,-1.7281,-1.4612,-1.218,-1.1772,-1.1901,-1.1979,-2.8428,0.0,0.0,0.0,0.0,-2.0819,-2.1187,-2.2635,-2.1644,-2.0894,-2.018,-1.947,0.0,0.0,0.0,0.0,0.0,0.0,-1.4467,-1.5544,-1.623,-1.6951,-1.7702,-1.8065,-1.8189,-1.8147,-1.8555,-1.8641,-1.8418,-1.7877,-1.6111,-1.3299,0.0,0.0,0.0,0.0,-1.2776,-1.2758,-1.4478,-1.5639,-1.6171,-1.6316,-1.6249,-1.5884,-1.5672,-1.507,-1.4159,-1.3518,-1.2713,-1.1642,-1.1279,0.0,0.0,0.0,0.0,0.0,0.0,0.0,0.0,0.0,0.0,0.0,0.0,0.0,0.0,0.0,0.0,0.0,0.0,0.0,-0.8371,-0.9321,-1.0393,0.0,0.0,0.0,0.0,0.0,0.0,0.0,0.0,0.0,-2.6144,-2.7204,-2.7822,0.0,0.0,-2.856,-2.7995,-2.8777,-2.9202,-2.8622,0.0,0.0,0.0,-2.7987,-2.8493,-2.9315,-2.6771,-2.4432,-2.4049,-2.3752,-2.2946,-2.1069,-1.782,-1.5775,-1.6734,-1.6446,-1.5762,-1.5508,-1.4003,-1.2742,-1.2594,-1.2683,-1.2591,-3.1655,-2.8937,-2.6334,-2.5402,-2.5499,-2.4253,-2.4328,-2.5393,-2.4491,-2.3923,-2.3743,-2.2782,-2.1261,-1.9364,-1.7342,0.0,0.0,0.0,-1.6008,-1.7124,-1.7128,-1.75,-1.8127,-1.8247,-1.8398,-1.8476,-1.8721,-1.9093,-1.95,-1.9636,-1.858,-1.6376,0.0,0.0,-1.3047,-1.4053,-1.4264,-1.3768,-1.5133,-1.6019,-1.6192,-1.6077,-1.5941,-1.5874,-1.5321,-1.4664,-1.4103,-1.3476,-1.2837,-1.2062,-1.2318,-1.1804,0.0,0.0,0.0,0.0,0.0,0.0,0.0,0.0,0.0,0.0,0.0,-0.2884,0.0,0.0,0.0,0.0,-0.3779,-0.5584,-0.8823,-0.9422,0.0,0.0,0.0,0.0,0.0,0.0,0.0,-2.2068,-2.3676,-2.4892,-2.5147,-2.5524,-2.6272,-2.777,-2.8296,-2.851,-2.8457,0.0,-2.9609,-2.9663,-2.9678,-2.9572,-2.9198,-2.8984,-2.9037,-2.9457,-2.5924,-2.3124,-2.3226,-2.3325,-2.2845,-2.0935,-1.7657,-1.5052,-1.5346,-1.5161,-1.4625,-1.3905,-1.355,-1.3476,-1.3777,-1.3606,-1.3273,-3.411,-3.3454,-3.0166,-2.8717,-2.8525,-2.7542,-2.7013,-2.6871,-2.6837,-2.7037,-2.7294,-2.6407,-2.5342,-2.3895,-2.0286,0.0,0.0,-1.7751,-1.7428,-1.7878,-1.7989,-1.7933,-1.7711,-1.7844,-1.8162,-1.8494,-1.856,-1.9081,-2.0029,-2.0118,-2.0077,-1.9839,-1.8531,-1.707,-1.5702,-1.5869,-1.5807,-1.5372,-1.5796,-1.5984,-1.6019,-1.5652,-1.5575,-1.5813,-1.4582,-1.3874,-1.3647,-1.2982,-1.2309,-1.1705,-1.2389,-1.2351,-1.119,0.0,0.0,0.0,0.0,0.0,0.0,0.0,0.0,0.0,0.0,0.0,0.0,0.0,0.0,0.0,-0.5913,0.0,-0.8193,-0.9248,0.0,0.0,0.0,-1.4602,-1.8831,-2.0497,-2.1637,-2.2447,0.0,0.0,0.0,0.0,-2.4482,-2.6741,-2.7939,-2.877,-2.9214,-2.9454,-2.9888,-3.0382,-3.0377,-3.0274,-3.0182,-2.9789,-2.8623,-2.6412,-2.3586,-2.1691,-2.1675,-2.2387,-2.2339,-2.054,-1.7287,-1.4717,-1.4253,-1.4009,-1.3345,-1.2695,-1.3483,-1.4598,-1.5221,-1.4866,-1.4204,-3.5545,-3.5377,-3.3786,-3.2163,-3.0774,-3.0488,-3.0034,-2.9378,-2.8708,-2.8288,-2.7944,-2.7409,-2.6439,-2.5063,-2.3543,-2.218,-2.1073,-2.0423,-1.9606,-1.8785,-1.9099,-1.8714,-1.7745,-1.7968,-1.8002,-1.7822,-1.817,-1.8667,-1.9146,-1.9875,-2.0118,-1.999,-1.9808,-1.889,-1.7372,-1.7023,-1.6836,-1.674,-1.683,-1.6847,-1.6729,-1.6457,-1.594,-1.5249,-1.4712,-1.3772,-1.233,-1.1996,-1.1402,-1.0521,-1.1099,-1.1296,-1.0961,-0.9988,0.0,0.0,0.0,0.0,0.0,0.0,0.0,0.0,0.0,-0.458,-0.3833,0.0,-0.6006,0.0,-0.674,-0.7914,-0.9304,-0.9397,0.0,0.0,-1.3358,-1.4732,-1.7652,-1.9673,-2.1152,-2.1956,-2.2326,-2.3214,-2.5218,-2.4028,-2.3214,-2.3867,-2.5725,-2.7497,-2.8679,-2.9108,-2.9334,-2.9626,-3.0249,-3.0773,-3.0633,-2.9592,-2.7456,-2.4443,-2.1354,-1.9518,-2.0138,-2.0975,-2.0874,-1.8635,-1.5386,-1.3638,-1.4499,-1.4477,-1.4007,-1.3712,-1.4833,-1.6369,-1.727,-1.644,-1.5512,-3.623,-3.6186,-3.5953,-3.4832,-3.3268,-3.2584,-3.1974,-3.1508,-3.0825,-3.0459,-3.023,-2.944,-2.8254,-2.6847,-2.5562,-2.4474,-2.3472,-2.2098,-2.0853,-1.994,-1.9898,-1.9171,-1.7878,-1.8076,-1.8,-1.759,-1.7909,-1.8387,-1.9158,-1.972,-2.0258,-2.0656,-2.0399,-1.994,-1.9246,-1.853,-1.8043,-1.7767,-1.75,-1.7134,-1.6842,-1.6446,-1.5924,-1.5219,-1.4648,-1.3789,-1.2597,-1.2085,-1.1299,-1.0148,-1.0167,-1.0275,-1.0389,-1.0441,-0.9946,0.0,0.0,0.0,0.0,0.0,0.0,0.0,0.0,0.0,0.0,0.0,-0.8168,0.0,-0.8471,0.0,-0.9611,-0.9968,-1.0937,-1.2982,-1.3489,-1.4714,-1.7462,-1.9155,-2.0463,-2.1378,-2.1349,-2.1826,-2.3332,-2.3337,-2.3158,-2.3145,-2.4568,-2.6298,-2.8009,-2.8678,-2.8968,-2.9321,-2.9542,-2.9115,-2.8031,-2.6559,-2.4837,-2.2579,-1.978,-1.7977,-1.8324,-1.8747,-1.8566,-1.695,-1.4266,-1.2704,-1.4136,-1.4676,-1.4594,-1.4911,-1.6544,-1.8213,-1.8629,-1.7844,-1.7107,-3.6692,-3.6456,-3.7011,-3.6691,-3.5683,-3.42,-3.3465,-3.3168,-3.2927,-3.28,-3.2708,-3.1689,-3.0397,-2.8939,-2.7297,-2.6341,-2.5826,-2.3453,-2.1919,-2.1205,-2.0684,-1.9656,-1.8239,-1.8306,-1.8167,-1.7768,-1.7812,-1.8348,-1.9448,-1.9643,-2.0257,-2.1199,-2.0528,-2.0438,-2.0767,-1.9918,-1.9133,-1.8536,-1.7909,-1.7357,-1.6797,-1.6265,-1.5843,-1.5428,-1.4573,-1.3838,-1.322,-1.2503,-1.1531,-1.0268,-0.961,-0.9426,-0.9781,-1.0967,-1.1105,0.0,-0.9778,0.0,0.0,0.0,0.0,0.0,0.0,0.0,0.0,-0.8321,-0.9666,-1.0968,-1.0485,-1.0102,-1.0014,-1.0783,-1.1947,-1.3276,-1.3462,-1.4641,-1.7616,-1.8769,-1.9617,-2.0686,-2.0898,-2.0885,-2.0906,-2.2282,-2.3352,-2.3487,-2.4206,-2.5399,-2.7104,-2.7862,-2.8342,-2.8923,-2.832,-2.682,-2.4007,-2.2588,-2.1817,-2.0756,-1.8639,-1.6878,-1.6666,-1.6502,-1.6146,-1.5481,-1.4005,-1.3128,-1.4108,-1.4658,-1.5008,-1.5628,-1.8104,-1.9922,-1.9533,-1.9108,-1.8495,-3.7291,-3.6996,-3.7014,-3.6968,-3.6787,-3.6029,-3.4906,-3.3722,-3.4109,-3.3747,-3.2859,-3.2939,-3.2199,-3.0806,-3.0482,-2.9099,-2.6999,-2.5725,-2.4121,-2.2268,-2.1909,-2.0852,-1.9279,-1.9205,-1.8808,-1.8156,-1.8237,-1.8406,-1.8625,-1.921,-1.9614,-1.9974,-2.0131,-2.0233,-2.0322,0.0,0.0,0.0,-1.841,-1.8084,-1.781,-1.7123,-1.6371,-1.5507,-1.4683,0.0,-1.1988,-1.1702,-1.116,-1.0094,-0.9494,0.0,0.0,0.0,0.0,0.0,0.0,0.0,0.0,0.0,0.0,0.0,-0.7179,-0.7185,-0.7973,-1.0198,-1.1498,-1.1166,-1.1898,-1.2302,-1.2164,-1.2055,-1.2389,-1.3093,-1.3075,-1.4269,-1.7362,-1.8159,-1.8721,-1.9617,-2.0283,-2.0749,-2.074,-2.1424,-2.2261,-2.3132,-2.4255,-2.5154,-2.566,-2.6246,-2.6598,-2.6793,-2.6392,-2.4719,-2.1225,-2.0485,-2.0124,-1.9516,-1.7622,-1.6155,-1.6148,-1.5232,-1.4413,-1.4051,-1.4758,-1.5651,-1.6196,-1.52,-1.4896,-1.6994,-1.8952,-2.0272,-2.0381,-2.0062,-1.9669,-3.7189,0.0,-3.7547,-3.7524,0.0,-3.7522,-3.6712,-3.5229,-3.5196,-3.4714,-3.3833,-3.3862,-3.3184,-3.2003,-3.1426,-3.0148,-2.8268,-2.6831,-2.5422,-2.4069,-2.3059,-2.1928,-2.0644,-2.0154,-1.9697,-1.9206,-1.8828,-1.886,-1.9155,-1.9332,-1.9512,-1.9823,-2.008,-2.0182,-2.008,-1.9772,-1.9356,-1.8893,-1.8625,-1.829,-1.7897,-1.729,-1.6613,-1.5721,0.0,0.0,0.0,0.0,0.0,0.0,0.0,0.0,0.0,0.0,0.0,-1.161,-1.1337,-1.0823,-1.0077,-0.9542,-0.9189,-0.8901,-0.9164,-0.9702,-1.0349,-1.1823,-1.3015,-1.3789,-1.3559,-1.3343,-1.3412,-1.3023,-1.3113,-1.3867,-1.3715,-1.4585,-1.7245,-1.8532,-1.926,-1.9694,-2.0057,-2.0283,-2.0283,-2.0844,-2.1724,-2.2962,-2.4102,-2.4901,-2.5056,-2.5819,-2.6266,-2.5588,-2.4076,-2.2644,-2.0995,-1.9279,-1.8551,-1.8248,-1.7015,-1.5913,-1.5674,-1.4967,-1.4043,-1.3488,-1.5601,-1.8048,-1.8396,-1.6895,-1.5947,-1.7876,-2.0105,-2.1738,-2.2016,-2.1242,-2.0198,-3.7398,-3.7803,-3.8241,-3.8196,-3.7931,-3.8683,-3.8173,-3.6842,0.0,0.0,0.0,-3.4584,-3.3918,-3.293,-3.199,-3.0821,-2.9461,-2.7834,-2.6631,-2.5814,-2.428,-2.3052,-2.2083,-2.1284,-2.0719,-2.0346,-1.9645,-1.95,-1.9964,-1.9711,-1.9716,-1.9939,-2.008,-2.0131,-1.9939,-1.9617,-1.9316,-1.8987,-1.8732,-1.8387,-1.7886,-1.7367,-1.6846,-1.61,-1.5937,-1.539,-1.4337,-1.4107,-1.3589,-1.2587,-1.3194,-1.3308,-1.2617,-1.3553,-1.3939,-1.337,-1.2971,-1.2337,-1.1462,-1.093,-1.041,-0.9883,-1.1311,-1.2457,-1.2912,-1.313,-1.4261,-1.6519,-1.5071,-1.4056,-1.4307,-1.3868,-1.3946,-1.5007,-1.4709,-1.5389,-1.7631,-1.9183,-2.0076,-2.0238,-2.031,-2.0002,-1.9599,-2.0452,-2.1516,-2.2675,-2.3676,-2.4638,-2.5114,-2.6049,-2.6299,-2.504,-2.3178,-2.1404,-2.1095,-1.9738,-1.8004,-1.8078,-1.7179,-1.6351,-1.5944,-1.5477,-1.4658,-1.3901,-1.7055,-1.9837,-2.0708,-1.9143,-1.8021,-1.8868,-2.114,-2.3222,-2.3537,-2.2446,-2.1184,-3.871,-3.864,-3.907,-3.9066,-3.8698,-3.8974,-3.8602,-3.7597,-3.5747,-3.5317,-3.5904,-3.5434,-3.4625,-3.3653,-3.4014,-3.2685,-3.0151,-2.9487,-2.8359,0.0,-2.5537,-2.4406,-2.3266,-2.2687,-2.2023,-2.1236,-2.0807,-2.0322,-1.9908,-2.0146,-2.0089,-1.9758,-2.0029,-2.008,-1.9862,-1.9747,-1.9448,-1.8839,-1.8798,-1.8679,-1.8464,-1.799,-1.7509,-1.6863,-1.6675,-1.6258,-1.561,-1.5669,-1.5666,-1.5635,-1.6085,-1.6275,-1.5901,-1.6134,-1.605,-1.5454,-1.4431,-1.3488,-1.2946,-1.1882,-1.0978,-1.0731,-1.2779,-1.409,-1.39,-1.4253,-1.5051,-1.6476,-1.5674,-1.5184,-1.5166,-1.4615,-1.4785,-1.5975,-1.5989,-1.6632,-1.8521,-1.9582,-2.0292,-2.0538,-2.1346,-2.0864,-1.9206,-2.0241,-2.1481,-2.1999,-2.3182,-2.4494,-2.5831,-2.636,-2.6054,-2.5163,-2.3798,-2.2585,-2.1908,-2.1264,-2.0229,-1.9344,-1.8706,-1.8314,-1.8479,-1.7412,-1.6548,-1.6722,-1.9519,-2.1843,-2.2524,-2.1315,-2.0571,-2.1134,-2.2425,-2.3396,-2.3744,-2.3659,-2.3132,-3.8273,-3.8846,-3.9228,-3.9281,-3.9157,-3.9139,-3.8936,-3.8446,-3.6988,-3.6201,-3.6128,-3.5971,-3.5235,-3.4098,-3.4385,-3.3203,-3.0797,-3.0495,-2.9476,-2.7961,-2.6817,-2.5818,-2.5038,-2.4159,-2.3489,-2.2922,-2.2274,-2.1589,-2.0878,-2.0736,-2.0416,-1.9952,-1.9965,-2.0016,-2.0016,-1.9668,-1.9303,-1.904,-1.8774,-1.8518,-1.8247,-1.8,-1.7616,-1.7026,-1.7056,-1.6844,-1.6237,-1.6431,-1.6595,-1.6593,-1.7064,-1.7142,-1.6782,-1.7027,-1.6892,-1.619,-1.5308,-1.4532,-1.3959,-1.3316,-1.2547,-1.19,-1.4056,-1.5812,-1.6573,-1.5972,-1.569,-1.5937,-1.565,-1.4977,-1.4062,-1.4405,-1.5238,-1.6404,-1.6912,-1.7828,-1.9474,-2.0906,-2.1297,-2.0708,-2.1423,-2.1556,-1.9966,-2.0053,-2.068,-2.133,-2.2886,-2.4566,-2.5815,-2.6726,-2.685,-2.5957,-2.5524,-2.4709,-2.324,-2.2858,-2.2275,-2.0967,-2.0315,-2.0001,-1.993,-1.8844,-1.8498,-1.8823,-2.1074,-2.2756,-2.3401,-2.2659,-2.2438,-2.3093,-2.3993,-2.4433,-2.409,-2.3927,-2.3183,-3.7891,-3.9047,-3.937,-3.9481,-3.9344,-3.9256,-3.9158,-3.8873,-3.8139,-3.73,-3.6489,-3.6384,-3.5642,-3.455,-3.4618,-3.345,-3.1444,-3.1208,-3.0411,-2.8947,-2.796,-2.7193,-2.6504,-2.5483,-2.4696,-2.4191,-2.3502,-2.2723,-2.1875,-2.1377,-2.0912,-2.0411,-2.0246,-2.0182,-2.0195,-1.9805,-1.9438,-1.9093,-1.8774,-1.8457,-1.8134,-1.8041,-1.776,-1.7337,-1.764,-1.762,-1.7147,-1.7614,-1.787,-1.7925,-1.8346,-1.8434,-1.8027,-1.8227,-1.8018,-1.7234,-1.6547,-1.5803,-1.5054,-1.4945,-1.4419,-1.3358,-1.5284,-1.7308,-1.8792,-1.7671,-1.635,-1.5602,-1.5409,-1.4699,-1.3484,-1.419,-1.5416,-1.6503,-1.7546,-1.8664,-2.0259,-2.2317,-2.2915,-2.1316,-2.1532,-2.1737,-2.1146,-2.0099,-1.9947,-2.1112,-2.2762,-2.4136,-2.4934,-2.6528,-2.717,-2.6385,-2.647,-2.6337,-2.4737,-2.4259,-2.3402,-2.1873,-2.1278,-2.0959,-2.067,-2.043,-2.0501,-2.0978,-2.2329,-2.3567,-2.3861,-2.3551,-2.3521,-2.4155,-2.5031,-2.538,-2.4467,-2.4026,-2.3059,-3.9009,-3.9562,-3.9803,-3.9601,-3.9324,-3.9543,-3.9092,-3.8325,-3.8515,-3.8047,-3.6981,-3.6576,-3.6007,-3.5459,-3.534,-3.3785,-3.1289,-3.1857,-3.1249,-2.9522,-2.9,-2.8277,-2.7206,-2.6385,-2.5371,-2.4354,-2.409,-2.3457,-2.2311,-2.2133,-2.1707,-2.1083,-2.121,-2.0953,-2.0348,-2.0549,-2.0073,-1.8679,-1.8732,-1.874,-1.8737,-1.8397,-1.8194,-1.8002,-1.8677,-1.8862,-1.8531,-1.9856,-2.0525,-2.0613,-2.1261,-2.1592,-2.1298,-2.1192,-2.0735,-1.9831,-1.8698,-1.7516,-1.6292,-1.6654,-1.638,-1.5197,-1.6893,-1.8656,-1.9812,-1.8733,-1.7102,-1.5893,-1.5467,-1.4757,-1.3721,-1.4443,-1.549,-1.6475,-1.7705,-1.8921,-2.0634,-2.3766,-2.5182,-2.3029,-2.2128,-2.1308,-2.13,-2.0529,-2.0257,-2.0888,-2.2227,-2.3227,-2.3591,-2.5344,-2.6378,-2.5149,-2.508,-2.5815,-2.6151,-2.532,-2.3338,-2.1328,-2.1051,-2.1131,-2.1409,-2.2265,-2.3324,-2.2755,-2.3825,-2.4556,-2.4416,-2.4079,-2.3917,-2.4509,-2.5189,-2.5695,-2.5167,-2.4714,-2.3635,-3.8662,-3.9687,-3.9654,-3.9442,-3.9078,-3.9203,-3.8904,-3.8457,-3.8575,-3.8427,-3.7944,-3.6906,-3.6114,-3.5606,-3.5778,-3.4479,-3.2239,-3.2701,-3.1748,-2.9804,-2.9632,-2.889,-2.7496,-2.7102,-2.6246,-2.5025,-2.4948,-2.4192,-2.2834,-2.2092,-2.1602,-2.1193,-2.1275,-2.1186,-2.0849,-2.0961,-2.0576,-1.9813,-1.9769,-1.9747,-1.9641,-1.883,-1.8489,-1.884,-1.9155,-1.9626,-2.0106,-2.0751,-2.1281,-2.1787,-2.2531,-2.2513,-2.1787,-2.2104,-2.1662,-2.0444,-1.9277,-1.8221,-1.736,-1.7822,-1.7804,-1.6922,-1.8241,-1.9271,-1.9371,-1.8784,-1.8143,-1.742,-1.6038,-1.4867,-1.458,-1.5409,-1.6195,-1.6766,-1.8202,-1.9886,-2.151,-2.3577,-2.4847,-2.4778,-2.3987,-2.3029,-2.2304,-2.133,-2.0831,-2.116,-2.2173,-2.2889,-2.3117,-2.4126,-2.4646,-2.4329,-2.3024,-2.2926,-2.4788,-2.3998,-2.2467,-2.1568,-2.1041,-2.1006,-2.1269,-2.1987,-2.2848,-2.3655,-2.4152,-2.4413,-2.4478,-2.468,-2.469,-2.5031,-2.538,-2.5884,-2.5819,-2.5421,-2.4462,-3.8086,-3.9283,-3.9561,-3.932,-3.8769,-3.8916,-3.8733,-3.8542,-3.8365,-3.8401,-3.846,-3.7388,-3.6603,-3.616,-3.599,-3.4742,-3.3068,-3.3279,-3.2345,-3.0498,-3.0487,-2.9629,-2.8195,-2.7878,-2.7,-2.5715,-2.5584,-2.4788,-2.3258,-2.2385,-2.1838,-2.1685,-2.1799,-2.1731,-2.1559,-2.1542,-2.128,-2.0746,-2.0574,-2.0488,-2.0358,-1.956,-1.9284,-1.961,-1.9833,-2.0317,-2.1146,-2.1765,-2.236,-2.2886,-2.3558,-2.3514,-2.275,-2.2903,-2.2328,-2.0943,-2.0066,-1.9287,-1.8658,-1.918,-1.9347,-1.8948,-1.9381,-1.9356,-1.888,-1.8648,-1.8364,-1.7825,-1.6535,-1.5571,-1.5429,-1.6241,-1.6751,-1.7059,-1.8797,-2.064,-2.1963,-2.3585,-2.501,-2.5611,-2.5659,-2.5027,-2.3372,-2.2232,-2.167,-2.1428,-2.2138,-2.2905,-2.2956,-2.3075,-2.3411,-2.3982,-2.1541,-2.1307,-2.3444,-2.2692,-2.1721,-2.1262,-2.0799,-2.0222,-2.0529,-2.1014,-2.1855,-2.2709,-2.3256,-2.382,-2.4327,-2.4765,-2.5295,-2.538,-2.5611,-2.5659,-2.5315,-2.5341,-2.5211,-3.7697,-3.8678,-3.962,-3.932,-3.8266,-3.8794,-3.8658,-3.8115,-3.7925,-3.8034,-3.8224,-3.7906,-3.7589,-3.7027,-3.5717,-3.4243,-3.3164,-3.3528,-3.2973,-3.1654,-3.1487,-3.0796,-2.9535,-2.891,-2.7537,-2.5766,-2.5811,-2.5163,-2.3652,-2.3257,-2.2968,-2.2724,-2.2986,-2.2887,-2.2315,-2.2519,-2.2078,-2.1145,-2.097,-2.0804,-2.0729,-2.0797,-2.0716,-2.0706,-2.085,-2.1129,-2.1712,-2.3525,-2.4426,-2.4071,-2.4824,-2.5165,-2.4975,-2.4147,-2.2916,-2.1655,-2.1379,-2.0964,-2.0329,-2.093,-2.1212,-2.0764,-1.9911,-1.9256,-1.8589,-1.8253,-1.7537,-1.6177,-1.6798,-1.6717,-1.6125,-1.6596,-1.7108,-1.7688,-1.9241,-2.0724,-2.1665,-2.4351,-2.5295,-2.5161,-2.6452,-2.6335,-2.3689,-2.3182,-2.2501,-2.186,-2.194,-2.2374,-2.257,-2.2707,-2.2971,-2.2898,-2.2145,-2.1838,-2.3458,-2.2681,-2.1242,-2.0236,-1.964,-1.932,-1.9586,-2.0007,-2.0922,-2.175,-2.2505,-2.325,-2.4059,-2.4765,-2.538,-2.5589,-2.5365,-2.5276,-2.4587,-2.4691,-2.4881,-3.7608,-3.8944,-3.9533,-3.9362,-3.8834,-3.8908,-3.8721,-3.8398,-3.8278,-3.8242,-3.8249,-3.7742,-3.7419,-3.7244,-3.6127,-3.5117,-3.4333,-3.3884,-3.3044,-3.1958,-3.1681,-3.0688,-2.9098,-2.8915,-2.8107,-2.6733,-2.6169,-2.5223,-2.3801,-2.3448,-2.3157,-2.295,-2.3349,-2.3273,-2.2886,-2.3199,-2.303,-2.229,-2.2135,-2.2054,-2.1848,-2.1961,-2.2197,-2.2541,-2.2316,-2.2667,-2.3738,-2.4762,-2.5483,-2.5925,-2.6647,-2.6694,-2.5972,-2.4946,-2.3682,-2.2509,-2.2525,-2.2219,-2.1399,-2.194,-2.1961,-2.1078,-2.0515,-1.9314,-1.7882,-1.7445,-1.7301,-1.6942,-1.7161,-1.738,-1.7624,-1.7681,-1.7895,-1.854,-2.0248,-2.1793,-2.2725,-2.4682,-2.6184,-2.6129,-2.6691,-2.6173,-2.5294,-2.4378,-2.367,-2.2762,-2.2931,-2.3015,-2.2809,-2.3162,-2.3429,-2.313,-2.2632,-2.2304,-2.1996,-2.2479,-2.159,-1.9324,-1.817,-1.8232,-1.8412,-1.9191,-2.0034,-2.064,-2.1509,-2.2563,-2.3408,-2.4882,-2.5495,-2.6235,-2.6008,-2.4487,-2.3664,-2.3917,-2.4668,-3.7267,-3.8742,-3.8967,-3.8932,-3.8653,-3.8447,-3.8422,-3.8431,-3.8161,-3.8169,-3.8129,-3.7487,-3.7282,-3.7196,-3.6396,-3.5811,-3.5382,-3.4427,-3.3353,-3.2221,-3.2053,-3.1004,-2.9398,-2.9225,-2.8505,-2.7203,-2.6463,-2.5442,-2.446,-2.4116,-2.3811,-2.3457,-2.379,-2.3794,-2.3519,-2.3729,-2.3628,-2.321,-2.303,-2.291,-2.296,-2.3135,-2.3525,-2.4068,-2.4166,-2.455,-2.5324,-2.582,-2.6474,-2.7291,-2.7819,-2.7682,-2.6709,-2.5587,-2.455,-2.3716,-2.349,-2.3113,-2.2241,-2.2646,-2.2331,-2.0757,-2.0536,-1.9565,-1.7586,-1.728,-1.7055,-1.7013,-1.7364,-1.7853,-1.8589,-1.8945,-1.9162,-1.9381,-2.1029,-2.2629,-2.3278,-2.5235,-2.6922,-2.7753,-2.6791,-2.614,-2.5812,-2.5285,-2.4629,-2.385,-2.4111,-2.3966,-2.3885,-2.3566,-2.3897,-2.3609,-2.3194,-2.2667,-2.2181,-2.1953,-2.0638,-1.8447,-1.7852,-1.7726,-1.7814,-1.8488,-1.9084,-1.9683,-2.0601,-2.1683,-2.3097,-2.4672,-2.5732,-2.6733,-2.5508,-2.3697,-2.3428,-2.3303,-2.372,-3.6862,-3.8027,-3.8002,-3.7998,-3.7813,-3.7825,-3.7769,-3.8023,-3.7678,-3.7847,-3.8,-3.7455,-3.7368,-3.7278,-3.648,-3.6099,-3.5985,-3.5165,-3.4029,-3.283,-3.2804,-3.1803,-2.9934,-2.9814,-2.8812,-2.7035,-2.6538,-2.6136,-2.5625,-2.5328,-2.4975,-2.4673,-2.4513,-2.4385,-2.4266,-2.4131,-2.3923,-2.3582,-2.3308,-2.3427,-2.3941,-2.4174,-2.4612,-2.5234,-2.6173,-2.6623,-2.6251,-2.6869,-2.7541,-2.8105,-2.8356,-2.801,-2.7259,-2.6306,-2.553,-2.5117,-2.4461,-2.3623,-2.2913,-2.3298,-2.2503,-2.0544,-2.0148,-1.9844,-1.858,-1.7558,-1.6784,-1.6285,-1.689,-1.798,-1.914,-2.0094,-2.0388,-2.0071,-2.1424,-2.2889,-2.4005,-2.5915,-2.7913,-2.8948,-2.7476,-2.6067,-2.5895,-2.5812,-2.5521,-2.5261,-2.5137,-2.533,-2.5442,-2.4558,-2.3849,-2.4149,-2.3746,-2.2853,-2.221,-2.1441,-1.9461,-1.7741,-1.7794,-1.7734,-1.7821,-1.8239,-1.8505,-1.9064,-2.0062,-2.1234,-2.3004,-2.4418,-2.4895,-2.5378,-2.3973,-2.3166,-2.2949,-2.2724,-2.2263,-3.7146,-3.7792,-3.8114,-3.8462,-3.8726,-3.854,-3.8639,-3.8748,-3.8575,-3.8411,-3.8086,-3.7731,-3.7483,-3.7245,-3.6735,-3.6382,-3.6127,-3.5644,-3.4808,-3.364,-3.3054,-3.202,-3.0663,-3.0124,-2.8972,-2.744,-2.7301,-2.7033,-2.6311,-2.5834,-2.5486,-2.5356,-2.4936,-2.4518,-2.4242,-2.4332,-2.4157,-2.368,-2.3892,-2.4172,-2.4525,-2.5076,-2.5757,-2.6595,-2.724,-2.7797,-2.8422,-2.8561,-2.8863,-2.9389,-2.9643,-2.9152,-2.8039,-2.7275,-2.6469,-2.5637,-2.5354,-2.4869,-2.4126,-2.3695,-2.2845,-2.1121,-2.0675,-1.9765,-1.833,-1.7546,-1.6793,-1.6143,-1.6856,-1.8168,-1.9611,-2.0506,-2.0719,-2.0506,-2.181,-2.3011,-2.3989,-2.6446,-2.7946,-2.8021,-2.6832,-2.6151,-2.6263,-2.6201,-2.6289,-2.6641,-2.6302,-2.6259,-2.6829,-2.5938,-2.5081,-2.5358,-2.4169,-2.3249,-2.2721,-2.2027,-2.0554,-1.8764,-1.8171,-1.7768,-1.7823,-1.7997,-1.8204,-1.8646,-1.9613,-2.0866,-2.2636,-2.3673,-2.4021,-2.4018,-2.3102,-2.2606,-2.2392,-2.2006,-2.147,-3.67,-3.6986,-3.7292,-3.764,-3.8004,-3.7755,-3.7992,-3.8417,-3.8418,-3.8355,-3.8083,-3.763,-3.7402,-3.7112,-3.6495,-3.6235,-3.6158,-3.5537,-3.4906,-3.427,-3.3467,-3.2277,-3.0735,-2.9907,-2.9093,-2.8078,-2.7934,-2.7579,-2.6889,-2.6465,-2.6156,-2.5948,-2.5553,-2.5167,-2.4688,-2.4766,-2.4511,-2.4158,-2.4421,-2.4813,-2.5376,-2.6,-2.6777,-2.7595,-2.8122,-2.873,-2.9471,-2.9565,-2.977,-3.0088,-3.0228,-2.9847,-2.8988,-2.8263,-2.7347,-2.6528,-2.5865,-2.5359,-2.4881,-2.4146,-2.3023,-2.1624,-2.1114,-2.0084,-1.8386,-1.7613,-1.7021,-1.663,-1.7155,-1.8268,-1.9823,-2.0601,-2.0925,-2.1019,-2.2123,-2.3267,-2.4263,-2.6927,-2.8354,-2.805,-2.7381,-2.7206,-2.7205,-2.7403,-2.7166,-2.7567,-2.7307,-2.7099,-2.7708,-2.7383,-2.692,-2.6401,-2.5699,-2.4655,-2.3431,-2.2592,-2.1723,-2.0153,-1.8734,-1.8071,-1.7679,-1.8073,-1.832,-1.8641,-1.938,-2.0194,-2.1742,-2.228,-2.2706,-2.2329,-2.2327,-2.2392,-2.2221,-2.1198,-2.0665,-3.5469,-3.5904,-3.5745,-3.5917,-3.6223,-3.6051,-3.653,-3.7183,-3.7267,-3.7571,-3.7916,-3.7286,-3.6959,-3.6829,-3.6018,-3.5791,-3.6039,-3.5151,-3.4612,-3.4553,-3.3902,-3.2554,-3.069,-2.9561,-2.9006,-2.8811,-2.8385,-2.7904,-2.7565,-2.7183,-2.6983,-2.662,-2.6323,-2.6062,-2.5621,-2.5362,-2.5051,-2.4824,-2.4964,-2.5514,-2.6345,-2.6801,-2.7486,-2.8428,-2.8908,-2.9366,-2.9687,-2.9985,-3.019,-3.0203,-3.0203,-3.024,-3.0146,-2.8988,-2.7974,-2.7518,-2.62,-2.5656,-2.5226,-2.4315,-2.3057,-2.1823,-2.1127,-2.0304,-1.8624,-1.8056,-1.7589,-1.7246,-1.7538,-1.8369,-1.9808,-2.0609,-2.1027,-2.153,-2.2434,-2.3565,-2.5261,-2.7201,-2.7991,-2.8571,-2.8713,-2.8784,-2.8602,-2.8786,-2.8431,-2.7991,-2.811,-2.814,-2.8336,-2.8238,-2.8179,-2.7703,-2.7187,-2.6366,-2.5283,-2.3886,-2.3061,-2.1886,-2.0124,-1.8784,-1.793,-1.8123,-1.8293,-1.8685,-1.8883,-1.9726,-2.0614,-2.132,-2.1669,-2.1643,-2.1807,-2.2176,-2.1638,-2.0512,-2.006,-3.5125,-3.5418,-3.5573,-3.6012,-3.6541,-3.6345,-3.6665,-3.7394,-3.7022,-3.7174,-3.7318,-3.6737,-3.6404,-3.6345,-3.5817,-3.5664,-3.5683,-3.5277,-3.4589,-3.4049,-3.3661,-3.2305,-3.0738,-2.9823,-2.9334,-2.9127,-2.8726,-2.8491,-2.8412,-2.7615,-2.725,-2.7323,-2.6698,-2.6268,-2.6094,-2.5774,-2.5551,-2.5435,-2.566,-2.6153,-2.6834,-2.7326,-2.8199,-2.9326,-2.9508,-2.9817,-3.0248,-3.0075,-3.0226,-3.062,-3.0291,-3.0203,-3.0214,-2.9074,-2.8142,-2.7591,-2.6661,-2.5865,-2.5541,-2.4287,-2.2956,-2.1785,-2.107,-2.0015,-1.884,-1.8729,-1.8218,-1.7793,-1.8119,-1.9055,-1.991,-2.0609,-2.1326,-2.2325,-2.2937,-2.3754,-2.5,-2.5511,-2.6324,-2.8315,-2.8795,-2.885,-2.8929,-2.8846,-2.8838,-2.8572,-2.8621,-2.873,-2.9003,-2.9253,-2.9127,-2.9164,-2.8729,-2.8071,-2.7073,-2.5616,-2.4409,-2.3489,-2.1787,-1.9807,-1.8818,-1.8233,-1.8337,-1.8413,-1.8136,-1.8629,-1.9745,-2.0771,-2.0819,-2.0695,-2.0731,-2.0692,-2.0414,-1.9588,-1.962,-3.493,-3.503,-3.5211,-3.5587,-3.6051,-3.599,-3.6383,-3.6949,-3.6751,-3.6786,-3.6864,-3.6458,-3.6082,-3.5784,-3.5534,-3.5451,-3.5426,-3.4968,-3.4393,-3.374,-3.2843,-3.1753,-3.0734,-3.0047,-2.9551,-2.9431,-2.8859,-2.8752,-2.8802,-2.7958,-2.771,-2.7774,-2.7141,-2.6744,-2.6605,-2.634,-2.6067,-2.5955,-2.6255,-2.67,-2.7247,-2.7682,-2.8265,-2.9059,-2.9201,-2.9431,-2.9781,-2.9807,-3.0121,-3.0489,-3.0146,-2.9919,-3.0148,-2.9227,-2.8442,-2.7931,-2.7022,-2.6407,-2.5843,-2.4453,-2.3165,-2.2366,-2.1267,-2.0123,-1.9422,-1.9146,-1.8563,-1.8341,-1.8378,-1.9034,-2.0272,-2.1113,-2.2021,-2.3029,-2.3338,-2.3886,-2.5041,-2.5264,-2.6085,-2.7719,-2.884,-2.9393,-2.936,-2.9033,-2.893,-2.9007,-2.9198,-2.9394,-2.9621,-2.9827,-2.9998,-2.9908,-3.0126,-2.9668,-2.8987,-2.7677,-2.5433,-2.4399,-2.2012,-2.0162,-1.9264,-1.8385,-1.8085,-1.792,-1.7605,-1.7664,-1.8646,-1.9344,-1.9211,-1.9068,-1.9154,-1.9264,-1.9093,-1.8577,-1.8639,-3.4762,-3.4823,-3.4835,-3.503,-3.5247,-3.5235,-3.5722,-3.6186,-3.6088,-3.6284,-3.6343,-3.6273,-3.5755,-3.5315,-3.5195,-3.5149,-3.5014,-3.4386,-3.3844,-3.3158,-3.2149,-3.1036,-3.062,-2.9969,-2.9764,-2.9632,-2.8984,-2.8795,-2.8724,-2.8061,-2.7872,-2.7874,-2.7468,-2.7262,-2.7038,-2.6817,-2.6593,-2.6559,-2.6711,-2.704,-2.7459,-2.7842,-2.8279,-2.8536,-2.883,-2.8983,-2.9301,-2.9528,-2.998,-3.0432,-2.9836,-2.9886,-3.0148,-2.9426,-2.8824,-2.8331,-2.7585,-2.693,-2.6344,-2.4906,-2.372,-2.3277,-2.1703,-2.0431,-2.0013,-1.9486,-1.9271,-1.9489,-1.8311,-1.9305,-2.0909,-2.2123,-2.292,-2.3619,-2.3628,-2.404,-2.5003,-2.5633,-2.6223,-2.7261,-2.8925,-2.9988,-2.9788,-2.9532,-2.9139,-2.9165,-2.9371,-2.9499,-2.9667,-2.9854,-3.0075,-3.0216,-3.0748,-3.136,-3.0583,-2.9757,-2.7201,-2.4992,-2.1856,-1.9802,-1.9198,-1.8375,-1.7862,-1.7482,-1.7023,-1.6899,-1.7263,-1.7565,-1.7666,-1.7316,-1.7307,-1.7877,-1.8228,-1.7438,-1.7106,-3.4638,-3.4823,-3.503,-3.5223,-3.5416,-3.532,-3.5393,-3.5708,-3.5113,-3.5137,-3.5175,-3.5151,-3.5013,-3.483,-3.5008,-3.5005,-3.4829,-3.4217,-3.3467,-3.2162,-3.1401,-3.0608,-3.0253,-2.991,-2.9961,-2.9719,-2.8771,-2.8511,-2.8439,-2.7812,-2.7191,-2.7501,-2.7382,-2.7149,-2.7274,-2.6997,-2.7115,-2.7459,-2.7222,-2.7154,-2.7471,-2.7815,-2.8226,-2.8549,-2.8983,-2.9494,-2.9859,-2.9679,-2.9559,-2.9621,-2.9711,-3.003,-3.0272,-2.9568,-2.9049,-2.8785,-2.8192,-2.7532,-2.6871,-2.5858,-2.4937,-2.4083,-2.2591,-2.1268,-2.0801,-2.0292,-2.0374,-2.084,-2.0619,-2.1013,-2.2728,-2.3046,-2.3728,-2.4332,-2.4393,-2.4657,-2.5962,-2.6195,-2.6198,-2.6753,-2.8451,-2.9619,-2.8184,-2.8396,-2.8492,-2.9058,-2.9367,-2.9485,-2.9674,-2.9856,-3.0075,-3.0305,-3.0973,-3.1508,-3.1211,-3.0062,-2.7743,-2.4957,-2.179,-1.9671,-1.8988,-1.8412,-1.7833,-1.7139,-1.6416,-1.6391,-1.6406,-1.6738,-1.7009,-1.6281,-1.5709,-1.6111,-1.6412,-1.5814,-1.5709,-3.4519,-3.4823,-3.5126,-3.532,-3.5428,-3.5428,-3.5428,-3.532,-3.4835,-3.464,-3.4628,-3.4628,-3.4523,-3.4408,-3.4823,-3.4843,-3.4334,-3.37,-3.2951,-3.2016,-3.1263,-3.0694,-3.0247,-3.006,-3.0075,-2.982,-2.9138,-2.8963,-2.887,-2.7952,-2.7531,-2.769,-2.7237,-2.7092,-2.7335,-2.7024,-2.7121,-2.7443,-2.7281,-2.7079,-2.7201,-2.7536,-2.7958,-2.8343,-2.8762,-2.9173,-2.958,-2.9705,-2.9484,-2.9509,-2.9702,-2.9892,-2.999,-2.9476,-2.9264,-2.9567,-2.9013,-2.8213,-2.7471,-2.6415,-2.5351,-2.4745,-2.3378,-2.2407,-2.152,-2.0835,-2.0819,-2.157,-2.2253,-2.3235,-2.5114,-2.4542,-2.489,-2.5693,-2.5771,-2.62,-2.7236,-2.7375,-2.6715,-2.6624,-2.7923,-2.8295,-2.7905,-2.7859,-2.803,-2.8698,-2.9161,-2.9258,-2.9493,-2.9689,-3.0011,-3.0381,-3.1061,-3.1434,-3.1434,-3.0154,-2.7928,-2.485,-2.1543,-1.9873,-1.8911,-1.8325,-1.7726,-1.6883,-1.5935,-1.5696,-1.5731,-1.6069,-1.6387,-1.6278,-1.5869,-1.518,-1.476,-1.4887,-1.4824,-3.4628,-3.4835,-3.5126,-3.5223,-3.5223,-3.5428,-3.5416,-3.5223,-3.4823,-3.4543,-3.4335,-3.4335,-3.4148,-3.3994,-3.4531,-3.4375,-3.3734,-3.3186,-3.2592,-3.1825,-3.1415,-3.0779,-3.0319,-3.0045,-2.9856,-2.9689,-2.917,-2.9299,-2.9202,-2.8537,-2.7763,-2.8015,-2.7442,-2.7347,-2.7413,-2.728,-2.7173,-2.7198,-2.7084,-2.7046,-2.7011,-2.7294,-2.7741,-2.8412,-2.871,-2.9033,-2.9416,-2.963,-2.9779,-2.9521,-2.9689,-2.9611,-2.9443,-2.9365,-2.9521,-3.0444,-2.9655,-2.8864,-2.7951,-2.6839,-2.5881,-2.5041,-2.4242,-2.3338,-2.2318,-2.1419,-2.1269,-2.2169,-2.3335,-2.5145,-2.7412,-2.6488,-2.6348,-2.7171,-2.7479,-2.7914,-2.8624,-2.8877,-2.8289,-2.7067,-2.7742,-2.8209,-2.8045,-2.7869,-2.8108,-2.8275,-2.873,-2.9094,-2.9303,-2.9496,-2.9716,-3.0113,-3.0637,-3.0616,-3.0503,-3.0348,-2.8064,-2.4744,-2.1352,-2.0068,-1.8931,-1.8355,-1.7649,-1.6375,-1.5542,-1.5233,-1.5016,-1.5169,-1.551,-1.6034,-1.5261,-1.3744,-1.3615,-1.3973,-1.3845,-3.4726,-3.4823,-3.532,-3.5416,-3.5223,-3.5223,-3.5223,-3.5126,-3.4738,-3.4359,-3.4162,-3.4139,-3.3723,-3.3361,-3.3513,-3.3506,-3.3271,-3.2965,-3.2449,-3.161,-3.1317,-3.0901,-2.9961,-2.9902,-2.9661,-2.9151,-2.8746,-2.8728,-2.8647,-2.7903,-2.7767,-2.8011,-2.7858,-2.7877,-2.7923,-2.7855,-2.7422,-2.722,-2.7221,-2.7221,-2.7323,-2.7556,-2.8177,-2.9109,-2.9398,-2.9709,-2.9972,-3.0063,-2.9921,-2.9779,-2.9792,-2.9792,-2.9789,-2.9711,-3.0033,-3.0075,-2.9806,-2.9086,-2.8313,-2.7782,-2.6839,-2.5913,-2.5041,-2.4163,-2.3105,-2.2223,-2.2226,-2.3261,-2.4516,-2.6153,-2.7703,-2.7195,-2.7359,-2.7934,-2.838,-2.8724,-2.9647,-3.0033,-3.0025,-2.8516,-2.85,-2.8407,-2.8235,-2.7885,-2.771,-2.7873,-2.8179,-2.8598,-2.8892,-2.9093,-2.9372,-2.977,-3.0199,-2.9831,-2.943,-2.9339,-2.8126,-2.4696,-2.1744,-2.0157,-1.9147,-1.8414,-1.7465,-1.6197,-1.514,-1.4511,-1.4387,-1.4434,-1.3964,-1.394,-1.3028,-1.2067,-1.21,-1.2253,-1.2387,-3.4823,-3.4628,-3.503,-3.503,-3.4823,-3.5126,-3.5126,-3.492,-3.4726,-3.4445,-3.408,-3.3684,-3.3317,-3.3062,-3.3078,-3.3144,-3.312,-3.2561,-3.2015,-3.1397,-3.1098,-3.0691,-2.9841,-2.9999,-2.951,-2.9071,-2.8779,-2.8621,-2.8611,-2.8032,-2.7863,-2.8089,-2.8064,-2.8049,-2.8195,-2.8047,-2.7846,-2.7632,-2.7733,-2.7771,-2.7882,-2.8192,-2.9005,-2.9821,-3.0171,-3.0385,-3.0618,-3.0533,-3.0228,-3.0011,-2.9856,-2.9702,-2.9899,-3.0553,-3.1044,-3.0316,-2.9586,-2.8949,-2.8407,-2.7857,-2.6798,-2.5874,-2.5285,-2.4594,-2.3744,-2.3242,-2.3541,-2.4972,-2.5503,-2.6681,-2.8188,-2.7772,-2.7935,-2.8583,-2.8831,-2.9139,-2.9896,-3.0083,-2.9977,-2.9558,-2.9018,-2.8575,-2.8378,-2.7975,-2.7423,-2.7468,-2.7694,-2.7956,-2.8383,-2.8669,-2.8895,-2.9263,-2.9645,-2.9613,-2.8903,-2.8147,-2.7656,-2.4507,-2.2,-2.0471,-1.9159,-1.8324,-1.7191,-1.597,-1.4998,-1.3817,-1.3957,-1.3978,-1.2899,-1.1926,-1.1582,-1.1182,-1.0585,-1.0413,-1.0712,-3.5017,-3.4531,-3.4835,-3.4823,-3.4628,-3.503,-3.5126,-3.503,-3.492,-3.464,-3.4103,-3.3445,-3.3056,-3.2683,-3.2629,-3.2635,-3.2763,-3.1908,-3.1552,-3.1146,-3.0679,-3.0238,-3.0034,-3.0072,-2.9635,-2.8846,-2.9105,-2.9084,-2.8688,-2.8276,-2.8285,-2.8418,-2.8187,-2.8226,-2.8375,-2.8462,-2.8497,-2.8432,-2.848,-2.8515,-2.863,-2.9178,-2.9842,-3.0605,-3.0796,-3.091,-3.0934,-3.0911,-3.0533,-3.0228,-2.9934,-2.9702,-2.9729,-3.119,-3.1524,-3.0274,-2.9064,-2.8566,-2.8087,-2.7603,-2.6633,-2.5622,-2.5369,-2.4775,-2.4151,-2.4092,-2.4844,-2.691,-2.6948,-2.7236,-2.8473,-2.82,-2.8412,-2.9037,-2.9052,-2.8995,-2.9397,-2.9717,-2.9903,-2.9487,-2.9044,-2.8626,-2.8383,-2.7502,-2.684,-2.6954,-2.7175,-2.715,-2.7606,-2.8075,-2.8375,-2.8667,-2.9054,-2.9327,-2.8569,-2.6997,-2.62,-2.4366,-2.2179,-2.0572,-1.9222,-1.8063,-1.6874,-1.5585,-1.3983,-1.3068,-1.3336,-1.339,-1.2474,-1.167,-1.0926,-1.0168,-0.9376,-0.9176,-0.9405,-3.532,-3.5126,-3.5428,-3.532,-3.5126,-3.5416,-3.5524,-3.5416,-3.5223,-3.4823,-3.4335,-3.4009,-3.3091,-3.2074,-3.1595,-3.152,-3.1512,-3.1478,-3.1113,-3.0709,-3.0281,-2.9806,-2.948,-2.9757,-2.9346,-2.8839,-2.9039,-2.8955,-2.8582,-2.839,-2.8603,-2.8844,-2.8926,-2.9183,-2.8996,-2.906,-2.9048,-2.8913,-2.8825,-2.8908,-2.9137,-2.9869,-3.0336,-3.0619,-3.1083,-3.1302,-3.1198,-3.1136,-3.0898,-3.0368,-3.0011,-2.9779,-2.9674,-2.912,-2.9371,-2.9192,-2.8803,-2.8259,-2.7765,-2.7278,-2.6622,-2.5779,-2.5443,-2.4935,-2.443,-2.4486,-2.5527,-2.8239,-2.7482,-2.7505,-2.8721,-2.8729,-2.8918,-2.9106,-2.9102,-2.9346,-2.9726,-2.9311,-2.9423,-2.926,-2.8716,-2.85,-2.8303,-2.7204,-2.6348,-2.6493,-2.6649,-2.6698,-2.6881,-2.7397,-2.7853,-2.8172,-2.8479,-2.8817,-2.8304,-2.6785,-2.5432,-2.4084,-2.2181,-2.0514,-1.9306,-1.7951,-1.6501,-1.5175,-1.3522,-1.2482,-1.2639,-1.245,-1.1974,-1.1141,-1.0161,-0.9093,-0.8007,-0.8051,-0.8176,-3.5325,-3.5017,-3.5223,-3.5223,-3.5017,-3.5416,-3.5633,-3.562,-3.562,-3.5223,-3.4459,-3.4003,-3.3041,-3.1693,-3.1061,-3.105,-3.1216,-3.1003,-3.0592,-3.0155,-2.978,-2.9376,-2.9248,-2.9462,-2.9234,-2.8843,-2.8862,-2.8817,-2.8426,-2.8431,-2.859,-2.8736,-2.904,-2.916,-2.9275,-2.9521,-2.9551,-2.9529,-2.9618,-2.9956,-3.0346,-3.0758,-3.1136,-3.1196,-3.1696,-3.1716,-3.1582,-3.1434,-3.1198,-3.0672,-3.0228,-2.9844,-2.9456,-2.8919,-2.8602,-2.859,-2.8419,-2.8018,-2.7615,-2.7208,-2.6573,-2.5895,-2.5475,-2.5031,-2.4623,-2.4877,-2.5223,-2.614,-2.7009,-2.774,-2.8704,-2.8827,-2.8932,-2.9014,-2.8992,-2.922,-2.9421,-2.9161,-2.8864,-2.8642,-2.848,-2.8338,-2.8095,-2.7172,-2.6445,-2.6463,-2.6503,-2.6445,-2.6586,-2.6954,-2.7243,-2.7574,-2.7983,-2.8376,-2.7692,-2.6533,-2.5431,-2.3881,-2.1475,-2.0012,-1.9125,-1.7897,-1.6537,-1.5247,-1.3874,-1.2941,-1.2309,-1.1662,-1.1234,-1.0308,-0.9254,-0.8444,-0.7652,-0.6824,-0.6924,-3.5115,-3.4834,-3.5294,-3.5416,-3.5211,-3.5704,-3.5895,-3.5895,-3.5908,-3.5439,-3.4378,-3.347,-3.2336,-3.1402,-3.0856,-3.0847,-3.1045,-3.0384,-3.017,-2.9891,-2.9423,-2.9126,-2.929,-2.9438,-2.9258,-2.8522,-2.8958,-2.8724,-2.8265,-2.8191,-2.8431,-2.851,-2.8973,-2.9143,-2.9221,-2.9546,-2.9819,-2.9947,-3.0152,-3.0581,-3.1106,-3.1381,-3.1643,-3.1863,-3.2036,-3.2109,-3.1877,-3.1589,-3.1095,-3.0986,-3.0596,-3.0139,-2.9521,-2.8973,-2.8657,-2.8486,-2.8327,-2.8018,-2.758,-2.7241,-2.6624,-2.6103,-2.5658,-2.5508,-2.4677,-2.5183,-2.5559,-2.5326,-2.6341,-2.742,-2.8261,-2.868,-2.8855,-2.891,-2.8965,-2.8995,-2.9004,-2.8591,-2.8455,-2.8468,-2.8361,-2.8324,-2.7939,-2.7125,-2.6639,-2.654,-2.644,-2.6289,-2.6396,-2.6627,-2.6571,-2.6791,-2.7056,-2.7346,-2.6709,-2.5908,-2.4982,-2.3668,-2.1207,-1.9658,-1.8903,-1.8025,-1.6914,-1.5504,-1.4056,-1.2926,-1.198,-1.1239,-1.0578,-0.9872,-0.9199,-0.835,-0.7526,-0.6544,-0.5848,-3.4981,-3.4823,-3.5825,-3.6225,-3.6225,-3.6521,-3.6615,-3.6521,-3.6143,-3.5264,-3.4088,-3.257,-3.1356,-3.0754,-3.0605,-3.0598,-3.0676,-3.0188,-3.0182,-2.9995,-2.9708,-2.9349,-2.9436,-2.9487,-2.9394,-2.8667,-2.8769,-2.8478,-2.816,-2.8191,-2.8351,-2.851,-2.8895,-2.9064,-2.93,-2.9624,-3.0011,-3.0228,-3.0444,-3.0748,-3.1198,-3.1522,-3.1669,-3.1904,-3.2036,-3.2096,-3.1863,-3.142,-3.1162,-3.1145,-3.0693,-3.0343,-2.9716,-2.8983,-2.8555,-2.8554,-2.8339,-2.8018,-2.765,-2.7401,-2.7144,-2.6735,-2.6454,-2.6136,-2.548,-2.558,-2.5722,-2.57,-2.6401,-2.7149,-2.7934,-2.8418,-2.8393,-2.8851,-2.8837,-2.8873,-2.8567,-2.7822,-2.7847,-2.8205,-2.8291,-2.8171,-2.7843,-2.7089,-2.6967,-2.6943,-2.6511,-2.635,-2.6277,-2.6358,-2.5977,-2.6002,-2.6176,-2.6079,-2.5486,-2.4696,-2.3823,-2.2674,-2.0756,-1.9608,-1.8833,-1.7936,-1.7194,-1.5589,-1.4066,-1.2805,-1.1729,-1.1309,-1.0704,-0.9905,-0.9114,-0.8371,-0.7526,-0.6609,-0.5888,-3.4829,-3.473,-3.5686,-3.6014,-3.6067,-3.6054,-3.6218,-3.6463,-3.5469,-3.4433,-3.3407,-3.1879,-3.1089,-3.0755,-3.0281,-3.029,-3.0402,-2.9978,-2.9961,-2.9866,-2.9536,-2.9324,-2.9386,-2.9253,-2.8998,-2.873,-2.8566,-2.8441,-2.8134,-2.8099,-2.8351,-2.859,-2.8907,-2.9131,-2.9365,-2.9754,-3.0152,-3.0457,-3.0609,-3.0836,-3.1272,-3.1582,-3.1743,-3.1757,-3.2036,-3.2109,-3.1869,-3.1285,-3.1202,-3.1029,-3.0464,-3.0033,-2.963,-2.879,-2.8451,-2.8597,-2.8339,-2.8018,-2.7719,-2.7472,-2.7066,-2.7086,-2.6963,-2.6836,-2.6651,-2.6724,-2.6174,-2.6149,-2.645,-2.7108,-2.6769,-2.7184,-2.7557,-2.8307,-2.8663,-2.8652,-2.8266,-2.7471,-2.7252,-2.7731,-2.7961,-2.8077,-2.7656,-2.7196,-2.7178,-2.7242,-2.6796,-2.6375,-2.6226,-2.6064,-2.5779,-2.5108,-2.5153,-2.5181,-2.4646,-2.3754,-2.2787,-2.1495,-2.02,-1.9381,-1.8513,-1.8285,-1.7338,-1.5651,-1.4196,-1.3074,-1.2158,-1.1564,-1.0905,-1.0159,-0.9223,-0.8313,-0.7461,-0.6609,-0.5888,-3.4598,-3.459,-3.5218,-3.5621,-3.5734,-3.5578,-3.5802,-3.6079,-3.4982,-3.3784,-3.2683,-3.1412,-3.072,-3.0568,-3.0043,-2.995,-3.0155,-2.9939,-2.9902,-2.9751,-2.9592,-2.9356,-2.9254,-2.8995,-2.8724,-2.8573,-2.8339,-2.8099,-2.803,-2.8018,-2.8179,-2.8419,-2.8895,-2.9118,-2.9431,-2.9896,-3.0368,-3.0685,-3.0849,-3.0856,-3.1135,-3.1576,-3.1556,-3.1496,-3.1829,-3.1788,-3.146,-3.0918,-3.0628,-3.0355,-2.9842,-2.9343,-2.8976,-2.8541,-2.8232,-2.8246,-2.8191,-2.803,-2.7731,-2.7389,-2.7301,-2.7688,-2.7499,-2.7934,-2.8178,-2.7645,-2.6865,-2.6435,-2.6808,-2.6727,-2.6001,-2.6387,-2.666,-2.7294,-2.8087,-2.8153,-2.78,-2.7231,-2.7171,-2.729,-2.7437,-2.7657,-2.7441,-2.7041,-2.7149,-2.7129,-2.683,-2.6396,-2.6068,-2.5859,-2.5673,-2.4843,-2.4039,-2.4041,-2.3941,-2.3133,-2.2214,-2.0264,-1.9179,-1.8722,-1.8144,-1.7966,-1.7426,-1.5909,-1.4541,-1.344,-1.2447,-1.1569,-1.0953,-1.0393,-0.9277,-0.8052,-0.7657,-0.6806,-0.569,-3.4076,-3.4153,-3.4697,-3.5066,-3.529,-3.5366,-3.5415,-3.5441,-3.4641,-3.3563,-3.2292,-3.0873,-3.0285,-3.0144,-2.9762,-2.9699,-2.9953,-2.9894,-3.0004,-3.0061,-2.9528,-2.9466,-2.9274,-2.8954,-2.8492,-2.8426,-2.8191,-2.795,-2.7869,-2.7765,-2.7846,-2.8243,-2.867,-2.9291,-2.9484,-3.005,-3.0583,-3.0885,-3.0921,-3.0829,-3.0771,-3.1129,-3.1036,-3.1063,-3.1455,-3.1514,-3.1007,-3.0472,-3.0144,-2.9852,-2.8685,-2.838,-2.8725,-2.8385,-2.8147,-2.816,-2.7995,-2.7788,-2.7557,-2.7334,-2.7553,-2.7962,-2.7521,-2.8091,-2.8466,-2.8098,-2.7353,-2.6918,-2.6768,-2.6435,-2.6085,-2.595,-2.6008,-2.6354,-2.7162,-2.7437,-2.7074,-2.7123,-2.7164,-2.7464,-2.7348,-2.7199,-2.7088,-2.6934,-2.7024,-2.6987,-2.6765,-2.6401,-2.5845,-2.5461,-2.5117,-2.4452,-2.3467,-2.3344,-2.3306,-2.2725,-2.1583,-1.9529,-1.8304,-1.8019,-1.7832,-1.7687,-1.6954,-1.5832,-1.4852,-1.3762,-1.2579,-1.147,-1.0894,-1.0255,-0.8834,-0.7722,-0.7396,-0.6999,-0.6083,-3.3346,-3.3296,-3.3643,-3.3874,-3.4069,-3.4287,-3.4653,-3.4904,-3.3769,-3.2611,-3.1711,-3.0567,-3.0284,-3.0123,-2.9738,-2.9556,-2.9858,-2.9843,-3.0055,-3.0098,-2.9517,-2.9542,-2.9351,-2.8946,-2.8488,-2.8445,-2.8179,-2.7857,-2.7615,-2.7464,-2.7415,-2.7684,-2.846,-2.9491,-3.0114,-3.0495,-3.0631,-3.0416,-3.0346,-3.0283,-3.0082,-3.0272,-3.053,-3.048,-3.1007,-3.1052,-3.0641,-3.0067,-2.9757,-2.9376,-2.8153,-2.778,-2.8245,-2.8089,-2.7822,-2.7879,-2.7826,-2.7638,-2.7313,-2.7013,-2.6881,-2.7139,-2.7403,-2.7872,-2.8554,-2.812,-2.7626,-2.7304,-2.7076,-2.6546,-2.6074,-2.5644,-2.5635,-2.5899,-2.6365,-2.6376,-2.6348,-2.688,-2.7231,-2.7869,-2.8072,-2.7612,-2.7354,-2.7146,-2.717,-2.6687,-2.6426,-2.591,-2.5367,-2.4785,-2.4333,-2.3806,-2.3169,-2.2997,-2.2726,-2.2432,-2.1354,-1.9448,-1.8272,-1.7693,-1.7535,-1.7408,-1.6605,-1.5635,-1.4883,-1.4101,-1.2743,-1.1567,-1.0915,-1.0021,-0.8798,-0.8107,-0.7972,-0.7521,-0.6802,-3.2958,-3.2988,-3.3165,-3.3226,-3.3313,-3.3544,-3.3822,-3.3705,-3.266,-3.18,-3.1032,-3.0336,-3.0043,-2.9917,-2.9567,-2.9407,-2.969,-2.9902,-3.0011,-3.0037,-2.9325,-2.9327,-2.9177,-2.8737,-2.8172,-2.8137,-2.8092,-2.7947,-2.7392,-2.7243,-2.7202,-2.7459,-2.8037,-2.8775,-2.9602,-2.9941,-3.0077,-2.9835,-2.9699,-2.9594,-2.9478,-2.9521,-2.9804,-2.9923,-3.0197,-3.0418,-3.0107,-2.9827,-2.9424,-2.8805,-2.8079,-2.7391,-2.7687,-2.7605,-2.7384,-2.7416,-2.7427,-2.7313,-2.7092,-2.6903,-2.679,-2.668,-2.6929,-2.7305,-2.7787,-2.7371,-2.7634,-2.7536,-2.7383,-2.6745,-2.599,-2.5549,-2.5473,-2.583,-2.5786,-2.5808,-2.6107,-2.6655,-2.6974,-2.7708,-2.8553,-2.816,-2.7606,-2.7449,-2.7301,-2.6622,-2.5948,-2.5448,-2.4849,-2.4176,-2.3704,-2.3262,-2.2847,-2.2678,-2.2567,-2.2494,-2.1164,-1.9274,-1.8328,-1.7588,-1.7226,-1.7011,-1.6236,-1.537,-1.4324,-1.3354,-1.2572,-1.1695,-1.0872,-1.0104,-0.9221,-0.8753,-0.8554,-0.7842,-0.7064,-3.28,-3.3062,-3.3101,-3.2944,-3.2918,-3.2907,-3.255,-3.1745,-3.1648,-3.1203,-3.0533,-2.996,-2.9774,-2.9573,-2.9242,-2.9192,-2.944,-2.9869,-2.9999,-2.9846,-2.9106,-2.9083,-2.8735,-2.8164,-2.763,-2.756,-2.7538,-2.751,-2.705,-2.6823,-2.6842,-2.7119,-2.7434,-2.7988,-2.8604,-2.9048,-2.9194,-2.9054,-2.9054,-2.8825,-2.8612,-2.9029,-2.9151,-2.9231,-2.9488,-2.9613,-2.9426,-2.9241,-2.8664,-2.8078,-2.74,-2.7263,-2.7208,-2.7055,-2.698,-2.6923,-2.6847,-2.6943,-2.7024,-2.6919,-2.6985,-2.6948,-2.6881,-2.6543,-2.6428,-2.6605,-2.7009,-2.7446,-2.7435,-2.669,-2.6012,-2.5797,-2.5572,-2.5529,-2.5452,-2.5655,-2.5935,-2.6313,-2.6644,-2.7406,-2.8586,-2.8518,-2.758,-2.7338,-2.738,-2.6674,-2.5999,-2.5268,-2.4596,-2.358,-2.3093,-2.2914,-2.2601,-2.2433,-2.2299,-2.2226,-2.0772,-1.8873,-1.8171,-1.749,-1.7143,-1.6747,-1.6077,-1.5138,-1.3577,-1.2651,-1.2312,-1.1615,-1.0712,-0.9992,-0.9296,-0.8818,-0.8425,-0.7777,-0.7129,-3.1423,-3.1356,-3.1369,-3.1361,-3.1472,-3.154,-3.1399,-3.1151,-3.1035,-3.066,-3.0497,-2.9974,-2.9642,-2.9569,-2.9297,-2.9167,-2.9353,-2.9561,-2.9542,-2.9239,-2.8667,-2.8505,-2.8097,-2.7592,-2.7017,-2.6875,-2.6907,-2.6917,-2.6459,-2.6196,-2.6417,-2.6772,-2.6834,-2.7088,-2.7401,-2.7814,-2.8048,-2.8222,-2.8368,-2.8058,-2.7858,-2.8208,-2.8368,-2.8741,-2.9038,-2.9093,-2.9134,-2.9013,-2.8505,-2.8053,-2.7361,-2.7097,-2.7067,-2.6856,-2.6749,-2.6737,-2.6687,-2.6781,-2.6863,-2.7013,-2.7138,-2.7033,-2.6662,-2.634,-2.6048,-2.6022,-2.6325,-2.6628,-2.6954,-2.6334,-2.6016,-2.5902,-2.56,-2.5415,-2.5158,-2.5006,-2.5469,-2.6144,-2.6517,-2.6881,-2.7973,-2.8206,-2.7385,-2.7536,-2.7525,-2.6804,-2.6076,-2.5293,-2.4456,-2.3454,-2.2665,-2.2476,-2.1822,-2.156,-2.1777,-2.174,-2.0143,-1.8652,-1.7968,-1.749,-1.7278,-1.6828,-1.6124,-1.4792,-1.311,-1.2555,-1.247,-1.16,-1.0531,-0.9964,-0.9338,-0.8818,-0.8296,-0.7582,-0.7055,-3.0099,-3.0109,-3.0158,-3.0318,-3.0325,-3.0252,-3.0253,-3.0373,-3.0372,-3.0267,-2.983,-2.9474,-2.939,-2.9278,-2.9083,-2.8929,-2.8786,-2.9033,-2.9038,-2.8574,-2.8119,-2.7918,-2.7548,-2.7038,-2.6554,-2.6406,-2.6384,-2.6476,-2.6028,-2.5907,-2.6028,-2.5982,-2.6105,-2.6343,-2.6532,-2.671,-2.6909,-2.7164,-2.7309,-2.7267,-2.733,-2.7469,-2.7865,-2.8318,-2.8679,-2.8799,-2.8852,-2.8732,-2.8372,-2.804,-2.7403,-2.7011,-2.6833,-2.6466,-2.6347,-2.6315,-2.6512,-2.6589,-2.6711,-2.6714,-2.6909,-2.6803,-2.6203,-2.5557,-2.5411,-2.5445,-2.5466,-2.5552,-2.5894,-2.6066,-2.5999,-2.5852,-2.5535,-2.524,-2.4836,-2.4353,-2.5114,-2.595,-2.6297,-2.6388,-2.6871,-2.724,-2.7403,-2.7736,-2.7591,-2.6868,-2.6101,-2.5241,-2.4478,-2.3588,-2.2702,-2.2195,-2.1295,-2.0523,-2.0878,-2.1031,-1.97,-1.8462,-1.7768,-1.7379,-1.7334,-1.6869,-1.5976,-1.44,-1.2471,-1.2132,-1.1797,-1.1198,-1.0355,-0.9715,-0.8843,-0.7976,-0.7478,-0.726,-0.6859,-2.8819,-2.916,-2.9359,-2.9472,-2.9545,-2.9157,-2.9083,-2.9277,-2.975,-2.9577,-2.8952,-2.8916,-2.8814,-2.8567,-2.8439,-2.8322,-2.8191,-2.8309,-2.8188,-2.784,-2.7573,-2.731,-2.7101,-2.6766,-2.6259,-2.5985,-2.5888,-2.5926,-2.5663,-2.5616,-2.5583,-2.5159,-2.5384,-2.5703,-2.6033,-2.6021,-2.6268,-2.6628,-2.6672,-2.664,-2.6901,-2.7134,-2.7469,-2.7815,-2.8052,-2.8143,-2.8168,-2.809,-2.7894,-2.7749,-2.734,-2.6889,-2.6314,-2.5869,-2.5861,-2.5973,-2.619,-2.6253,-2.6337,-2.6267,-2.6417,-2.6142,-2.5472,-2.4729,-2.4598,-2.4903,-2.4946,-2.5221,-2.5584,-2.5808,-2.5804,-2.5863,-2.5644,-2.5333,-2.4905,-2.4203,-2.4007,-2.4957,-2.5585,-2.5851,-2.6407,-2.6896,-2.7403,-2.7643,-2.7341,-2.6699,-2.6087,-2.5265,-2.4448,-2.3596,-2.2898,-2.2063,-2.1044,-2.0217,-2.0216,-2.0203,-1.9274,-1.8306,-1.759,-1.7155,-1.6987,-1.6493,-1.5842,-1.3844,-1.1778,-1.1209,-1.0777,-1.0335,-0.9792,-0.8908,-0.8019,-0.6948,-0.6509,-0.6306,-0.6445,-2.8276,-2.8137,-2.7848,-2.7998,-2.8368,-2.8318,-2.8159,-2.8163,-2.8269,-2.8362,-2.83,-2.8435,-2.8119,-2.7589,-2.7657,-2.7575,-2.7391,-2.7519,-2.7201,-2.7041,-2.6887,-2.6793,-2.6557,-2.6263,-2.5822,-2.5503,-2.5338,-2.5396,-2.5215,-2.5394,-2.5575,-2.5183,-2.5324,-2.5676,-2.5898,-2.5898,-2.605,-2.6339,-2.627,-2.6452,-2.6863,-2.7201,-2.759,-2.7696,-2.7838,-2.7799,-2.7701,-2.739,-2.7386,-2.734,-2.6437,-2.583,-2.545,-2.5283,-2.5359,-2.5492,-2.5753,-2.5922,-2.5832,-2.5793,-2.5768,-2.5475,-2.4892,-2.4104,-2.3899,-2.4356,-2.4785,-2.5125,-2.5391,-2.5559,-2.5717,-2.5768,-2.5753,-2.5387,-2.4974,-2.404,-2.3207,-2.4003,-2.4883,-2.5479,-2.6052,-2.6672,-2.724,-2.7314,-2.6961,-2.6491,-2.5959,-2.5275,-2.4368,-2.3504,-2.2935,-2.2066,-2.0961,-2.0229,-2.0087,-1.9639,-1.8923,-1.8159,-1.7434,-1.7043,-1.6694,-1.5772,-1.4849,-1.2859,-1.1118,-1.0729,-1.0296,-0.9807,-0.9183,-0.8122,-0.6988,-0.5921,-0.5185,-0.4833,-0.536,-2.6813,-2.6564,-2.628,-2.6439,-2.6921,-2.7117,-2.7184,-2.7278,-2.7333,-2.7347,-2.7281,-2.7478,-2.7375,-2.686,-2.6986,-2.6906,-2.6771,-2.6932,-2.6663,-2.6488,-2.6436,-2.6392,-2.6136,-2.5886,-2.57,-2.5394,-2.5182,-2.504,-2.4932,-2.523,-2.5385,-2.5206,-2.5465,-2.5688,-2.5828,-2.598,-2.6062,-2.6201,-2.6131,-2.6383,-2.6837,-2.7095,-2.7181,-2.7301,-2.7373,-2.7319,-2.6996,-2.6741,-2.6934,-2.6847,-2.6271,-2.5524,-2.5199,-2.4988,-2.5018,-2.5177,-2.5397,-2.5604,-2.5452,-2.5315,-2.5145,-2.4881,-2.4293,-2.3547,-2.3427,-2.3989,-2.4886,-2.5294,-2.5579,-2.5812,-2.5812,-2.5874,-2.5852,-2.565,-2.5098,-2.4349,-2.391,-2.4107,-2.4561,-2.4757,-2.5539,-2.654,-2.6998,-2.7377,-2.7078,-2.6948,-2.6323,-2.5402,-2.4455,-2.3513,-2.2934,-2.2299,-2.1236,-2.0417,-2.0064,-1.9521,-1.876,-1.8052,-1.7267,-1.692,-1.6394,-1.5064,-1.3659,-1.2009,-1.0856,-1.0514,-1.0089,-0.9532,-0.8139,-0.6879,-0.5834,-0.4787,-0.4146,-0.3675,-0.4095,-2.5192,-2.5049,-2.4859,-2.5094,-2.5604,-2.5847,-2.6153,-2.655,-2.6764,-2.6612,-2.6263,-2.6488,-2.6632,-2.6644,-2.6695,-2.6529,-2.6372,-2.6407,-2.6125,-2.6082,-2.5972,-2.5975,-2.5894,-2.5849,-2.5664,-2.5465,-2.5182,-2.4921,-2.4741,-2.5075,-2.5207,-2.5253,-2.5453,-2.5676,-2.5758,-2.5758,-2.5828,-2.605,-2.6107,-2.6158,-2.6476,-2.679,-2.6749,-2.6804,-2.6797,-2.6707,-2.6347,-2.6235,-2.6365,-2.6238,-2.5935,-2.5217,-2.4728,-2.4538,-2.4676,-2.478,-2.504,-2.5191,-2.5207,-2.4786,-2.4771,-2.4489,-2.3757,-2.3408,-2.3326,-2.3787,-2.4711,-2.5253,-2.5546,-2.5611,-2.5694,-2.5633,-2.5611,-2.5628,-2.5079,-2.4679,-2.4419,-2.4284,-2.4368,-2.4415,-2.523,-2.6314,-2.6726,-2.7121,-2.7298,-2.7183,-2.6596,-2.5673,-2.4758,-2.3781,-2.2969,-2.2543,-2.1836,-2.1021,-2.0405,-1.9568,-1.8868,-1.781,-1.7043,-1.6705,-1.6033,-1.4551,-1.303,-1.1576,-1.0632,-1.0288,-0.9755,-0.9204,-0.7668,-0.6041,-0.5068,-0.4262,-0.3682,-0.327,-0.3045,-2.4918,-2.4848,-2.4634,-2.4837,-2.5205,-2.5504,-2.5768,-2.6015,-2.6335,-2.6262,-2.6017,-2.592,-2.5922,-2.5636,-2.5612,-2.5695,-2.5958,-2.6003,-2.6012,-2.5923,-2.5881,-2.566,-2.5573,-2.5652,-2.5697,-2.5322,-2.4909,-2.4754,-2.4494,-2.4684,-2.4838,-2.4766,-2.517,-2.5382,-2.5453,-2.5594,-2.5828,-2.6025,-2.597,-2.5928,-2.5803,-2.6164,-2.6544,-2.6437,-2.6131,-2.5942,-2.5673,-2.5414,-2.5486,-2.5382,-2.5156,-2.4607,-2.4166,-2.3946,-2.4079,-2.4273,-2.4493,-2.4614,-2.4527,-2.4376,-2.4323,-2.4179,-2.37,-2.3626,-2.3512,-2.3386,-2.4169,-2.4675,-2.487,-2.4847,-2.4834,-2.4843,-2.4774,-2.4999,-2.4804,-2.4737,-2.4572,-2.4704,-2.4826,-2.4992,-2.5348,-2.6094,-2.6589,-2.6998,-2.739,-2.7117,-2.6479,-2.5595,-2.5036,-2.4032,-2.3078,-2.2641,-2.2211,-2.1726,-2.1086,-1.991,-1.8975,-1.7846,-1.6775,-1.6275,-1.5381,-1.3822,-1.2342,-1.1063,-1.0395,-1.0035,-0.9451,-0.8981,-0.7456,-0.5931,-0.4812,-0.3919,-0.3317,-0.2945,-0.2783]},{"header":{"parameterUnit":"m.s-1","parameterCategory":1,"la1":31.0,"la2":29.5877,"lo1":-88.7671,"lo2":-86.6584,"dy":0.0162,"dx":0.0185,"nx":115,"ny":88,"refTime":"2024-07-30T00:00:00:Z","depth":0,"parameterNumber":3,"parameterNumberName":"V-component_of_WINDS"},"data":[0.0,0.0,0.0,0.0,0.0,0.0,0.0,0.0,0.0,0.0,0.0,0.0,0.0,0.0,0.0,0.0,0.0,0.0,0.0,0.0,0.0,0.0,0.0,0.0,0.0,0.0,0.0,0.0,0.0,0.0,0.0,0.0,0.0,0.0,0.0,0.0,0.0,0.0,0.0,0.0,0.0,0.0,0.0,0.0,0.0,0.0,0.0,0.0,0.0,0.0,0.0,0.0,0.0,0.0,0.0,0.0,0.0,0.0,0.0,0.0,0.0,0.0,0.0,0.0,0.0,0.0,0.0,0.0,0.0,0.0,0.0,0.0,0.0,0.0,0.0,0.0,0.0,0.0,0.0,0.0,0.0,0.0,0.0,0.0,0.0,0.0,0.0,0.0,0.0,0.0,0.0,0.0,0.0,0.0,0.0,0.0,0.0,0.0,0.0,0.0,0.0,0.0,0.0,0.0,0.0,0.0,0.0,0.0,0.0,0.0,0.0,0.0,0.0,0.0,0.0,0.0,0.0,0.0,0.0,0.0,0.0,0.0,0.0,0.0,0.0,0.0,0.0,0.0,0.0,0.0,0.0,0.0,0.0,0.0,0.0,0.0,0.0,0.0,0.0,0.0,0.0,0.0,0.0,0.0,0.0,0.0,0.0,0.0,0.0,0.0,0.0,0.0,0.0,0.0,0.0,0.0,0.0,0.0,0.0,0.0,0.0,0.0,0.0,0.0,0.0,0.0,0.0,0.0,0.0,0.0,0.0,0.0,0.0,0.0,0.0,0.0,0.0,0.0,0.0,0.0,0.0,0.0,0.0,0.0,0.0,0.0,0.0,0.0,0.0,0.0,0.0,0.0,0.0,0.0,0.0,0.0,0.0,0.0,0.0,0.0,0.0,0.0,0.0,0.0,0.0,0.0,0.0,0.0,0.0,0.0,0.0,0.0,0.0,0.0,0.0,0.0,0.0,0.0,0.0,0.0,0.0,0.0,0.0,0.0,0.0,0.0,0.0,0.0,0.0,0.0,0.0,0.0,0.0,0.0,0.0,0.0,0.0,0.0,0.0,0.0,0.0,0.0,0.0,0.0,0.0,0.0,0.0,0.0,0.0,0.0,0.0,0.0,0.0,0.0,0.0,0.0,0.0,0.0,0.0,0.0,0.0,0.0,0.0,0.0,0.0,0.0,0.0,0.0,0.0,0.0,0.0,0.0,0.0,0.0,0.0,0.0,0.0,0.0,0.0,0.0,0.0,0.0,0.0,0.0,0.0,0.0,0.0,0.0,0.0,0.0,0.0,0.0,0.0,0.0,0.0,0.0,0.0,0.0,0.0,0.0,0.0,0.0,0.0,0.0,0.0,0.0,0.0,0.0,0.0,0.0,0.0,0.0,0.0,0.0,0.0,0.0,0.0,0.0,0.0,0.0,0.0,0.0,0.0,0.0,0.0,0.0,0.0,0.0,0.0,0.0,0.0,0.0,0.0,0.0,0.0,0.0,0.0,0.0,0.0,0.0,0.0,0.0,0.0,0.0,0.0,0.0,0.0,0.0,0.0,0.0,0.0,0.0,0.0,0.0,0.0,0.0,0.0,0.0,0.0,0.0,0.0,0.0,0.0,0.0,0.0,0.0,0.0,0.0,0.0,0.0,0.0,0.0,0.0,0.0,0.0,0.0,0.0,0.0,0.0,0.0,0.0,0.0,0.0,0.0,0.0,0.0,0.0,0.0,0.0,0.0,0.0,0.0,0.0,0.0,0.0,0.0,0.0,0.0,0.0,0.0,0.0,0.0,0.0,0.0,0.0,0.0,0.0,0.0,0.0,0.0,0.0,0.0,0.0,0.0,0.0,0.0,0.0,0.0,0.0,0.0,0.0,0.0,0.0,0.0,0.0,0.0,0.0,0.0,0.0,0.0,0.0,0.0,0.0,0.0,0.0,0.0,0.0,0.0,0.0,0.0,0.0,0.0,0.0,0.0,0.0,0.0,0.0,0.0,0.0,0.0,0.0,0.0,0.0,0.0,0.0,0.0,0.0,0.0,0.0,0.0,0.0,0.0,0.0,0.0,0.0,0.0,0.0,0.0,0.0,0.0,0.0,0.0,0.0,0.0,0.0,0.0,0.0,0.0,0.0,0.0,0.0,0.0,0.0,0.0,0.0,0.0,0.0,0.0,0.0,0.0,0.0,0.0,0.0,0.0,0.0,0.0,0.0,0.0,0.0,0.0,0.0,0.0,0.0,0.0,0.0,0.0,0.0,0.0,0.0,0.0,0.0,0.0,0.0,0.0,0.0,0.0,0.0,0.0,0.0,0.0,0.0,0.0,0.0,0.0,0.0,0.0,0.0,0.0,0.0,0.0,0.0,0.0,0.0,0.0,0.0,0.0,0.0,0.0,0.0,0.0,0.0,0.0,0.0,0.0,0.0,0.0,0.0,0.0,0.0,0.0,0.0,0.0,0.0,0.0,0.0,0.0,0.0,0.0,0.0,0.0,0.0,0.0,0.0,0.0,0.0,0.0,0.0,0.0,0.0,0.0,0.0,0.0,0.0,0.0,0.0,0.0,0.0,0.0,0.0,0.0,0.0,0.0,0.0,0.0,0.0,0.0,0.0,0.0,0.0,0.0,0.0,0.0,0.0,0.0,0.0,0.0,0.0,0.0,0.0,0.0,0.0,0.0,0.0,0.0,0.0,0.0,0.0,0.0,0.0,0.0,0.0,0.0,0.0,0.0,0.0,0.0,0.0,0.0,0.0,0.0,0.0,0.0,0.0,0.0,0.0,0.0,0.0,0.0,0.0,0.0,0.0,0.0,0.0,0.0,0.0,0.0,0.0,0.0,0.0,0.0,0.0,0.0,0.0,0.0,0.0,0.0,0.0,0.0,0.0,0.0,0.0,0.0,0.0,0.0,0.0,0.0,0.0,0.0,0.0,0.0,0.0,0.0,0.0,0.0,0.0,0.0,0.0,0.0,0.0,0.0,0.0,0.0,0.0,0.0,0.0,0.0,0.0,0.0,0.0,0.0,0.0,0.0,0.0,0.0,0.0,0.0,0.0,0.0,0.0,0.0,0.0,0.0,0.0,0.0,0.0,0.0,0.0,0.0,0.0,0.0,0.0,0.0,0.0,0.0,0.0,0.0,0.0,0.0,0.0,0.0,0.0,0.0,0.0,0.0,0.0,0.0,0.0,0.0,0.0,0.0,0.0,0.0,0.0,0.0,0.0,0.0,0.0,0.0,0.0,0.0,0.0,0.0,0.0,0.0,0.0,0.0,0.0,0.0,0.0,0.0,0.0,0.0,0.0,0.0,0.0,0.0,0.0,0.0,0.0,0.0,0.0,0.0,0.0,0.0,0.0,0.0,0.0,0.0,0.0,0.0,0.0,0.0,0.0,0.0,0.0,0.0,0.0,0.0,0.0,0.0,0.0,0.0,0.0,0.0,0.0,0.0,0.0,0.0,0.0,0.0,0.0,0.0,0.0,0.0,0.0,0.0,0.0,0.0,0.0,0.0,0.0,0.0,0.0,0.0,0.0,0.0,0.0,0.0,0.0,0.0,0.0,0.0,0.0,0.0,0.0,0.0,0.0,0.0,0.0,0.0,0.0,0.0,0.0,0.0,0.0,0.0,0.0,0.0,0.0,0.0,0.0,0.0,0.0,0.0,0.0,0.0,0.0,0.0,0.0,0.0,0.0,0.0,0.0,0.0,0.0,0.0,0.0,0.0,0.0,0.0,0.0,0.0,0.0,0.0,0.0,0.0,0.0,0.0,0.0,0.0,0.0,0.0,0.0,0.0,0.0,0.0,0.0,0.0,0.0,0.0,0.0,0.0,0.0,0.0,0.0,0.0,0.0,0.0,0.0,0.0,0.0,0.0,0.0,0.0,0.0,0.0,0.0,0.0,0.0,0.0,0.0,0.0,0.0,0.0,0.0,0.0,0.0,0.0,0.0,0.0,0.0,0.0,0.0,0.0,0.0,0.0,0.0,0.0,0.0,0.0,0.0,0.0,0.0,0.0,0.0,0.0,0.0,0.0,0.0,0.0,0.0,0.0,0.0,0.0,0.0,0.0,0.0,0.0,0.0,0.0,0.0,0.0,0.0,0.0,0.0,0.0,0.0,0.0,0.0,0.0,0.0,0.0,0.0,0.0,0.0,0.0,0.0,0.0,0.0,0.0,0.0,0.0,0.0,0.0,0.0,0.0,0.0,0.0,0.0,0.0,0.0,0.0,0.0,0.0,0.0,0.0,0.0,0.0,0.0,0.0,0.0,0.0,0.0,0.0,0.0,0.0,-0.4399,0.0,0.0,0.0,0.0,0.0,0.0,0.0,0.0,0.0,0.0,0.0,0.0,0.0,0.0,0.0,0.0,0.0,0.0,0.0,0.0,0.0,0.0,0.0,0.0,0.0,0.0,0.0,0.0,0.0,0.0,0.0,0.0,0.0,0.0,0.0,0.0,0.0,0.0,0.0,0.0,0.0,0.0,0.0,0.0,0.0,0.0,0.0,0.0,0.0,0.0,0.0,0.0,0.0,0.0,0.0,0.0,0.0,0.0,0.0,0.0,0.0,0.0,0.0,0.0,0.0,0.0,0.0,0.0,0.0,0.0,0.0,0.0,0.0,0.0,0.0,0.0,0.0,0.0,0.0,0.0,0.0,0.0,0.0,0.0,0.0,0.0,0.0,0.0,0.0,0.0,0.0,0.0,0.0,0.0,0.0,0.0,0.0,0.0,0.0,0.0,0.0,0.0,0.0,0.0,0.0,0.0,0.0,0.0,0.0,0.0,-0.393,-0.4256,-0.4172,-0.4289,-0.473,0.0,0.0,0.0,0.0,0.0,0.0,0.0,0.0,0.0,0.0,0.0,0.0,0.0,0.0,0.0,0.0,0.0,0.0,0.0,0.0,0.0,0.0,0.0,0.0,0.0,0.0,0.0,0.0,0.0,0.0,0.0,0.0,0.0,0.0,0.0,0.0,0.0,0.0,0.0,0.0,0.0,0.0,0.0,0.0,0.0,0.0,0.0,0.0,0.0,0.0,0.0,0.0,0.0,0.0,0.0,0.0,0.0,0.0,0.0,0.0,0.0,0.0,0.0,0.0,0.0,0.0,0.0,0.0,0.0,0.0,0.0,0.0,0.0,0.0,0.0,0.0,0.0,0.0,0.0,0.0,0.0,0.0,0.0,0.0,0.0,0.0,0.0,0.0,0.0,0.0,0.0,0.0,0.0,0.0,0.0,0.0,0.0,0.0,0.0,0.0,0.0,0.0,0.0,0.0,0.0,0.0,0.0,0.0,0.0,0.0,0.0,0.0,-0.4133,-0.4515,-0.5617,0.0,0.0,0.0,0.0,0.0,0.0,0.0,0.0,0.0,0.0,0.0,0.0,0.0,0.0,0.0,0.0,0.0,0.0,0.0,0.0,0.0,0.0,0.0,0.0,0.0,0.0,0.0,0.0,0.0,0.0,0.0,0.0,0.0,0.0,0.0,0.0,0.0,0.0,0.0,0.0,0.0,0.0,0.0,0.0,0.0,0.0,0.0,0.0,0.0,0.0,0.0,0.0,0.0,0.0,0.0,0.0,0.0,0.0,0.0,0.0,0.0,0.0,0.0,0.0,0.0,0.0,0.0,0.0,0.0,0.0,0.0,0.0,0.0,0.0,0.0,0.0,0.0,0.0,0.0,0.0,0.0,0.0,0.0,0.0,0.0,0.0,0.0,0.0,0.0,0.0,0.0,0.0,0.0,0.0,0.0,0.0,0.0,0.0,0.0,0.0,0.0,0.0,0.0,0.0,0.0,0.0,0.0,0.0,0.0,0.0,-0.3398,-0.5049,-0.4944,0.0,-0.7342,0.0,0.0,0.0,0.0,0.0,0.0,0.0,0.0,0.0,0.0,0.0,0.0,0.0,0.0,0.0,0.0,0.0,0.0,0.0,0.0,0.0,0.0,0.0,0.0,0.0,0.0,0.0,0.0,0.0,0.0,0.0,0.0,0.0,0.0,0.0,0.0,0.0,0.0,0.0,0.0,0.0,0.0,0.0,0.0,0.0,0.0,0.0,0.0,0.0,0.0,0.0,0.0,0.0,0.0,0.0,0.0,0.0,0.0,0.0,0.0,0.0,0.0,0.0,0.0,0.0,0.0,0.0,0.0,0.0,0.0,0.0,0.0,0.0,0.0,0.0,0.0,0.0,0.0,0.0,0.0,0.0,0.0,0.0,0.0,0.0,0.0,0.0,0.0,0.0,0.0,0.0,0.0,0.0,0.0,0.0,0.0,0.0,0.0,0.0,0.0,0.0,0.0,0.0,0.0,0.0,0.0,0.0,0.0,0.0,0.0,0.0,-0.4423,-0.5165,-0.6053,0.0,0.0,0.0,0.0,0.0,0.0,0.0,0.0,0.0,0.0,0.0,0.0,0.0,0.0,0.0,0.0,0.0,0.0,0.0,0.0,0.0,0.0,0.0,0.0,0.0,0.0,0.0,0.0,0.0,0.0,0.0,0.0,0.0,0.0,0.0,0.0,0.0,0.0,0.0,0.0,0.0,0.0,0.0,0.0,0.0,0.0,0.0,0.0,0.0,0.0,0.0,0.0,0.0,0.0,0.0,0.0,0.0,0.0,0.0,0.0,0.0,0.0,0.0,0.0,0.0,0.0,0.0,0.0,0.0,0.0,0.0,0.0,0.0,0.0,0.0,0.0,0.0,0.0,0.0,0.0,0.0,0.0,0.0,0.0,0.0,0.0,0.0,0.0,0.0,0.0,0.0,0.0,0.0,0.0,0.0,0.0,0.0,0.0,0.0,0.0,0.0,0.0,0.0,0.0,0.0,0.0,0.0,0.0,0.0,0.0,-0.2556,0.0,-0.4385,-0.5488,-0.6409,-0.7027,0.0,0.0,0.0,0.0,0.0,0.0,0.0,0.0,0.0,0.0,0.0,0.0,0.0,0.0,0.0,0.0,0.0,0.0,0.0,0.0,0.0,0.0,0.0,0.0,0.0,0.0,0.0,0.0,0.0,0.0,0.0,0.0,0.0,0.0,0.0,0.0,0.0,0.0,0.0,0.0,0.0,0.0,0.0,0.0,0.0,0.0,0.0,0.0,0.0,0.0,0.0,0.0,0.0,0.0,0.0,0.0,0.0,0.0,0.0,0.0,0.0,0.0,0.0,0.0,0.0,0.0,0.0,0.0,0.0,0.0,0.0,0.0,0.0,0.0,0.0,0.0,0.0,0.0,0.0,0.0,0.0,0.0,0.0,0.0,0.0,0.0,0.0,0.0,0.0,0.0,0.0,0.0,0.0,0.0,0.0,0.0,0.0,0.0,0.0,0.0,0.0,0.0,0.0,0.0,0.0,0.0,0.0,0.0,0.0,-0.195,-0.2686,-0.5621,-0.6272,-0.684,0.0,0.0,0.0,0.0,0.0,0.0,0.0,0.0,0.0,0.0,0.0,0.0,0.0,0.0,0.0,0.0,0.0,0.0,0.0,0.0,0.0,0.0,0.0,0.0,0.0,0.0,0.0,0.0,0.0,0.0,0.0,0.0,0.0,0.0,0.0,0.0,0.0,0.0,0.0,0.0,0.0,0.0,0.0,0.0,0.0,0.0,0.0,0.0,0.0,0.0,0.0,0.0,0.0,0.0,0.0,0.0,0.0,0.0,0.0,0.0,0.0,0.0,0.0,0.0,0.0,0.0,0.0,0.0,0.0,0.0,0.0,0.0,0.0,0.0,0.0,0.0,0.0,0.0,0.0,0.0,0.0,0.0,0.0,0.0,0.0,0.0,0.0,0.0,0.0,0.0,0.0,0.0,0.0,0.0,0.0,0.0,0.0,0.0,0.0,0.0,0.0,0.0,0.0,0.0,0.0,0.0,0.0,0.0,0.0,-0.1382,-0.2427,-0.4172,0.0,-0.6591,-0.6612,0.0,0.0,0.0,0.0,0.0,0.0,0.0,0.0,0.0,0.0,0.0,0.0,0.0,0.0,0.0,0.0,0.0,0.0,0.0,0.0,0.0,0.0,0.0,0.0,0.0,0.0,0.0,0.0,0.0,0.0,0.0,0.0,0.0,0.0,0.0,0.0,0.0,0.0,0.0,0.0,0.0,0.0,0.0,0.0,0.0,0.0,0.0,0.0,0.0,0.0,0.0,0.0,0.0,0.0,0.0,0.0,0.0,0.0,0.0,0.0,0.0,0.0,0.0,0.0,0.0,0.0,0.0,0.0,0.0,0.0,0.0,0.0,0.0,0.0,0.0,0.0,0.0,0.0,0.0,0.0,0.0,0.0,0.0,0.0,0.0,0.0,0.0,0.0,0.0,0.0,0.0,0.0,0.0,0.0,0.0,0.0,0.0,0.0,0.0,0.0,0.0,0.0,0.0,0.0,0.0,0.0,0.0,0.0,0.0,-0.0872,0.0,-0.5482,0.0,-0.6686,-0.6463,0.0,0.0,0.0,0.0,0.0,0.0,0.0,0.0,0.0,0.0,0.0,0.0,0.0,0.0,0.0,0.0,0.0,0.0,0.0,0.0,0.0,0.0,0.0,0.0,0.0,0.0,0.0,0.0,0.0,0.0,0.0,0.0,0.0,0.0,0.0,0.0,0.0,0.0,0.0,0.0,0.0,0.0,0.0,0.0,0.0,0.0,0.0,0.0,0.0,0.0,0.0,0.0,0.0,0.0,0.0,0.0,0.0,0.0,0.0,0.0,0.0,0.0,0.0,0.0,0.0,0.0,0.0,0.0,0.0,0.0,0.0,0.0,0.0,0.0,0.0,0.0,0.0,0.0,0.0,0.0,0.0,0.0,0.0,0.0,0.0,0.0,0.0,0.0,0.0,0.0,0.0,0.0,0.0,0.0,0.0,0.0,0.0,0.0,0.0,0.0,0.0,0.0,0.0,0.0,0.0,0.0,0.0,0.0,0.0,-0.1861,-0.4747,-0.6159,-0.594,-0.6505,-0.642,0.0,0.0,0.0,0.0,0.0,0.0,0.0,0.0,0.0,0.0,0.0,0.0,0.0,0.0,0.0,0.0,0.0,0.0,0.0,0.0,0.0,0.0,0.0,0.0,0.0,0.0,0.0,0.0,0.0,0.0,0.0,0.0,0.0,0.0,0.0,0.0,0.0,0.0,0.0,0.0,0.0,0.0,0.0,0.0,0.0,0.0,0.0,0.0,0.0,0.0,0.0,0.0,0.0,0.0,0.0,0.0,0.0,0.0,0.0,0.0,0.0,0.0,0.0,0.0,0.0,0.0,0.0,0.0,0.0,0.0,0.0,0.0,0.0,0.0,0.0,0.0,0.0,0.0,0.0,0.0,0.0,0.0,0.0,0.0,0.0,0.0,0.0,0.0,0.0,0.0,0.0,0.0,0.0,0.0,0.0,0.0,0.0,0.0,0.0,0.0,0.0,0.0,0.0,0.0,0.0,0.0,0.0,0.0,0.0,-0.2327,-0.449,-0.594,-0.6491,-0.685,-0.6656,0.0,0.0,0.0,0.0,0.0,0.0,0.0,0.0,0.0,0.0,0.0,0.0,0.0,0.0,0.0,0.0,0.0,0.0,0.0,0.0,0.0,0.0,0.0,0.0,0.0,0.0,0.0,0.0,0.0,0.0,0.0,0.0,0.0,0.0,0.0,0.0,0.0,0.0,0.0,0.0,0.0,0.0,0.0,0.0,0.0,0.0,0.0,0.0,0.0,0.0,0.0,0.0,0.0,0.0,0.0,0.0,0.0,0.0,0.0,0.0,0.0,0.0,0.0,0.0,0.0,0.0,0.0,0.0,0.0,0.0,0.0,0.0,0.0,0.0,0.0,0.0,0.0,0.0,0.0,0.0,0.0,0.0,0.0,0.0,0.0,0.0,0.0,0.0,0.0,0.0,0.0,0.0,0.0,0.0,0.0,0.0,0.0,0.0,0.0,0.0,0.0,0.0,0.0,0.0,0.0,0.0,0.0,0.0,0.0,-0.2814,-0.4624,-0.5987,-0.6656,-0.6946,-0.6711,-0.5816,0.0,0.0,0.0,0.0,0.0,0.0,0.0,0.0,0.0,0.0,0.0,0.0,0.0,0.0,0.0,0.0,0.0,0.0,0.0,0.0,0.0,0.0,0.0,0.0,0.0,0.0,0.0,0.0,0.0,0.0,0.0,0.0,0.0,0.0,0.0,0.0,0.0,0.0,0.0,0.0,0.0,0.0,0.0,0.0,0.0,0.0,0.0,0.0,0.0,0.0,0.0,0.0,0.0,0.0,0.0,0.0,0.0,0.0,0.0,0.0,0.0,0.0,0.0,0.0,0.0,0.0,0.0,0.0,0.0,0.0,0.0,0.0,0.0,0.0,0.0,0.0,0.0,0.0,0.0,0.0,0.0,0.0,0.0,0.0,0.0,0.0,0.0,0.0,0.0,0.0,0.0,0.0,0.0,0.0,0.0,0.0,0.0,0.0,0.0,0.0,0.0,0.0,0.0,0.0,0.0,0.0,0.0,0.0,-0.301,-0.5147,-0.6323,-0.6514,-0.7002,-0.6696,0.0,0.0,0.0,0.0,0.0,0.0,0.0,0.0,0.0,0.0,0.0,0.0,0.0,0.0,0.0,0.0,0.0,0.0,0.0,0.0,0.0,0.0,0.0,0.0,0.0,0.0,0.0,0.0,0.0,0.0,0.0,0.0,0.0,0.0,0.0,0.0,0.0,0.0,0.0,0.0,0.0,0.0,0.0,0.0,0.0,0.0,0.0,0.0,0.0,0.0,0.0,0.0,0.0,0.0,0.0,0.0,0.0,0.0,0.0,0.0,0.0,0.0,0.0,0.0,0.0,0.0,0.0,0.0,0.0,0.0,0.0,0.0,0.0,0.0,0.0,0.0,0.0,0.0,0.0,0.0,0.0,0.0,0.0,0.0,0.0,0.0,0.0,0.0,0.0,0.0,0.0,0.0,0.0,0.0,0.0,0.0,0.0,0.0,0.0,0.0,0.0,0.0,0.0,0.0,0.0,0.0,0.0,0.0,0.0,-0.218,-0.4319,-0.6156,-0.761,-0.7757,-0.7473,0.0,0.0,0.0,0.0,0.0,0.0,0.0,0.0,0.0,0.0,0.0,0.0,0.0,0.0,0.0,0.0,0.0,0.0,0.0,0.0,0.0,0.0,0.0,0.0,0.0,0.0,0.0,0.0,0.0,0.0,0.0,0.0,0.0,0.0,0.0,0.0,0.0,0.0,0.0,0.0,0.0,0.0,0.0,0.0,0.0,0.0,0.0,0.0,0.0,0.0,0.0,0.0,0.0,0.0,0.0,0.0,0.0,0.0,0.0,0.0,0.0,0.0,0.0,0.0,0.0,0.0,0.0,0.0,0.0,0.0,0.0,0.0,0.0,0.0,0.0,0.0,0.0,0.0,0.0,0.0,0.0,0.0,0.0,0.0,0.0,0.0,0.0,0.0,0.0,0.0,0.0,0.0,0.0,0.0,0.0,0.0,0.0,0.0,0.0,0.0,0.0,0.0,0.0,0.0,0.0,0.0,0.0,0.0,-0.0945,-0.1945,-0.4303,-0.6419,-0.8198,-0.8131,-0.7929,0.0,0.0,0.0,0.0,0.0,0.0,0.0,0.0,0.0,0.0,0.0,0.0,0.0,0.0,0.0,0.0,0.0,0.0,0.0,0.0,0.0,0.0,0.0,0.0,0.0,0.0,0.0,0.0,0.0,0.0,0.0,0.0,0.0,0.0,0.0,0.0,0.0,0.0,0.0,0.0,0.0,0.0,0.0,0.0,0.0,0.0,0.0,0.0,0.0,0.0,0.0,0.0,0.0,0.0,0.0,0.0,0.0,0.0,0.0,0.0,0.0,0.0,0.0,0.0,0.0,0.0,0.0,0.0,0.0,0.0,0.0,0.0,0.0,0.0,0.0,0.0,0.0,0.0,0.0,0.0,0.0,0.0,0.0,0.0,0.0,0.0,0.0,0.0,0.0,0.0,0.0,0.0,0.0,0.0,0.0,0.0,0.0,0.0,0.0,0.0,0.0,0.0,0.0,0.0,0.0,0.0,0.0,0.0,-0.037,-0.2128,-0.4646,-0.6765,-0.8326,-0.8339,-0.8268,0.0,0.0,0.0,0.0,0.0,0.0,0.0,0.0,0.0,0.0,0.0,0.0,0.0,0.0,0.0,0.0,0.0,0.0,0.0,0.0,0.0,0.0,0.0,0.0,0.0,0.0,0.0,0.0,0.0,0.0,0.0,0.0,0.0,0.0,0.0,0.0,0.0,0.0,0.0,0.0,0.0,0.0,0.0,0.0,0.0,0.0,0.0,0.0,0.0,0.0,0.0,0.0,0.0,0.0,0.0,0.0,0.0,0.0,0.0,0.0,0.0,0.0,0.0,0.0,0.0,0.0,0.0,0.0,0.0,0.0,0.0,0.0,0.0,0.0,0.0,0.0,0.0,0.0,0.0,0.0,0.0,0.0,0.0,0.0,0.0,0.0,0.0,0.0,0.0,0.0,0.0,0.0,0.0,0.0,0.0,0.0,0.0,0.0,0.0,0.0,0.0,0.0,0.0,0.0,0.0,0.0,0.0,0.0,-0.0057,-0.1803,-0.4462,-0.6689,-0.8444,-0.8746,-0.885,0.0,0.0,0.0,0.0,0.0,0.0,0.0,0.0,0.0,0.0,0.0,0.0,0.0,0.0,0.0,0.0,0.0,0.0,0.0,0.0,0.0,0.0,0.0,0.0,0.0,0.0,0.0,0.0,0.0,0.0,0.0,0.0,0.0,0.0,0.0,0.0,0.0,0.0,0.0,0.0,0.0,0.0,0.0,0.0,0.0,0.0,0.0,0.0,-1.4694,0.0,0.0,0.0,0.0,0.0,0.0,0.0,0.0,0.0,0.0,0.0,0.0,0.0,0.0,0.0,0.0,0.0,0.0,0.0,0.0,0.0,0.0,0.0,0.0,0.0,0.0,0.0,0.0,0.0,0.0,0.0,0.0,0.0,0.0,0.0,0.0,0.0,0.0,0.0,0.0,0.0,0.0,0.0,0.0,0.0,0.0,0.0,0.0,0.0,0.0,0.0,0.0,0.0,0.0,0.0,0.0,0.0,0.0,0.0,-0.05,-0.2474,-0.5087,-0.7372,-0.9223,-0.9924,-1.0001,0.0,0.0,0.0,0.0,0.0,0.0,0.0,0.0,0.0,0.0,0.0,0.0,0.0,0.0,0.0,0.0,0.0,0.0,0.0,0.0,0.0,0.0,0.0,0.0,0.0,0.0,0.0,0.0,0.0,0.0,0.0,0.0,0.0,0.0,0.0,0.0,0.0,0.0,0.0,0.0,0.0,0.0,0.0,0.0,0.0,0.0,0.0,0.0,0.0,0.0,0.0,0.0,0.0,0.0,0.0,0.0,0.0,0.0,0.0,0.0,0.0,0.0,0.0,0.0,0.0,0.0,0.0,0.0,0.0,0.0,0.0,0.0,0.0,0.0,0.0,0.0,0.0,0.0,0.0,0.0,0.0,0.0,0.0,0.0,0.0,0.0,0.0,0.0,0.0,0.0,0.0,0.0,0.0,0.0,0.0,0.0,0.0,0.0,0.0,0.0,0.0,0.0,0.0,0.0,0.0,0.0,0.0,0.0288,-0.156,-0.3664,-0.6193,-0.841,-1.0217,-1.1346,-1.1421,-1.0391,0.0,0.0,0.0,0.0,0.0,0.0,0.0,0.0,0.0,0.0,0.0,0.0,0.0,0.0,0.0,0.0,0.0,0.0,0.0,0.0,0.0,0.0,0.0,0.0,0.0,0.0,0.0,0.0,0.0,0.0,0.0,0.0,0.0,0.0,0.0,0.0,0.0,0.0,-1.2886,-1.3107,0.0,0.0,0.0,0.0,0.0,0.0,0.0,0.0,-1.4379,0.0,0.0,0.0,0.0,0.0,0.0,0.0,0.0,0.0,0.0,0.0,0.0,0.0,0.0,0.0,0.0,0.0,0.0,0.0,0.0,0.0,0.0,0.0,0.0,0.0,0.0,0.0,0.0,0.0,0.0,0.0,0.0,0.0,0.0,0.0,0.0,0.0,0.0,0.0,0.0,0.0,0.0,0.0,0.0,0.0,0.0,0.0,0.0,0.0,0.0,0.0,0.0,0.0,0.0,0.0,0.0,-0.0453,-0.204,-0.3499,-0.4916,-0.7597,-0.9523,-1.0535,-1.2365,-1.2795,-1.164,0.0,0.0,0.0,0.0,0.0,0.0,0.0,0.0,0.0,0.0,0.0,0.0,0.0,0.0,0.0,0.0,0.0,0.0,0.0,0.0,0.0,0.0,0.0,0.0,0.0,0.0,0.0,0.0,0.0,0.0,0.0,0.0,0.0,0.0,0.0,0.0,0.0,0.0,0.0,-1.4384,-1.4899,0.0,0.0,0.0,0.0,0.0,0.0,0.0,0.0,-1.4536,0.0,0.0,0.0,0.0,0.0,0.0,0.0,0.0,0.0,0.0,0.0,0.0,0.0,0.0,0.0,0.0,0.0,0.0,0.0,0.0,0.0,0.0,0.0,0.0,0.0,0.0,0.0,0.0,0.0,0.0,0.0,0.0,0.0,0.0,0.0,0.0,0.0,0.0,0.0,0.0,0.0,0.0,0.0,0.0,0.0,0.0,0.0,0.0,0.0,0.0,0.0,0.0,0.0,0.0,0.0,-0.1769,-0.3438,-0.513,-0.6824,-0.9517,-1.1442,-1.2485,-1.3555,-1.3861,0.0,0.0,0.0,0.0,0.0,0.0,0.0,0.0,0.0,0.0,0.0,0.0,0.0,0.0,0.0,0.0,0.0,0.0,0.0,0.0,0.0,0.0,0.0,0.0,0.0,0.0,0.0,0.0,0.0,0.0,0.0,0.0,0.0,0.0,0.0,0.0,0.0,0.0,0.0,0.0,-1.4824,-1.5146,-1.4967,0.0,0.0,0.0,0.0,0.0,0.0,-1.6502,-1.6272,0.0,0.0,0.0,0.0,0.0,0.0,0.0,0.0,0.0,0.0,0.0,0.0,0.0,0.0,0.0,0.0,0.0,0.0,0.0,0.0,0.0,0.0,0.0,0.0,0.0,0.0,0.0,0.0,0.0,0.0,0.0,0.0,0.0,0.0,0.0,0.0,0.0,0.0,0.0,0.0,0.0,0.0,0.0,0.0,0.0,0.0,0.0,0.0,0.0,0.0,0.0,0.0,0.0,0.0,0.0,-0.3268,-0.5159,-0.7046,-0.8921,-1.146,-1.3419,-1.473,-1.5043,-1.5109,0.0,0.0,0.0,0.0,0.0,0.0,0.0,0.0,0.0,0.0,0.0,0.0,0.0,0.0,0.0,0.0,0.0,0.0,0.0,0.0,0.0,0.0,0.0,0.0,0.0,0.0,0.0,0.0,0.0,0.0,0.0,0.0,0.0,0.0,0.0,0.0,0.0,0.0,0.0,0.0,0.0,-1.5436,-1.5768,-1.5694,0.0,0.0,0.0,0.0,-1.7013,-1.7615,0.0,0.0,0.0,0.0,0.0,0.0,0.0,0.0,0.0,0.0,0.0,0.0,0.0,0.0,0.0,0.0,0.0,0.0,0.0,0.0,0.0,0.0,0.0,0.0,0.0,0.0,0.0,0.0,0.0,0.0,0.0,0.0,0.0,0.0,0.0,0.0,0.0,0.0,0.0,0.0,0.0,0.0,0.0,0.0,0.0,0.0,0.0,0.0,0.0,0.0,0.0,0.0,0.0,0.0,0.0,0.0,-0.6372,-0.8304,-0.9888,-1.105,-1.3026,-1.4823,-1.6374,-1.7141,-1.7078,0.0,0.0,0.0,0.0,0.0,0.0,0.0,0.0,0.0,0.0,0.0,0.0,0.0,0.0,0.0,0.0,0.0,0.0,0.0,0.0,0.0,0.0,0.0,0.0,0.0,0.0,0.0,0.0,0.0,0.0,0.0,0.0,0.0,0.0,0.0,0.0,0.0,0.0,0.0,0.0,0.0,-1.6868,-1.7424,-1.6709,-1.6539,0.0,0.0,0.0,-1.8812,-1.7461,0.0,0.0,0.0,0.0,0.0,0.0,0.0,0.0,0.0,0.0,0.0,0.0,0.0,0.0,0.0,0.0,0.0,0.0,0.0,0.0,0.0,0.0,0.0,0.0,0.0,0.0,0.0,0.0,0.0,0.0,0.0,0.0,0.0,0.0,0.0,0.0,0.0,0.0,0.0,0.0,0.0,0.0,0.0,0.0,0.0,0.0,0.0,0.0,0.0,0.0,0.0,0.0,0.0,0.0,0.0,-0.7545,-0.7897,-0.9881,-1.158,-1.3013,-1.5343,-1.704,-1.8086,-1.83,-1.796,0.0,0.0,0.0,0.0,0.0,0.0,0.0,0.0,0.0,0.0,0.0,0.0,0.0,0.0,0.0,0.0,0.0,0.0,0.0,0.0,0.0,0.0,0.0,0.0,0.0,0.0,0.0,0.0,0.0,0.0,0.0,0.0,0.0,0.0,0.0,0.0,0.0,0.0,0.0,0.0,0.0,0.0,-1.766,-1.7638,0.0,0.0,0.0,-1.9309,-1.8973,0.0,0.0,0.0,0.0,0.0,0.0,0.0,0.0,0.0,0.0,0.0,0.0,0.0,0.0,0.0,0.0,0.0,0.0,0.0,0.0,0.0,0.0,0.0,0.0,0.0,0.0,0.0,0.0,0.0,0.0,0.0,0.0,0.0,0.0,0.0,0.0,0.0,0.0,0.0,0.0,0.0,0.0,0.0,0.0,0.0,0.0,0.0,0.0,0.0,0.0,0.0,0.0,0.0,0.0,0.0,0.0,0.0,-0.959,-1.1575,-1.3496,-1.531,-1.7646,-1.9276,-2.0068,-1.9765,0.0,0.0,0.0,0.0,0.0,0.0,0.0,0.0,0.0,0.0,0.0,0.0,0.0,0.0,0.0,0.0,0.0,0.0,0.0,0.0,0.0,0.0,0.0,0.0,0.0,0.0,0.0,-1.1515,0.0,0.0,0.0,0.0,0.0,0.0,0.0,0.0,0.0,0.0,0.0,0.0,0.0,0.0,-1.7256,-1.7779,-1.84,-1.8761,0.0,0.0,-2.1204,-1.9517,-2.0216,-2.0705,0.0,0.0,0.0,0.0,0.0,0.0,0.0,0.0,0.0,0.0,0.0,0.0,0.0,0.0,0.0,0.0,0.0,0.0,0.0,0.0,0.0,0.0,0.0,0.0,0.0,0.0,0.0,0.0,0.0,0.0,0.0,0.0,0.0,0.0,0.0,0.0,0.0,0.0,0.0,0.0,0.0,0.0,0.0,0.0,0.0,0.0,0.0,0.0,0.0,0.0,0.0,0.0,0.0,0.0,0.0,-1.2238,-1.4094,-1.6171,-1.8435,-1.9794,-2.1147,-2.2586,-2.21,-2.1177,0.0,0.0,0.0,0.0,0.0,0.0,0.0,0.0,0.0,0.0,0.0,0.0,0.0,0.0,0.0,0.0,0.0,0.0,0.0,0.0,0.0,0.0,0.0,0.0,0.0,0.0,0.0,0.0,0.0,0.0,0.0,0.0,0.0,0.0,0.0,0.0,0.0,0.0,0.0,0.0,0.0,-1.7779,-1.8198,-1.8871,-1.9515,0.0,0.0,-2.0881,-2.1145,-2.0492,-2.0194,-2.1097,0.0,0.0,0.0,0.0,0.0,0.0,0.0,0.0,0.0,0.0,0.0,0.0,0.0,0.0,0.0,0.0,0.0,0.0,0.0,0.0,0.0,0.0,0.0,0.0,0.0,0.0,0.0,0.0,0.0,0.0,0.0,0.0,0.0,0.0,0.0,0.0,0.0,0.0,0.0,0.0,0.0,0.0,0.0,0.0,0.0,0.0,0.0,0.0,0.0,0.0,0.0,0.0,0.0,-1.1458,-1.2387,-1.5482,-1.8208,-2.0452,-2.1521,-2.2735,-2.4089,-2.3484,-2.2679,0.0,0.0,0.0,0.0,0.0,0.0,0.0,0.0,0.0,0.0,0.0,0.0,0.0,0.0,0.0,0.0,0.0,0.0,0.0,0.0,0.0,0.0,0.0,0.0,0.0,0.0,0.0,0.0,-1.4109,-1.402,-1.305,0.0,0.0,0.0,0.0,0.0,0.0,0.0,0.0,0.0,0.0,-1.8294,-1.8338,-1.87,0.0,0.0,-2.0067,-2.0372,-2.1082,-2.097,-2.0822,-2.0947,-1.9031,0.0,0.0,0.0,0.0,0.0,0.0,0.0,0.0,0.0,0.0,0.0,0.0,0.0,0.0,0.0,0.0,0.0,0.0,0.0,0.0,0.0,0.0,0.0,0.0,0.0,0.0,0.0,0.0,0.0,0.0,0.0,0.0,0.0,0.0,0.0,0.0,0.0,0.0,0.0,0.0,0.0,0.0,0.0,0.0,0.0,0.0,0.0,0.0,0.0,0.0,0.0,0.0,-1.2124,-1.2855,-1.6725,-1.9905,-2.2295,-2.3204,-2.4115,-2.4997,-2.4582,-2.3955,0.0,0.0,0.0,0.0,0.0,0.0,0.0,0.0,0.0,0.0,0.0,0.0,0.0,0.0,0.0,0.0,0.0,0.0,0.0,0.0,0.0,0.0,0.0,0.0,0.0,0.0,0.0,0.0,-1.5201,-1.4891,-1.4006,0.0,0.0,0.0,0.0,0.0,0.0,0.0,0.0,0.0,0.0,-1.837,-1.8353,-1.8354,-1.8614,-1.9436,-1.9952,-2.0409,-2.0736,-2.0983,-2.0903,-2.0019,0.0,0.0,0.0,0.0,0.0,0.0,0.0,0.0,0.0,0.0,0.0,0.0,0.0,0.0,0.0,0.0,0.0,0.0,0.0,0.0,0.0,0.0,0.0,0.0,0.0,0.0,0.0,0.0,0.0,0.0,-0.5768,0.0,0.0,0.0,0.0,0.0,0.0,0.0,0.0,0.0,0.0,0.0,0.0,0.0,0.0,0.0,0.0,0.0,0.0,0.0,0.0,0.0,0.0,0.0,-1.4184,-1.8001,-2.1279,-2.3867,-2.4718,-2.5214,-2.541,-2.5497,-2.5108,-2.4096,0.0,0.0,0.0,0.0,0.0,0.0,0.0,0.0,0.0,0.0,0.0,0.0,0.0,0.0,0.0,0.0,0.0,0.0,0.0,0.0,0.0,0.0,0.0,0.0,0.0,0.0,-1.5758,-1.4366,-1.3837,0.0,0.0,0.0,0.0,0.0,0.0,0.0,0.0,0.0,0.0,-1.771,-1.8008,-1.8224,-1.7947,-1.8075,-1.8905,-2.0321,-2.1082,-2.0385,-2.0498,-2.0083,0.0,0.0,0.0,0.0,0.0,0.0,0.0,0.0,0.0,0.0,0.0,0.0,0.0,0.0,0.0,0.0,0.0,0.0,0.0,0.0,0.0,0.0,0.0,0.0,0.0,0.0,0.0,-1.5289,-1.2156,0.0,0.0,0.0,0.0,0.0,0.0,0.0,0.0,0.0,0.0,0.0,-1.6866,-1.8392,0.0,0.0,0.0,0.0,0.0,0.0,0.0,0.0,0.0,0.0,0.0,0.0,-1.4348,-1.523,-1.9409,-2.2899,-2.5376,-2.5607,-2.5907,-2.6385,-2.6126,-2.5595,-2.4662,0.0,0.0,0.0,0.0,0.0,0.0,0.0,0.0,0.0,0.0,0.0,0.0,0.0,0.0,0.0,0.0,0.0,0.0,0.0,0.0,0.0,0.0,0.0,0.0,0.0,-1.8658,0.0,0.0,0.0,0.0,0.0,0.0,0.0,0.0,0.0,0.0,0.0,-1.8247,-1.7675,-1.7981,-1.8008,-1.7413,-1.8085,-1.8725,0.0,0.0,0.0,0.0,0.0,0.0,0.0,0.0,0.0,0.0,0.0,0.0,0.0,0.0,-2.8339,-2.6042,-2.3659,-2.1815,-2.1165,0.0,0.0,0.0,0.0,0.0,0.0,0.0,0.0,0.0,0.0,0.0,0.0,0.0,0.0,-1.89,0.0,-1.5429,0.0,0.0,0.0,0.0,0.0,0.0,0.0,0.0,-1.7322,-1.8821,-2.0146,-2.1415,-2.1478,0.0,-2.1321,-2.0067,0.0,0.0,0.0,0.0,0.0,0.0,0.0,0.0,-1.6017,-1.7327,-2.0813,-2.3869,-2.616,-2.6115,-2.6257,-2.6722,-2.6578,-2.6084,-2.5326,-2.4742,-2.4052,0.0,0.0,0.0,0.0,0.0,0.0,0.0,0.0,0.0,0.0,0.0,0.0,0.0,0.0,0.0,0.0,0.0,0.0,0.0,0.0,0.0,0.0,0.0,-1.9148,0.0,0.0,0.0,0.0,0.0,0.0,0.0,0.0,0.0,-1.9525,-1.9303,-1.8975,-1.8105,-1.8152,-1.8036,-1.7392,0.0,0.0,0.0,0.0,0.0,0.0,0.0,-1.9516,-1.8348,-1.983,-2.2089,-2.4984,-2.5297,-2.5757,-2.7699,0.0,0.0,-2.885,-2.7674,-2.68,-2.5843,-2.7087,-2.787,-2.6632,-2.5588,-2.455,0.0,0.0,0.0,0.0,0.0,0.0,0.0,0.0,-2.3314,-2.1738,0.0,-1.9293,0.0,0.0,0.0,0.0,0.0,0.0,0.0,0.0,-2.1355,-2.3115,-2.3353,-2.3829,-2.403,-2.3948,-2.4484,-2.346,-2.0953,-1.867,0.0,0.0,0.0,0.0,0.0,0.0,-1.7552,-2.0377,-2.2182,-2.4195,-2.6386,-2.6293,-2.6291,-2.6485,-2.6792,-2.6664,-2.6079,-2.6468,-2.6179,-2.4995,-2.3404,0.0,0.0,0.0,0.0,0.0,0.0,0.0,0.0,0.0,0.0,0.0,0.0,0.0,0.0,0.0,0.0,0.0,0.0,0.0,0.0,-2.0259,0.0,0.0,0.0,0.0,0.0,0.0,0.0,0.0,0.0,0.0,-2.2979,-2.167,-2.0142,-1.864,0.0,0.0,0.0,0.0,-1.6918,-1.8808,-2.0245,-2.1187,-2.1149,-2.024,-1.9549,-1.9609,0.0,0.0,-2.3589,-2.5734,-2.7235,-2.7648,-2.9951,-3.1645,-3.0697,-3.1305,-3.1794,-3.1175,-2.9793,-2.8694,-2.842,-2.7048,-2.6286,-3.1435,0.0,0.0,0.0,0.0,-2.4701,-2.5362,-2.6619,-2.5794,-2.4791,-2.3732,-2.2695,0.0,0.0,0.0,0.0,0.0,0.0,-2.0004,-2.1395,-2.2441,-2.3438,-2.4365,-2.4414,-2.4469,-2.4524,-2.4511,-2.4076,-2.3259,-2.1687,-1.9371,-1.6423,0.0,0.0,0.0,0.0,-1.9486,-2.0517,-2.3058,-2.5027,-2.626,-2.6239,-2.6258,-2.6435,-2.6606,-2.6773,-2.6913,-2.7262,-2.7108,-2.6458,-2.6572,0.0,0.0,0.0,0.0,0.0,0.0,0.0,0.0,0.0,0.0,0.0,0.0,0.0,0.0,0.0,0.0,0.0,0.0,0.0,-2.3971,-2.3513,-2.2544,0.0,0.0,0.0,0.0,0.0,0.0,0.0,0.0,0.0,-2.4486,-2.1834,-1.9481,0.0,0.0,-1.7502,-1.6738,-1.6951,-1.746,-1.8322,0.0,0.0,0.0,-2.0427,-1.8949,-1.7877,-1.9007,-2.0683,-2.2722,-2.536,-2.7225,-2.7211,-2.8938,-3.0629,-3.1472,-3.1932,-3.2318,-3.2332,-3.2204,-3.1147,-2.8792,-2.8154,-2.8281,-3.5467,-3.1579,-2.8613,-2.724,-2.6988,-2.6467,-2.69,-2.7833,-2.72,-2.6686,-2.6139,-2.5191,-2.3406,-2.1039,-1.9862,0.0,0.0,0.0,-2.1733,-2.3142,-2.3575,-2.4198,-2.495,-2.4886,-2.4751,-2.4742,-2.4508,-2.4219,-2.3867,-2.3093,-2.1374,-1.8838,0.0,0.0,-1.7631,-1.9701,-2.1147,-2.182,-2.3869,-2.5388,-2.6293,-2.6364,-2.64,-2.6418,-2.6404,-2.673,-2.7382,-2.7327,-2.7374,-2.7575,-2.7996,-2.7474,0.0,0.0,0.0,0.0,0.0,0.0,0.0,0.0,0.0,0.0,0.0,-1.6151,0.0,0.0,0.0,0.0,-1.7047,-2.0483,-2.6561,-2.6064,0.0,0.0,0.0,0.0,0.0,0.0,0.0,-2.2456,-2.4624,-2.6002,-2.5701,-2.3083,-2.0526,-1.8555,-1.8288,-1.7989,-1.7183,0.0,-1.7616,-1.8356,-1.9458,-2.042,-2.1019,-1.955,-1.7881,-1.6751,-1.7901,-1.975,-2.1944,-2.4366,-2.605,-2.6795,-2.8395,-3.0861,-3.4066,-3.3657,-3.2848,-3.316,-3.3327,-3.2534,-3.0231,-2.9515,-2.8958,-3.9239,-3.7317,-3.2491,-3.0262,-2.9797,-2.8521,-2.7973,-2.7947,-2.779,-2.7513,-2.7175,-2.6872,-2.5453,-2.3278,-2.1191,0.0,0.0,-2.2416,-2.3233,-2.3725,-2.476,-2.5258,-2.5294,-2.5249,-2.4997,-2.4655,-2.463,-2.4204,-2.3451,-2.3348,-2.2893,-2.2033,-2.1131,-2.0707,-2.0743,-2.1544,-2.2575,-2.3785,-2.4558,-2.5456,-2.6399,-2.6572,-2.6573,-2.6318,-2.6173,-2.6511,-2.7372,-2.6915,-2.7166,-2.8258,-2.8156,-2.8237,-2.8591,0.0,0.0,0.0,0.0,0.0,0.0,0.0,0.0,0.0,0.0,0.0,0.0,0.0,0.0,0.0,-2.1689,0.0,-2.7884,-2.8046,0.0,0.0,0.0,-2.5038,-2.4102,-2.2965,-2.2602,-2.3449,0.0,0.0,0.0,0.0,-2.2631,-1.9878,-1.9382,-1.9133,-1.8701,-1.7873,-1.7605,-1.8527,-1.9166,-1.9473,-1.9507,-1.781,-1.636,-1.6185,-1.698,-1.869,-2.1023,-2.2881,-2.4379,-2.5938,-2.821,-3.1561,-3.7374,-3.5563,-3.3662,-3.3954,-3.3796,-3.3373,-3.2641,-3.0821,-2.9123,-4.1252,-4.0518,-3.7359,-3.4341,-3.1453,-3.0223,-2.9515,-2.9123,-2.7966,-2.7557,-2.7823,-2.7171,-2.6095,-2.4737,-2.3854,-2.3271,-2.2997,-2.4447,-2.4759,-2.4261,-2.5811,-2.6116,-2.5342,-2.5901,-2.583,-2.5217,-2.4895,-2.4549,-2.4177,-2.3581,-2.3245,-2.3098,-2.2687,-2.2215,-2.1645,-2.2901,-2.3713,-2.4019,-2.4952,-2.5575,-2.5885,-2.6082,-2.6012,-2.5631,-2.5741,-2.5902,-2.6144,-2.602,-2.6222,-2.6881,-2.7997,-2.8676,-2.8742,-2.5685,0.0,0.0,0.0,0.0,0.0,0.0,0.0,0.0,0.0,-2.2766,-1.8633,0.0,-2.6015,0.0,-2.4723,-2.7375,-3.0671,-2.9804,0.0,0.0,-2.8164,-2.6715,-2.6047,-2.4079,-2.3083,-2.3856,-2.3322,-2.352,-2.5218,-2.4773,-2.4039,-2.3251,-2.13,-1.9704,-1.9163,-1.8723,-1.833,-1.8155,-1.8446,-1.8674,-1.8225,-1.5652,-1.4216,-1.5722,-1.6985,-1.8361,-2.0051,-2.1721,-2.3387,-2.5183,-2.8338,-3.1936,-3.5661,-3.5607,-3.5333,-3.549,-3.6031,-3.5919,-3.4077,-3.2439,-3.1113,-4.2233,-4.1627,-3.9929,-3.7353,-3.415,-3.202,-3.0742,-2.99,-2.8745,-2.8279,-2.8438,-2.7453,-2.6462,-2.5477,-2.501,-2.4581,-2.4306,-2.5198,-2.541,-2.5068,-2.6287,-2.6509,-2.5892,-2.6301,-2.6069,-2.5355,-2.5107,-2.4735,-2.4193,-2.3711,-2.3511,-2.3658,-2.3363,-2.3141,-2.3038,-2.3717,-2.4163,-2.4342,-2.5109,-2.5642,-2.5811,-2.6066,-2.6114,-2.5966,-2.589,-2.607,-2.6559,-2.6366,-2.6458,-2.6962,-2.7559,-2.804,-2.8352,-2.685,-2.5576,0.0,0.0,0.0,0.0,0.0,0.0,0.0,0.0,0.0,0.0,0.0,-3.2162,0.0,-2.8596,0.0,-3.2189,-3.1856,-3.1763,-3.2335,-3.1022,-2.935,-2.741,-2.4963,-2.3437,-2.3432,-2.2794,-2.28,-2.3951,-2.5026,-2.572,-2.5705,-2.3622,-2.1679,-2.0726,-2.0268,-1.9816,-1.9041,-1.855,-1.8017,-1.7094,-1.4571,-1.3485,-1.5664,-1.7346,-1.8779,-2.0085,-2.0729,-2.2028,-2.513,-2.8613,-3.2046,-3.4987,-3.5652,-3.5897,-3.6906,-3.8277,-3.8183,-3.5596,-3.3559,-3.2004,-4.2583,-4.1754,-4.1105,-3.9519,-3.7113,-3.4052,-3.1896,-3.0527,-2.9778,-2.9275,-2.8938,-2.779,-2.6775,-2.5829,-2.5455,-2.5216,-2.5159,-2.5371,-2.5664,-2.5954,-2.6594,-2.6808,-2.6663,-2.676,-2.631,-2.5493,-2.5438,-2.4909,-2.3909,-2.3724,-2.3718,-2.3856,-2.351,-2.3615,-2.4207,-2.4055,-2.4162,-2.4599,-2.5107,-2.5492,-2.5864,-2.6156,-2.6368,-2.6455,-2.6156,-2.6442,-2.7408,-2.712,-2.7166,-2.7647,-2.7138,-2.7182,-2.8009,-2.8385,-2.7659,0.0,-2.564,0.0,0.0,0.0,0.0,0.0,0.0,0.0,0.0,-3.3373,-3.4856,-3.4264,-3.2511,-3.2039,-3.3537,-3.42,-3.4452,-3.436,-3.3742,-3.1941,-2.8467,-2.5715,-2.3797,-2.2873,-2.2706,-2.2692,-2.3016,-2.5297,-2.6982,-2.7019,-2.5845,-2.442,-2.3149,-2.2262,-2.1357,-2.0631,-1.9102,-1.7584,-1.6345,-1.4599,-1.41,-1.6071,-1.8317,-1.9849,-2.0859,-2.0288,-2.1042,-2.5263,-2.9198,-3.2697,-3.5587,-3.5828,-3.6233,-3.7964,-3.9957,-4.0176,-3.693,-3.4472,-3.2689,-4.3279,-4.2372,-4.147,-4.0167,-3.8597,-3.6503,-3.4004,-3.1309,-3.0712,-2.9857,-2.8944,-2.8257,-2.7379,-2.6544,-2.6381,-2.5972,-2.5288,-2.6064,-2.6323,-2.6188,-2.742,-2.7671,-2.7153,-2.7943,-2.7623,-2.6294,-2.6166,-2.5568,-2.4605,-2.4151,-2.39,-2.3804,-2.3466,-2.3378,-2.3482,0.0,0.0,0.0,-2.4766,-2.5005,-2.5201,-2.5626,-2.5697,-2.543,-2.569,0.0,-2.6153,-2.6752,-2.7278,-2.7732,-2.7571,0.0,0.0,0.0,0.0,0.0,0.0,0.0,0.0,0.0,0.0,0.0,-3.2718,-3.1435,-3.2895,-3.4989,-3.5653,-3.4364,-3.48,-3.5982,-3.7716,-3.6827,-3.5477,-3.3887,-3.3621,-3.2429,-2.9623,-2.667,-2.4508,-2.3797,-2.3231,-2.2843,-2.3035,-2.4646,-2.6296,-2.7324,-2.7176,-2.6857,-2.6456,-2.4262,-2.2417,-2.1504,-1.9529,-1.7713,-1.7731,-1.6663,-1.5864,-1.6816,-2.0006,-2.2134,-2.1823,-2.1355,-2.1775,-2.4836,-3.0091,-3.4743,-3.6809,-3.6471,-3.6638,-3.9082,-4.0642,-4.0438,-3.658,-3.546,-3.4942,-4.316,0.0,-4.17,-4.0771,0.0,-3.8349,-3.6234,-3.3725,-3.2535,-3.112,-2.967,-2.8921,-2.7968,-2.6854,-2.684,-2.6556,-2.6131,-2.6948,-2.7381,-2.7445,-2.8349,-2.8448,-2.7899,-2.8255,-2.7742,-2.6556,-2.6275,-2.5721,-2.4963,-2.4304,-2.3882,-2.3625,-2.3407,-2.3319,-2.3407,-2.3668,-2.4009,-2.44,-2.4605,-2.4831,-2.5091,-2.5513,-2.5704,-2.578,0.0,0.0,0.0,0.0,0.0,0.0,0.0,0.0,0.0,0.0,0.0,-2.9286,-2.9728,-3.0562,-3.1719,-3.3552,-3.5853,-3.8556,-3.745,-3.6526,-3.6389,-3.6389,-3.625,-3.5921,-3.6509,-3.7419,-3.8678,-3.7821,-3.6775,-3.5891,-3.4377,-3.2567,-3.0636,-2.8673,-2.6878,-2.5435,-2.4116,-2.3231,-2.3231,-2.4731,-2.6236,-2.7365,-2.7727,-2.7777,-2.7585,-2.6273,-2.4926,-2.3966,-2.1773,-2.0122,-2.0011,-1.878,-1.8072,-1.8897,-2.2075,-2.4156,-2.3681,-2.3047,-2.3257,-2.5235,-3.0784,-3.6003,-3.7509,-3.7288,-3.7343,-3.9224,-4.0324,-4.0246,-3.7942,-3.6608,-3.5518,-4.3212,-4.2728,-4.21,-4.132,-4.0499,-3.9536,-3.8007,-3.6047,0.0,0.0,0.0,-2.9668,-2.8461,-2.7145,-2.7322,-2.7268,-2.7114,-2.7713,-2.831,-2.8795,-2.9064,-2.8981,-2.8649,-2.8373,-2.7746,-2.6756,-2.6428,-2.5878,-2.5098,-2.445,-2.3917,-2.3553,-2.3407,-2.3363,-2.3553,-2.3797,-2.4067,-2.4302,-2.4523,-2.4735,-2.5075,-2.5627,-2.6065,-2.6532,-2.7604,-2.8492,-2.9232,-3.0251,-3.0701,-3.0577,-3.1657,-3.1737,-3.0649,-3.1356,-3.1678,-3.1498,-3.2928,-3.4127,-3.476,-3.7807,-3.9894,-4.039,-4.0785,-4.0429,-3.9156,-3.7598,-3.6911,-3.7542,-3.7537,-3.7845,-3.8523,-3.8102,-3.7802,-3.7856,-3.5512,-3.3381,-3.1807,-3.0551,-2.9074,-2.735,-2.5647,-2.4264,-2.3988,-2.5483,-2.6808,-2.7629,-2.8092,-2.8218,-2.8137,-2.7812,-2.7115,-2.6157,-2.4639,-2.3461,-2.2523,-2.2018,-2.1173,-2.2028,-2.4879,-2.6814,-2.6535,-2.5631,-2.5389,-2.6563,-3.2076,-3.6345,-3.8339,-3.8185,-3.821,-3.9559,-3.9968,-4.002,-3.9563,-3.7917,-3.6144,-4.5124,-4.4255,-4.2824,-4.171,-4.0958,-3.9661,-3.81,-3.6307,-3.3775,-3.1939,-3.08,-2.9997,-2.8925,-2.7741,-2.8164,-2.8163,-2.7749,-2.8228,-2.8733,0.0,-2.9119,-2.8958,-2.886,-2.9169,-2.8572,-2.7304,-2.7363,-2.6725,-2.5367,-2.4878,-2.4369,-2.3756,-2.3451,-2.3407,-2.3566,-2.3638,-2.3909,-2.4441,-2.4498,-2.4564,-2.4726,-2.5933,-2.6706,-2.7118,-2.8169,-2.933,-3.0472,-3.1428,-3.2299,-3.2964,-3.3723,-3.3741,-3.2967,-3.2897,-3.309,-3.333,-3.3997,-3.5137,-3.6813,-3.8562,-4.0268,-4.1869,-4.2128,-4.1213,-3.8983,-3.8376,-3.7965,-3.7667,-3.7839,-3.8059,-3.8256,-3.8323,-3.7776,-3.6522,-3.6772,-3.6077,-3.3413,-3.1338,-2.9802,-2.9061,-2.8327,-2.6826,-2.5488,-2.686,-2.8249,-2.8541,-2.8627,-2.8806,-2.9068,-2.8642,-2.794,-2.7461,-2.7137,-2.6096,-2.4872,-2.6259,-2.6845,-2.6262,-2.8396,-3.0329,-3.0754,-2.9412,-2.8808,-3.0167,-3.4151,-3.7455,-3.9408,-3.9054,-3.9098,-4.017,-4.0248,-3.9918,-3.9713,-3.8989,-3.812,-4.501,-4.449,-4.2997,-4.2124,-4.1625,-3.9828,-3.8262,-3.6804,-3.4794,-3.3172,-3.1823,-3.0722,-2.9566,-2.8612,-2.8725,-2.8609,-2.8344,-2.9321,-2.9605,-2.9336,-2.9784,-2.9832,-2.9446,-2.9569,-2.9006,-2.7931,-2.7753,-2.69,-2.544,-2.4822,-2.4224,-2.3568,-2.348,-2.3436,-2.3436,-2.3754,-2.4051,-2.4261,-2.4467,-2.4686,-2.4886,-2.6069,-2.6869,-2.7247,-2.8669,-3.0077,-3.1358,-3.2247,-3.3104,-3.4021,-3.4224,-3.401,-3.3295,-3.306,-3.3152,-3.3565,-3.4383,-3.5521,-3.7089,-3.9227,-4.1361,-4.3276,-4.2625,-4.1734,-4.0764,-3.9532,-3.8592,-3.8005,-3.8018,-3.8267,-3.8634,-3.8528,-3.7954,-3.6845,-3.7109,-3.6352,-3.4245,-3.2974,-3.1575,-2.999,-2.8951,-2.8093,-2.7356,-2.7727,-2.8334,-2.8826,-2.9162,-2.9537,-3.0093,-2.9682,-2.9173,-2.8955,-2.9104,-2.8803,-2.782,-2.9654,-3.1085,-3.1232,-3.2354,-3.2961,-3.2844,-3.1674,-3.1719,-3.2276,-3.5073,-3.7686,-3.953,-3.9645,-3.9659,-3.9598,-3.954,-3.9292,-3.9504,-3.9237,-3.8204,-4.5357,-4.5117,-4.3343,-4.2338,-4.1824,-4.0122,-3.8649,-3.7375,-3.6192,-3.4631,-3.2855,-3.135,-3.0173,-2.9378,-2.9177,-2.895,-2.894,-3.0269,-3.0411,-2.9715,-3.0513,-3.0601,-3.0089,-2.9837,-2.9301,-2.8449,-2.8008,-2.7081,-2.5726,-2.4919,-2.4056,-2.3275,-2.3496,-2.3526,-2.3334,-2.3919,-2.4219,-2.4219,-2.4467,-2.4829,-2.5306,-2.6373,-2.7218,-2.7881,-2.9504,-3.0985,-3.2248,-3.3128,-3.3965,-3.4619,-3.4685,-3.4306,-3.3549,-3.3396,-3.3532,-3.4007,-3.4888,-3.6128,-3.7733,-3.9973,-4.2174,-4.4034,-4.2864,-4.2045,-4.1961,-4.0641,-3.9229,-3.8375,-3.8138,-3.8542,-3.9438,-3.9252,-3.864,-3.7954,-3.7203,-3.6238,-3.4739,-3.4366,-3.3498,-3.116,-2.9501,-2.8716,-2.884,-2.8439,-2.8355,-2.9058,-2.9531,-2.9939,-3.0247,-3.025,-3.0308,-3.0219,-3.0585,-3.07,-3.0684,-3.1902,-3.3422,-3.4835,-3.5065,-3.471,-3.4063,-3.4002,-3.4119,-3.4401,-3.5909,-3.7899,-3.9323,-3.9782,-3.9732,-3.9418,-3.8914,-3.8711,-3.9156,-3.9016,-3.8187,-4.7322,-4.6733,-4.44,-4.2467,-4.09,-4.0416,-3.9435,-3.8158,-3.752,-3.5948,-3.3738,-3.1516,-3.0347,-2.9754,-2.9654,-2.9369,-2.905,-3.0497,-3.0842,-3.0437,-3.0828,-3.0859,-3.0616,-3.0219,-2.9444,-2.8515,-2.833,-2.7586,-2.6355,-2.5349,-2.4109,-2.2908,-2.3453,-2.3683,-2.3408,-2.406,-2.4458,-2.4564,-2.4523,-2.4983,-2.5907,-2.7146,-2.8286,-2.9376,-3.0931,-3.2343,-3.343,-3.4566,-3.5194,-3.5346,-3.5736,-3.5582,-3.4755,-3.4751,-3.5026,-3.5411,-3.611,-3.7562,-3.9823,-4.0963,-4.2122,-4.3517,-4.2886,-4.2149,-4.177,-4.1345,-4.029,-3.8847,-3.8282,-3.9209,-4.1007,-4.107,-4.0352,-3.905,-3.7754,-3.6347,-3.556,-3.5069,-3.4502,-3.3822,-3.1022,-2.906,-2.9452,-2.9592,-2.9613,-2.9555,-2.9765,-2.9863,-2.9925,-3.0338,-3.0613,-3.0373,-3.111,-3.1596,-3.1165,-3.2118,-3.3799,-3.5148,-3.5383,-3.5518,-3.5807,-3.6155,-3.6436,-3.6771,-3.776,-3.8731,-3.9073,-3.9487,-3.9609,-3.9222,-3.8788,-3.8455,-3.857,-3.8793,-3.8569,-4.69,-4.7088,-4.482,-4.2668,-4.1,-4.0773,-4.0111,-3.8964,-3.8073,-3.6626,-3.4769,-3.2652,-3.1393,-3.0816,-3.0557,-3.0237,-3.0064,-3.1168,-3.1199,-3.0462,-3.109,-3.1117,-3.0671,-3.0499,-2.9796,-2.8788,-2.87,-2.783,-2.6267,-2.497,-2.3677,-2.2726,-2.3525,-2.3946,-2.3878,-2.476,-2.5409,-2.5589,-2.5648,-2.6205,-2.7158,-2.7655,-2.8608,-3.0005,-3.1258,-3.2503,-3.3627,-3.4196,-3.4559,-3.4866,-3.5366,-3.5169,-3.4034,-3.4364,-3.4667,-3.488,-3.6446,-3.8201,-3.9924,-4.0745,-4.169,-4.2959,-4.2458,-4.2044,-4.2019,-4.1943,-4.1479,-4.0791,-4.02,-4.1126,-4.3892,-4.4125,-4.303,-4.098,-3.9483,-3.82,-3.67,-3.6133,-3.5486,-3.4578,-3.2714,-3.1552,-3.1854,-3.1623,-3.1323,-3.1078,-3.1086,-3.1074,-3.1099,-3.1019,-3.0708,-3.0586,-3.0974,-3.1555,-3.2014,-3.3335,-3.4431,-3.5024,-3.5367,-3.584,-3.684,-3.7326,-3.7653,-3.8602,-3.903,-3.9259,-3.9172,-3.9115,-3.9131,-3.8914,-3.8711,-3.8375,-3.8278,-3.859,-3.8397,-4.6615,-4.6815,-4.511,-4.3098,-4.1213,-4.1369,-4.0816,-3.9564,-3.8533,-3.7245,-3.5708,-3.3813,-3.267,-3.1992,-3.1148,-3.0737,-3.0836,-3.1581,-3.151,-3.0765,-3.1433,-3.1496,-3.104,-3.0826,-3.0119,-2.9066,-2.8791,-2.7773,-2.5945,-2.497,-2.3937,-2.3255,-2.3999,-2.4455,-2.4476,-2.5446,-2.6045,-2.6198,-2.6334,-2.6943,-2.7892,-2.8196,-2.8997,-3.0488,-3.1434,-3.2514,-3.3677,-3.4164,-3.4431,-3.4577,-3.5091,-3.4862,-3.3728,-3.3955,-3.4219,-3.4514,-3.6576,-3.8265,-3.9118,-4.0211,-4.1255,-4.2062,-4.18,-4.1747,-4.2157,-4.2132,-4.2235,-4.2508,-4.1978,-4.3073,-4.645,-4.6834,-4.5407,-4.2758,-4.1487,-4.0075,-3.8041,-3.738,-3.6561,-3.4769,-3.4051,-3.4132,-3.4651,-3.4235,-3.3529,-3.2684,-3.2515,-3.241,-3.2183,-3.147,-3.0927,-3.0834,-3.048,-3.1001,-3.2867,-3.4284,-3.493,-3.5211,-3.5487,-3.611,-3.7035,-3.7524,-3.8238,-3.894,-3.948,-3.9644,-3.9312,-3.9061,-3.8766,-3.8711,-3.8511,-3.8221,-3.7887,-3.8105,-3.791,-4.718,-4.6506,-4.5577,-4.3862,-4.176,-4.2336,-4.1637,-4.0165,-3.9102,-3.7703,-3.6273,-3.504,-3.4144,-3.3339,-3.1461,-3.0563,-3.0791,-3.1402,-3.1703,-3.1654,-3.1902,-3.203,-3.2091,-3.155,-3.045,-2.8995,-2.8666,-2.7461,-2.5586,-2.5604,-2.5286,-2.4476,-2.5085,-2.5307,-2.5112,-2.5791,-2.6195,-2.6229,-2.6245,-2.6748,-2.7886,-2.8756,-2.9723,-3.0843,-3.1802,-3.2692,-3.3594,-3.5043,-3.554,-3.486,-3.5288,-3.5117,-3.4218,-3.3852,-3.4134,-3.4994,-3.6844,-3.782,-3.7833,-3.9571,-4.0967,-4.1196,-4.1051,-4.106,-4.1752,-4.1729,-4.2078,-4.3266,-4.3196,-4.4711,-4.7844,-4.8199,-4.7003,-4.4336,-4.3215,-4.1565,-3.9084,-3.9159,-3.7501,-3.4951,-3.5263,-3.6248,-3.6828,-3.6919,-3.5663,-3.4149,-3.3306,-3.3016,-3.2383,-3.1688,-3.1328,-3.0945,-3.048,-3.0196,-3.2736,-3.4267,-3.5178,-3.5226,-3.5249,-3.6335,-3.6835,-3.743,-3.8334,-3.9238,-3.9778,-3.9868,-3.9454,-3.9061,-3.8711,-3.8479,-3.8323,-3.8007,-3.7502,-3.7481,-3.7237,-4.665,-4.6207,-4.5678,-4.4687,-4.351,-4.3785,-4.3193,-4.1904,-4.0869,-3.9257,-3.7261,-3.5816,-3.459,-3.3535,-3.2529,-3.1898,-3.1598,-3.1736,-3.1771,-3.1819,-3.1958,-3.1917,-3.1616,-3.128,-3.0405,-2.9174,-2.8684,-2.7406,-2.5635,-2.5589,-2.5272,-2.4719,-2.5148,-2.551,-2.5754,-2.6337,-2.6846,-2.7161,-2.7213,-2.7479,-2.809,-2.9012,-2.9861,-3.0602,-3.187,-3.2981,-3.3902,-3.4397,-3.4596,-3.456,-3.5043,-3.5105,-3.4623,-3.4336,-3.4298,-3.4661,-3.6224,-3.7347,-3.7823,-3.9378,-4.0659,-4.1146,-4.1146,-4.0493,-3.9929,-4.1099,-4.2555,-4.3287,-4.5296,-4.7111,-4.7771,-4.8249,-4.7545,-4.5888,-4.4689,-4.3236,-4.1422,-4.0675,-3.9373,-3.6972,-3.7076,-3.7728,-3.7855,-3.8266,-3.7696,-3.6075,-3.5481,-3.4937,-3.4136,-3.3233,-3.2396,-3.213,-3.2173,-3.1854,-3.0275,-3.3015,-3.4551,-3.4329,-3.4535,-3.6173,-3.7131,-3.6866,-3.7482,-3.8819,-3.9615,-3.988,-3.9345,-3.887,-3.8518,-3.7994,-3.7842,-3.7171,-3.7145,-3.7006,-3.6745,-4.6022,-4.5764,-4.5624,-4.4984,-4.427,-4.4423,-4.4005,-4.3058,-4.1829,-4.0221,-3.8464,-3.6839,-3.5534,-3.4686,-3.394,-3.3394,-3.2851,-3.2386,-3.2069,-3.2081,-3.2194,-3.1965,-3.1525,-3.134,-3.0568,-2.9299,-2.8627,-2.7523,-2.6115,-2.6088,-2.5759,-2.5155,-2.5512,-2.5854,-2.6236,-2.6703,-2.7181,-2.7539,-2.769,-2.7916,-2.8354,-2.9215,-2.9976,-3.0668,-3.1924,-3.3027,-3.3912,-3.3954,-3.4191,-3.4618,-3.4973,-3.4957,-3.4651,-3.4422,-3.426,-3.4346,-3.5489,-3.6455,-3.7198,-3.8638,-3.9876,-4.052,-4.0523,-3.9894,-3.9269,-4.0957,-4.2212,-4.3469,-4.5532,-4.7435,-4.7802,-4.7788,-4.7428,-4.6789,-4.5879,-4.4652,-4.3322,-4.2416,-4.1063,-3.9269,-3.844,-3.8391,-3.8448,-3.875,-3.829,-3.7258,-3.695,-3.6555,-3.5578,-3.4449,-3.3503,-3.3252,-3.359,-3.2981,-3.1678,-3.2546,-3.3188,-3.294,-3.3753,-3.5553,-3.6728,-3.6481,-3.6856,-3.8217,-3.895,-3.932,-3.9211,-3.8727,-3.8149,-3.7478,-3.643,-3.5633,-3.5904,-3.6403,-3.6179,-4.5319,-4.5319,-4.5289,-4.4885,-4.4273,-4.4288,-4.4027,-4.3549,-4.1845,-4.0764,-3.9869,-3.8114,-3.7043,-3.6633,-3.5382,-3.4708,-3.4149,-3.3225,-3.2719,-3.2687,-3.2519,-3.2222,-3.196,-3.1832,-3.0897,-2.9375,-2.8584,-2.7783,-2.7003,-2.7042,-2.6783,-2.6343,-2.6172,-2.6265,-2.6481,-2.6683,-2.6922,-2.7248,-2.7533,-2.7919,-2.8532,-2.9456,-3.0258,-3.0885,-3.2034,-3.2877,-3.3449,-3.3931,-3.4469,-3.5019,-3.5017,-3.4744,-3.427,-3.3975,-3.388,-3.3944,-3.4611,-3.5188,-3.5794,-3.7284,-3.8586,-3.9465,-3.912,-3.98,-4.1007,-4.1115,-4.1542,-4.3267,-4.4876,-4.6236,-4.7373,-4.7338,-4.7169,-4.7284,-4.6471,-4.5658,-4.5147,-4.4215,-4.2982,-4.1341,-3.9606,-3.8464,-3.8391,-3.8448,-3.8196,-3.7806,-3.7442,-3.7028,-3.6166,-3.5236,-3.4539,-3.4329,-3.423,-3.3564,-3.2773,-3.2089,-3.1757,-3.1679,-3.2943,-3.4432,-3.5549,-3.5797,-3.6319,-3.7415,-3.7533,-3.7916,-3.9446,-3.8887,-3.7791,-3.6925,-3.5542,-3.4507,-3.5003,-3.5498,-3.5628,-4.5667,-4.544,-4.5221,-4.5233,-4.5342,-4.5526,-4.5441,-4.5169,-4.3793,-4.2473,-4.1022,-3.9072,-3.7812,-3.7083,-3.6099,-3.5287,-3.4736,-3.4421,-3.3908,-3.3202,-3.2767,-3.2584,-3.2454,-3.2023,-3.0934,-2.9425,-2.8644,-2.8116,-2.7726,-2.7343,-2.6974,-2.672,-2.6392,-2.6408,-2.6688,-2.6553,-2.6712,-2.724,-2.7728,-2.8054,-2.8213,-2.9491,-3.0425,-3.0865,-3.1753,-3.269,-3.3722,-3.4038,-3.455,-3.5179,-3.5016,-3.4588,-3.3863,-3.3832,-3.3575,-3.2962,-3.3646,-3.4705,-3.5768,-3.6662,-3.802,-3.9514,-3.9507,-3.9643,-4.0691,-4.1587,-4.2359,-4.3466,-4.4784,-4.6121,-4.7053,-4.716,-4.7088,-4.716,-4.6507,-4.5903,-4.5355,-4.4013,-4.2423,-4.0962,-3.9408,-3.8407,-3.8212,-3.8302,-3.8431,-3.8402,-3.8091,-3.7502,-3.6927,-3.6701,-3.6323,-3.5387,-3.484,-3.4145,-3.337,-3.2966,-3.2734,-3.2174,-3.2781,-3.3068,-3.4056,-3.5131,-3.5727,-3.6203,-3.6311,-3.707,-3.8621,-3.882,-3.7705,-3.6287,-3.4903,-3.448,-3.448,-3.4543,-3.4695,-4.5727,-4.547,-4.4839,-4.5057,-4.5695,-4.5597,-4.568,-4.5783,-4.4783,-4.3544,-4.2111,-4.0353,-3.8901,-3.7931,-3.6976,-3.6077,-3.5377,-3.5228,-3.4754,-3.412,-3.3321,-3.2989,-3.2815,-3.1931,-3.1062,-2.9979,-2.9308,-2.881,-2.8335,-2.801,-2.7684,-2.7343,-2.7045,-2.6871,-2.6942,-2.6791,-2.6866,-2.6948,-2.7603,-2.8169,-2.8557,-2.9388,-3.0265,-3.1054,-3.1787,-3.2761,-3.3903,-3.4312,-3.4703,-3.5073,-3.5082,-3.4792,-3.4547,-3.4134,-3.3471,-3.3054,-3.3106,-3.3959,-3.5534,-3.5967,-3.7386,-3.962,-3.9296,-3.9417,-4.058,-4.2003,-4.2394,-4.3324,-4.4691,-4.6081,-4.6985,-4.7098,-4.6998,-4.6934,-4.6381,-4.5664,-4.4921,-4.3514,-4.2434,-4.1391,-4.0594,-3.9957,-3.9769,-3.8774,-3.8798,-3.8826,-3.846,-3.7816,-3.7445,-3.7345,-3.6546,-3.6006,-3.5864,-3.5048,-3.4092,-3.3811,-3.3773,-3.3211,-3.2778,-3.2434,-3.2561,-3.3635,-3.4456,-3.5059,-3.5326,-3.6059,-3.7469,-3.8014,-3.7419,-3.5909,-3.4546,-3.448,-3.4382,-3.376,-3.3723,-4.5603,-4.5137,-4.4339,-4.4552,-4.5133,-4.4519,-4.491,-4.5713,-4.4809,-4.3991,-4.3045,-4.1593,-4.0334,-3.915,-3.7955,-3.7063,-3.6355,-3.5614,-3.5376,-3.5161,-3.4349,-3.3564,-3.2911,-3.2119,-3.1516,-3.1031,-3.044,-2.9793,-2.9174,-2.9023,-2.881,-2.8052,-2.7982,-2.7826,-2.7356,-2.7437,-2.7219,-2.6737,-2.7483,-2.8461,-2.9131,-2.9377,-3.0127,-3.1435,-3.2106,-3.2902,-3.4,-3.4646,-3.5037,-3.5207,-3.5207,-3.5406,-3.5768,-3.4547,-3.3486,-3.3382,-3.2791,-3.3588,-3.4881,-3.5214,-3.6721,-3.9778,-3.8912,-3.8797,-4.1586,-4.2027,-4.2204,-4.2956,-4.4522,-4.6041,-4.6949,-4.7116,-4.6952,-4.6702,-4.6253,-4.5269,-4.3534,-4.2697,-4.2089,-4.2359,-4.2569,-4.2474,-4.2007,-4.0356,-3.9312,-3.8883,-3.8338,-3.7513,-3.7095,-3.6801,-3.623,-3.6104,-3.6079,-3.5959,-3.496,-3.3487,-3.3398,-3.3224,-3.2519,-3.1573,-3.137,-3.2361,-3.3516,-3.4059,-3.4418,-3.5224,-3.6067,-3.6743,-3.6787,-3.5666,-3.4899,-3.4643,-3.4129,-3.3473,-3.3222,-4.4757,-4.4526,-4.4126,-4.4273,-4.4724,-4.4682,-4.5076,-4.5565,-4.4911,-4.4302,-4.3694,-4.2261,-4.0967,-3.9838,-3.8917,-3.7912,-3.695,-3.669,-3.6132,-3.5568,-3.5317,-3.4341,-3.3398,-3.3122,-3.2722,-3.2066,-3.1349,-3.0821,-3.0468,-2.9743,-2.9095,-2.8542,-2.8381,-2.8168,-2.7983,-2.8251,-2.8006,-2.7636,-2.8749,-2.9173,-2.9029,-2.9691,-3.0639,-3.1725,-3.2062,-3.297,-3.4339,-3.5059,-3.5547,-3.5852,-3.5466,-3.5207,-3.5377,-3.4193,-3.3242,-3.2736,-3.2342,-3.2957,-3.4675,-3.4686,-3.6207,-3.9709,-3.9009,-3.9495,-4.2068,-4.3333,-4.3444,-4.3493,-4.4288,-4.5719,-4.6906,-4.7116,-4.6795,-4.6284,-4.6005,-4.5148,-4.3301,-4.1427,-4.073,-4.2178,-4.249,-4.2571,-4.2092,-4.0816,-3.933,-3.8968,-3.7982,-3.6939,-3.6626,-3.6125,-3.5649,-3.5695,-3.5795,-3.6091,-3.5602,-3.3839,-3.2986,-3.293,-3.1998,-3.05,-3.0708,-3.1421,-3.2576,-3.3562,-3.3402,-3.3956,-3.5078,-3.5977,-3.552,-3.4959,-3.4846,-3.4437,-3.3807,-3.3253,-3.3143,-4.491,-4.4435,-4.4266,-4.4341,-4.4519,-4.4643,-4.4929,-4.5223,-4.4981,-4.4625,-4.4128,-4.3066,-4.1691,-4.0446,-3.9465,-3.8351,-3.7331,-3.7172,-3.6721,-3.6182,-3.5841,-3.4958,-3.3984,-3.3813,-3.3548,-3.2975,-3.2334,-3.1932,-3.157,-3.078,-3.024,-2.9915,-2.9489,-2.9058,-2.8655,-2.8872,-2.8698,-2.8325,-2.916,-2.9653,-2.9604,-2.9947,-3.0711,-3.1573,-3.1867,-3.2687,-3.441,-3.521,-3.5738,-3.6015,-3.5768,-3.5499,-3.5612,-3.4524,-3.3449,-3.2703,-3.2347,-3.305,-3.4451,-3.4282,-3.5841,-3.8935,-3.9169,-3.9922,-4.1651,-4.3257,-4.3468,-4.4007,-4.4097,-4.5114,-4.6623,-4.687,-4.6429,-4.5938,-4.5803,-4.4923,-4.2939,-4.0431,-3.9977,-4.1096,-4.1963,-4.2174,-4.2126,-4.0515,-3.9456,-3.8669,-3.754,-3.6789,-3.6254,-3.5704,-3.5279,-3.5329,-3.5118,-3.52,-3.5637,-3.4485,-3.2996,-3.2823,-3.1582,-3.0032,-3.0384,-3.0902,-3.1642,-3.2496,-3.2423,-3.2702,-3.3813,-3.4542,-3.4303,-3.4048,-3.4201,-3.4049,-3.3405,-3.3002,-3.2944,-4.5508,-4.4572,-4.4587,-4.4435,-4.4312,-4.4297,-4.4508,-4.4886,-4.4965,-4.4807,-4.4482,-4.3807,-4.2611,-4.0985,-4.0132,-3.8866,-3.7878,-3.7526,-3.7096,-3.6664,-3.6178,-3.5389,-3.461,-3.4324,-3.4089,-3.3789,-3.3343,-3.2834,-3.2324,-3.1997,-3.1643,-3.1093,-3.0775,-3.0277,-2.9636,-2.9653,-2.9276,-2.8857,-2.9406,-3.0031,-3.023,-3.0251,-3.0592,-3.1416,-3.2019,-3.2903,-3.4307,-3.519,-3.5729,-3.6267,-3.5874,-3.5934,-3.625,-3.5224,-3.42,-3.3466,-3.3021,-3.3256,-3.4488,-3.4438,-3.55,-3.874,-3.8952,-3.9458,-4.1262,-4.2268,-4.303,-4.4557,-4.3935,-4.4935,-4.6148,-4.6381,-4.597,-4.5615,-4.5632,-4.4508,-4.2236,-3.9851,-3.8877,-4.0038,-4.0928,-4.1464,-4.0812,-3.991,-3.8668,-3.8354,-3.7256,-3.6429,-3.5989,-3.5579,-3.5213,-3.5067,-3.4601,-3.4074,-3.4721,-3.515,-3.3741,-3.2718,-3.1214,-3.006,-3.0426,-3.0885,-3.1094,-3.1376,-3.1517,-3.1783,-3.2297,-3.2689,-3.2878,-3.3087,-3.3246,-3.3098,-3.2884,-3.2624,-3.2513,-4.4938,-4.4572,-4.4435,-4.4281,-4.4127,-4.4205,-4.4296,-4.4293,-4.4742,-4.4772,-4.4619,-4.4389,-4.3625,-4.244,-4.1171,-4.0091,-3.9022,-3.8337,-3.7828,-3.6998,-3.6443,-3.5837,-3.5266,-3.502,-3.4925,-3.4644,-3.3835,-3.3235,-3.2859,-3.2136,-3.1279,-3.1085,-3.1086,-3.0822,-3.0424,-3.0514,-3.0513,-2.9966,-3.0366,-3.0557,-3.051,-3.0355,-3.0535,-3.143,-3.2616,-3.378,-3.4653,-3.537,-3.5699,-3.5774,-3.5724,-3.5789,-3.5917,-3.4927,-3.4163,-3.4003,-3.3302,-3.3547,-3.5019,-3.5266,-3.6114,-3.8728,-3.8738,-3.8968,-4.1046,-4.1604,-4.2714,-4.4438,-4.5508,-4.5843,-4.6087,-4.5972,-4.558,-4.5283,-4.5161,-4.4483,-4.2159,-3.9764,-3.8658,-3.9108,-4.0258,-4.0767,-3.8792,-3.82,-3.7639,-3.7698,-3.7085,-3.6088,-3.5679,-3.5424,-3.5213,-3.5016,-3.4399,-3.3937,-3.421,-3.4735,-3.3955,-3.2524,-3.0975,-3.0146,-3.0535,-3.0794,-3.1043,-3.0919,-3.0712,-3.0991,-3.1182,-3.1647,-3.199,-3.2126,-3.2387,-3.2669,-3.2738,-3.2423,-3.2387,-4.4783,-4.4572,-4.4358,-4.4205,-4.4143,-4.4143,-4.4143,-4.4205,-4.4587,-4.4739,-4.4723,-4.4723,-4.4187,-4.3257,-4.2243,-4.1158,-3.9846,-3.8767,-3.8073,-3.7486,-3.6767,-3.6097,-3.5887,-3.5508,-3.5213,-3.5225,-3.488,-3.4364,-3.3802,-3.3019,-3.2377,-3.1854,-3.1471,-3.1028,-3.0762,-3.1087,-3.0925,-3.0613,-3.0836,-3.1014,-3.0881,-3.0582,-3.078,-3.1616,-3.2941,-3.4006,-3.4634,-3.5245,-3.5608,-3.5638,-3.5554,-3.5624,-3.5899,-3.5284,-3.4876,-3.4466,-3.4424,-3.4378,-3.532,-3.5535,-3.6373,-3.8842,-3.8337,-3.9205,-4.0474,-4.1335,-4.2216,-4.374,-4.5124,-4.6096,-4.6014,-4.5436,-4.5135,-4.4953,-4.4637,-4.382,-4.214,-3.9461,-3.7801,-3.82,-3.8787,-3.859,-3.7712,-3.7138,-3.6862,-3.7063,-3.6825,-3.597,-3.5778,-3.5539,-3.5294,-3.4949,-3.4346,-3.4005,-3.4005,-3.4083,-3.3879,-3.2532,-3.0909,-3.0457,-3.0559,-3.0801,-3.1014,-3.0614,-3.0127,-2.9834,-3.0058,-3.0542,-3.1147,-3.1776,-3.2179,-3.2553,-3.2766,-3.2666,-3.2716,-4.4723,-4.4587,-4.4358,-4.4281,-4.4281,-4.4143,-4.4127,-4.4281,-4.4572,-4.4814,-4.4949,-4.4949,-4.4502,-4.3707,-4.2834,-4.1701,-4.0202,-3.9028,-3.8329,-3.7928,-3.6945,-3.6358,-3.6133,-3.5648,-3.5424,-3.5539,-3.5386,-3.5228,-3.4801,-3.4312,-3.3381,-3.3093,-3.2273,-3.1738,-3.1396,-3.1382,-3.1397,-3.1013,-3.1294,-3.125,-3.1073,-3.085,-3.1081,-3.1973,-3.2882,-3.3843,-3.4594,-3.5155,-3.5489,-3.5653,-3.5539,-3.5604,-3.5718,-3.5782,-3.5653,-3.4868,-3.5185,-3.5485,-3.5615,-3.5779,-3.6621,-3.8745,-3.8421,-3.884,-4.0263,-4.1145,-4.1969,-4.3044,-4.4353,-4.5597,-4.6075,-4.5192,-4.4731,-4.4556,-4.3976,-4.319,-4.204,-3.9204,-3.823,-3.7599,-3.7663,-3.7265,-3.7218,-3.6984,-3.6631,-3.6353,-3.6119,-3.5928,-3.5706,-3.5623,-3.5415,-3.4794,-3.4176,-3.3854,-3.3877,-3.4303,-3.4045,-3.254,-3.0923,-3.0609,-3.0593,-3.0851,-3.0879,-3.0002,-2.954,-2.9106,-2.8845,-2.914,-2.9953,-3.1133,-3.1996,-3.2379,-3.2667,-3.2919,-3.3015,-4.4648,-4.4572,-4.4205,-4.4127,-4.4281,-4.4281,-4.4281,-4.4358,-4.4663,-4.498,-4.5129,-4.5098,-4.4752,-4.4071,-4.2894,-4.1377,-4.0004,-3.9113,-3.8501,-3.8007,-3.7157,-3.6664,-3.6024,-3.5794,-3.5664,-3.5679,-3.5657,-3.5319,-3.4906,-3.4304,-3.3985,-3.3531,-3.32,-3.2929,-3.2839,-3.305,-3.2393,-3.159,-3.1872,-3.1872,-3.1293,-3.101,-3.1293,-3.2188,-3.3083,-3.3877,-3.4632,-3.5044,-3.5344,-3.5489,-3.5504,-3.5504,-3.5659,-3.5724,-3.5633,-3.5213,-3.5365,-3.5758,-3.6076,-3.6535,-3.7282,-3.8238,-3.8559,-3.9046,-4.002,-4.0717,-4.1581,-4.2842,-4.4002,-4.5071,-4.6106,-4.4816,-4.4212,-4.4059,-4.3493,-4.2585,-4.1756,-4.0219,-3.8604,-3.7842,-3.7142,-3.6523,-3.6631,-3.6506,-3.595,-3.5676,-3.5585,-3.5474,-3.5362,-3.545,-3.5473,-3.4703,-3.3835,-3.3718,-3.3706,-3.4352,-3.4424,-3.2625,-3.1198,-3.0598,-3.0642,-3.0952,-3.0713,-2.9676,-2.8625,-2.7875,-2.7785,-2.8025,-2.8631,-2.9726,-3.088,-3.2062,-3.2363,-3.2556,-3.3131,-4.4572,-4.4723,-4.4435,-4.4435,-4.4572,-4.4358,-4.4358,-4.4496,-4.4648,-4.4889,-4.502,-4.4903,-4.4617,-4.4075,-4.3107,-4.1668,-4.0356,-3.9324,-3.8837,-3.8258,-3.7391,-3.6738,-3.62,-3.6069,-3.6118,-3.6222,-3.618,-3.5982,-3.5489,-3.4927,-3.4562,-3.4227,-3.3893,-3.3576,-3.3453,-3.3425,-3.3185,-3.2496,-3.2615,-3.266,-3.2075,-3.1725,-3.2072,-3.2544,-3.3071,-3.3746,-3.4455,-3.4817,-3.5082,-3.5294,-3.5424,-3.5554,-3.5949,-3.6573,-3.6671,-3.5495,-3.5574,-3.607,-3.6523,-3.6968,-3.7743,-3.8359,-3.875,-3.9169,-3.9713,-4.0257,-4.1188,-4.282,-4.3732,-4.4624,-4.5329,-4.423,-4.385,-4.3804,-4.3149,-4.2397,-4.1338,-3.9741,-3.8716,-3.8003,-3.7309,-3.6739,-3.6322,-3.5968,-3.5259,-3.5,-3.4972,-3.4988,-3.4894,-3.509,-3.5208,-3.4263,-3.336,-3.3179,-3.3103,-3.3544,-3.4152,-3.267,-3.1566,-3.0929,-3.0219,-3.0346,-2.9926,-2.911,-2.806,-2.6827,-2.7391,-2.7884,-2.8142,-2.844,-2.9591,-3.0723,-3.1635,-3.2288,-3.2725,-4.4419,-4.4799,-4.4587,-4.4572,-4.4723,-4.4435,-4.4358,-4.4435,-4.4496,-4.4739,-4.5052,-4.4789,-4.447,-4.3968,-4.2909,-4.1771,-4.0822,-3.958,-3.8963,-3.8463,-3.7382,-3.6682,-3.6597,-3.6642,-3.6596,-3.6427,-3.6919,-3.7059,-3.6228,-3.5707,-3.54,-3.5093,-3.45,-3.4089,-3.4117,-3.4222,-3.3811,-3.3585,-3.3493,-3.3386,-3.3081,-3.2835,-3.271,-3.2963,-3.3025,-3.3585,-3.4356,-3.4481,-3.4817,-3.5082,-3.5359,-3.5554,-3.6064,-3.7669,-3.7569,-3.5762,-3.6052,-3.6399,-3.6769,-3.7134,-3.786,-3.8528,-3.8694,-3.9077,-3.9604,-4.0096,-4.0942,-4.2857,-4.3547,-4.4012,-4.4479,-4.3842,-4.3542,-4.3457,-4.3071,-4.2188,-4.1023,-3.9797,-3.897,-3.8255,-3.7511,-3.6971,-3.6492,-3.5519,-3.4821,-3.4038,-3.4012,-3.4132,-3.4091,-3.4516,-3.4422,-3.3565,-3.284,-3.2571,-3.2434,-3.2317,-3.2791,-3.2482,-3.1823,-3.1377,-3.0318,-2.9476,-2.8935,-2.8408,-2.7005,-2.6068,-2.6895,-2.776,-2.8183,-2.8525,-2.8839,-2.9529,-3.0669,-3.1483,-3.2006,-4.4205,-4.4358,-4.4143,-4.4205,-4.4358,-4.4127,-4.4065,-4.4127,-4.4281,-4.4572,-4.4949,-4.4927,-4.4517,-4.3544,-4.1928,-4.1078,-4.0516,-3.9574,-3.8766,-3.8263,-3.7228,-3.6481,-3.6243,-3.6747,-3.6728,-3.6582,-3.7169,-3.7061,-3.6584,-3.6338,-3.612,-3.5778,-3.5561,-3.5401,-3.5175,-3.5097,-3.5082,-3.4457,-3.4352,-3.3847,-3.3079,-3.3028,-3.3105,-3.3269,-3.3479,-3.3862,-3.4196,-3.4278,-3.4467,-3.4935,-3.5294,-3.5489,-3.5679,-3.6283,-3.6432,-3.6049,-3.6211,-3.6662,-3.7013,-3.7373,-3.7844,-3.8399,-3.8623,-3.8952,-3.9478,-4.0154,-4.105,-4.2463,-4.2725,-4.3174,-4.3807,-4.3404,-4.3279,-4.3152,-4.2943,-4.2302,-4.1292,-3.9612,-3.8869,-3.8479,-3.7763,-3.7142,-3.6554,-3.5453,-3.4337,-3.3606,-3.3056,-3.3117,-3.3196,-3.3532,-3.3789,-3.2986,-3.2332,-3.2004,-3.1991,-3.178,-3.183,-3.1961,-3.1678,-3.1438,-3.045,-2.9293,-2.8294,-2.7519,-2.6254,-2.5877,-2.6798,-2.7638,-2.8208,-2.8464,-2.8496,-2.906,-2.9883,-3.0579,-3.1334,-4.3623,-4.4419,-4.4281,-4.4281,-4.4419,-4.4127,-4.4003,-4.3988,-4.3988,-4.4281,-4.4706,-4.4514,-4.3847,-4.283,-4.1596,-4.1018,-4.0498,-3.9327,-3.8632,-3.808,-3.7105,-3.6277,-3.628,-3.6709,-3.6917,-3.6752,-3.7109,-3.7218,-3.6879,-3.6554,-3.6429,-3.6289,-3.6022,-3.5849,-3.5831,-3.5653,-3.5374,-3.5036,-3.4832,-3.4309,-3.3703,-3.3566,-3.3536,-3.3454,-3.3547,-3.3716,-3.3868,-3.4005,-3.4196,-3.4668,-3.5082,-3.5409,-3.5733,-3.6194,-3.6445,-3.6429,-3.6538,-3.6846,-3.715,-3.7449,-3.795,-3.8391,-3.8672,-3.8914,-3.9404,-4.0005,-4.0365,-4.0639,-4.1589,-4.2512,-4.3163,-4.294,-4.2893,-4.2813,-4.2781,-4.2318,-4.1438,-3.9771,-3.8654,-3.8357,-3.7966,-3.7266,-3.6122,-3.4314,-3.3245,-3.268,-3.2294,-3.2367,-3.2251,-3.2123,-3.2467,-3.2571,-3.1909,-3.1377,-3.1438,-3.1482,-3.1405,-3.1405,-3.0956,-3.0669,-3.0311,-2.9349,-2.8499,-2.7791,-2.7083,-2.6979,-2.7166,-2.6982,-2.7121,-2.757,-2.8064,-2.897,-2.9855,-3.0156,-3.0914,-4.2787,-4.3792,-4.3975,-4.4127,-4.4266,-4.3895,-4.3738,-4.3738,-4.3754,-4.3959,-4.4201,-4.3816,-4.3106,-4.2438,-4.17,-4.1122,-4.0826,-3.9241,-3.8616,-3.7916,-3.699,-3.6128,-3.6171,-3.6679,-3.6947,-3.6507,-3.7232,-3.7265,-3.7002,-3.6739,-3.6554,-3.6492,-3.61,-3.5988,-3.5925,-3.5683,-3.5379,-3.5219,-3.4993,-3.4566,-3.4095,-3.3948,-3.3785,-3.3577,-3.3466,-3.3396,-3.3591,-3.3433,-3.3786,-3.4414,-3.4735,-3.5133,-3.5653,-3.61,-3.6352,-3.6461,-3.6585,-3.6846,-3.7272,-3.7666,-3.82,-3.8699,-3.9135,-3.9467,-3.9301,-3.9721,-3.9736,-3.9374,-4.0369,-4.1624,-4.2496,-4.252,-4.2379,-4.2459,-4.254,-4.2188,-4.1421,-3.9534,-3.8106,-3.7608,-3.7297,-3.708,-3.56,-3.3199,-3.203,-3.1629,-3.1509,-3.161,-3.1597,-3.1453,-3.1526,-3.1928,-3.1679,-3.0909,-3.0455,-3.0604,-3.0713,-3.0706,-3.0286,-3.0271,-3.0104,-2.9705,-2.9003,-2.8408,-2.7735,-2.772,-2.7717,-2.6801,-2.6018,-2.694,-2.7897,-2.9119,-2.9907,-3.0138,-3.0439,-4.1322,-4.1685,-4.2884,-4.3364,-4.3364,-4.314,-4.3061,-4.314,-4.3457,-4.3547,-4.3436,-4.2832,-4.2764,-4.2525,-4.174,-4.1162,-4.108,-3.9342,-3.8457,-3.7709,-3.6687,-3.5921,-3.6027,-3.6413,-3.6789,-3.6692,-3.7156,-3.7282,-3.7033,-3.6739,-3.6616,-3.6492,-3.6163,-3.6052,-3.5861,-3.5619,-3.5294,-3.5082,-3.4868,-3.4601,-3.4196,-3.3951,-3.3813,-3.3619,-3.3466,-3.3382,-3.3577,-3.3109,-3.3271,-3.4138,-3.4389,-3.4905,-3.5415,-3.5791,-3.6059,-3.6383,-3.66,-3.6846,-3.7197,-3.7888,-3.8766,-3.9451,-3.9968,-4.0246,-3.9995,-3.9769,-3.942,-3.8828,-3.9699,-4.0631,-4.161,-4.2132,-4.1701,-4.1979,-4.2155,-4.2011,-4.0988,-3.9004,-3.7634,-3.6925,-3.6538,-3.6384,-3.5003,-3.2571,-3.1575,-3.1132,-3.104,-3.1126,-3.1595,-3.1552,-3.1234,-3.1264,-3.1195,-3.0535,-2.9448,-2.9301,-2.9288,-2.9549,-2.9505,-2.9907,-3.0286,-2.985,-2.9631,-2.8562,-2.7906,-2.8099,-2.8142,-2.7301,-2.683,-2.7031,-2.7843,-2.9194,-2.9907,-3.0123,-3.0292,-4.0244,-4.0484,-4.1233,-4.1981,-4.2604,-4.2589,-4.2783,-4.2882,-4.2647,-4.2712,-4.2952,-4.2692,-4.2595,-4.2331,-4.1299,-4.0563,-4.0162,-3.8542,-3.7835,-3.7212,-3.6474,-3.5891,-3.5967,-3.6125,-3.6455,-3.6444,-3.6894,-3.7064,-3.6831,-3.6785,-3.6616,-3.6429,-3.6178,-3.5973,-3.5782,-3.5459,-3.5148,-3.4883,-3.475,-3.4549,-3.4128,-3.3868,-3.3744,-3.3758,-3.3466,-3.3396,-3.3437,-3.2968,-3.3314,-3.3715,-3.3833,-3.4398,-3.5155,-3.5394,-3.5768,-3.6275,-3.66,-3.6846,-3.7121,-3.7812,-3.8654,-3.9968,-4.0544,-4.0932,-4.0843,-4.0375,-3.9357,-3.8951,-3.903,-4.0,-3.9687,-4.0302,-4.0663,-4.1381,-4.1705,-4.1689,-4.0745,-3.887,-3.7682,-3.7136,-3.6275,-3.5615,-3.3849,-3.1842,-3.1264,-3.0792,-3.069,-3.0745,-3.1255,-3.1618,-3.1272,-3.0458,-3.0243,-3.0143,-2.9113,-2.8434,-2.789,-2.814,-2.8582,-2.9144,-2.9772,-3.0734,-3.0336,-2.9128,-2.7861,-2.7564,-2.7469,-2.7576,-2.7507,-2.7354,-2.8177,-2.9475,-2.9924,-3.0123,-3.0292,-3.9279,-3.9442,-3.9982,-4.0797,-4.1655,-4.1841,-4.2291,-4.2619,-4.2061,-4.1906,-4.2401,-4.2066,-4.1897,-4.15,-4.0601,-3.9745,-3.9122,-3.7977,-3.7258,-3.6576,-3.5899,-3.5612,-3.5646,-3.5806,-3.595,-3.6244,-3.66,-3.6785,-3.6862,-3.6846,-3.6723,-3.6538,-3.6163,-3.5958,-3.5703,-3.5314,-3.4935,-3.4683,-3.4563,-3.4269,-3.383,-3.3713,-3.3545,-3.3628,-3.3394,-3.3352,-3.3152,-3.2723,-3.2701,-3.2982,-3.3289,-3.3755,-3.4532,-3.5245,-3.5492,-3.6153,-3.6739,-3.6862,-3.7136,-3.7872,-3.899,-4.0857,-4.0961,-4.161,-4.1776,-4.0792,-3.9457,-3.8284,-3.8643,-3.8888,-3.8367,-3.912,-3.9525,-4.0086,-4.1058,-4.1155,-4.0639,-3.9253,-3.8269,-3.7389,-3.6576,-3.572,-3.3141,-3.1383,-3.0822,-3.0396,-3.0192,-3.0365,-3.0929,-3.1231,-3.1283,-3.0271,-2.9162,-2.9034,-2.8786,-2.844,-2.7926,-2.6891,-2.739,-2.8152,-2.8897,-2.99,-3.0489,-2.9454,-2.8233,-2.7105,-2.6694,-2.6767,-2.7109,-2.7433,-2.855,-2.979,-2.9874,-3.0079,-3.033,-3.8516,-3.8603,-3.9218,-3.9985,-4.0775,-4.0864,-4.1466,-4.2237,-4.1836,-4.1632,-4.1518,-4.0785,-4.0372,-4.0185,-3.9495,-3.888,-3.8338,-3.7414,-3.6723,-3.6144,-3.519,-3.4961,-3.5198,-3.5437,-3.566,-3.6384,-3.6739,-3.6923,-3.6984,-3.7013,-3.6952,-3.6477,-3.6043,-3.5691,-3.5608,-3.5184,-3.4721,-3.4452,-3.4341,-3.3792,-3.3288,-3.3382,-3.3282,-3.3311,-3.3291,-3.3208,-3.2962,-3.2393,-3.2325,-3.2436,-3.228,-3.2936,-3.4233,-3.4742,-3.5385,-3.6369,-3.6815,-3.7044,-3.7241,-3.8321,-3.9718,-4.1261,-4.0994,-4.1646,-4.2005,-4.1074,-3.9429,-3.8089,-3.8051,-3.8284,-3.831,-3.8472,-3.874,-3.9072,-4.0081,-4.0296,-3.9763,-3.928,-3.8082,-3.7285,-3.6958,-3.6094,-3.3154,-3.0984,-3.0411,-2.9972,-2.9726,-2.9972,-3.0529,-3.0749,-3.0879,-3.0061,-2.8722,-2.8444,-2.8399,-2.8442,-2.7875,-2.6635,-2.6262,-2.7095,-2.7591,-2.8169,-2.8639,-2.9008,-2.838,-2.7009,-2.6372,-2.5915,-2.6796,-2.7798,-2.8895,-2.9857,-2.994,-3.0015,-3.0234,-3.7361,-3.8135,-3.8194,-3.8797,-3.9713,-4.0323,-4.0934,-4.1413,-4.1516,-4.1367,-4.0955,-4.038,-4.0006,-3.9613,-3.858,-3.7831,-3.7369,-3.6526,-3.5818,-3.5553,-3.456,-3.4897,-3.5135,-3.5115,-3.5337,-3.6245,-3.6723,-3.6968,-3.715,-3.7115,-3.6714,-3.6242,-3.546,-3.4991,-3.4949,-3.4773,-3.447,-3.3929,-3.3703,-3.3339,-3.2542,-3.2606,-3.2739,-3.2973,-3.2962,-3.2865,-3.2716,-3.2103,-3.1911,-3.1918,-3.1681,-3.2241,-3.3513,-3.4075,-3.482,-3.5845,-3.6428,-3.7181,-3.7421,-3.8046,-3.8568,-3.9672,-4.0626,-4.1322,-4.2134,-4.1107,-3.9454,-3.8102,-3.7785,-3.8088,-3.8294,-3.856,-3.873,-3.8578,-3.9088,-3.9104,-3.8698,-3.8211,-3.748,-3.6984,-3.6584,-3.4713,-3.2169,-3.0955,-3.0308,-2.977,-2.9479,-2.9415,-2.9833,-3.0066,-3.0183,-2.9529,-2.8612,-2.8147,-2.794,-2.8201,-2.7829,-2.6646,-2.6094,-2.6231,-2.6618,-2.6934,-2.7231,-2.7777,-2.7411,-2.6943,-2.6272,-2.5979,-2.7187,-2.8298,-2.9232,-2.9735,-2.9751,-2.9888,-3.006,-3.6765,-3.7781,-3.7652,-3.8222,-3.9177,-3.98,-4.0307,-4.0887,-4.1428,-4.1256,-4.0442,-3.9893,-3.933,-3.8639,-3.7674,-3.6804,-3.6501,-3.5794,-3.5294,-3.5014,-3.4184,-3.4337,-3.4618,-3.4706,-3.4789,-3.5692,-3.6445,-3.6753,-3.6682,-3.6817,-3.6263,-3.5305,-3.4622,-3.4292,-3.4203,-3.4141,-3.3995,-3.3427,-3.3129,-3.2724,-3.2169,-3.2076,-3.2241,-3.237,-3.2382,-3.2336,-3.2145,-3.1846,-3.1554,-3.1435,-3.146,-3.1648,-3.2706,-3.3487,-3.412,-3.5091,-3.6069,-3.6911,-3.746,-3.7716,-3.8083,-3.828,-3.9366,-4.0291,-4.1003,-4.0199,-4.0208,-3.9326,-3.8213,-3.8019,-3.8351,-3.86,-3.8486,-3.8294,-3.823,-3.8262,-3.8343,-3.7892,-3.7642,-3.7105,-3.5736,-3.3559,-3.1617,-3.1026,-3.0321,-2.9828,-2.9329,-2.9274,-2.9223,-2.9328,-2.9535,-2.9114,-2.8595,-2.813,-2.7993,-2.8152,-2.7581,-2.6651,-2.6174,-2.5831,-2.6026,-2.6447,-2.6495,-2.6488,-2.6382,-2.6208,-2.592,-2.6114,-2.7079,-2.8143,-2.9245,-2.9551,-2.9589,-2.9786,-3.0,-3.6749,-3.7535,-3.7579,-3.8233,-3.923,-3.9391,-3.9839,-4.0632,-4.1619,-4.1221,-3.9792,-3.9222,-3.8453,-3.7345,-3.6435,-3.6049,-3.5872,-3.5439,-3.5124,-3.4638,-3.378,-3.3902,-3.3943,-3.4014,-3.4273,-3.4804,-3.5566,-3.6178,-3.606,-3.6084,-3.5459,-3.4555,-3.403,-3.3652,-3.349,-3.3416,-3.3289,-3.284,-3.2553,-3.2155,-3.1637,-3.168,-3.1674,-3.176,-3.1761,-3.1618,-3.1418,-3.1084,-3.0874,-3.0776,-3.0835,-3.1501,-3.2139,-3.2675,-3.3467,-3.446,-3.5627,-3.6578,-3.7196,-3.7393,-3.7658,-3.778,-3.8568,-3.8801,-3.8998,-3.9444,-3.9855,-3.9935,-3.9182,-3.8653,-3.8383,-3.8246,-3.8091,-3.8026,-3.7913,-3.8035,-3.827,-3.8107,-3.7876,-3.7037,-3.5459,-3.3538,-3.1588,-3.0629,-3.0276,-2.9755,-2.9258,-2.9068,-2.8925,-2.8478,-2.8773,-2.9066,-2.8541,-2.8076,-2.8033,-2.7941,-2.707,-2.5977,-2.5831,-2.5567,-2.5777,-2.6036,-2.6364,-2.6352,-2.5806,-2.5512,-2.5526,-2.5936,-2.668,-2.7831,-2.9262,-2.9532,-2.9626,-2.9803,-2.9984,-3.5673,-3.6713,-3.6728,-3.7375,-3.8348,-3.9123,-4.0009,-4.0966,-4.1372,-4.0872,-3.9745,-3.9063,-3.8111,-3.7174,-3.6341,-3.6019,-3.5767,-3.5544,-3.5051,-3.4386,-3.3565,-3.3523,-3.3484,-3.3472,-3.3813,-3.4398,-3.5066,-3.572,-3.6085,-3.589,-3.5216,-3.4577,-3.3584,-3.3154,-3.2946,-3.2855,-3.2552,-3.2323,-3.2065,-3.1714,-3.1212,-3.1054,-3.1094,-3.1228,-3.114,-3.1062,-3.0835,-3.0842,-3.0702,-3.0348,-3.0791,-3.1309,-3.1412,-3.2434,-3.3478,-3.4531,-3.5576,-3.6358,-3.6636,-3.718,-3.7524,-3.7551,-3.8078,-3.8325,-3.8618,-3.9129,-3.9772,-3.9664,-3.9774,-3.9226,-3.857,-3.8222,-3.7954,-3.7679,-3.7475,-3.7248,-3.7406,-3.7511,-3.7176,-3.6162,-3.4699,-3.2879,-3.0953,-3.0582,-3.017,-2.9638,-2.9216,-2.8969,-2.8634,-2.8201,-2.824,-2.8639,-2.8184,-2.7596,-2.75,-2.7454,-2.637,-2.5438,-2.5424,-2.5448,-2.5616,-2.5914,-2.6312,-2.6145,-2.5455,-2.532,-2.5427,-2.575,-2.5742,-2.7945,-2.9392,-2.9532,-2.9662,-2.9853,-2.9962,-3.5398,-3.6688,-3.6748,-3.7273,-3.8295,-3.9071,-3.9784,-4.0306,-4.0673,-4.0166,-3.9051,-3.8585,-3.7787,-3.6807,-3.6237,-3.5885,-3.5548,-3.522,-3.476,-3.4053,-3.3363,-3.3124,-3.2976,-3.3093,-3.3233,-3.3798,-3.4384,-3.4976,-3.5335,-3.5012,-3.4384,-3.3707,-3.2966,-3.2676,-3.2473,-3.2402,-3.2212,-3.1946,-3.1693,-3.1368,-3.1027,-3.0642,-3.0812,-3.0769,-3.062,-3.048,-3.0403,-3.0543,-3.0425,-3.0201,-3.0702,-3.1073,-3.1279,-3.2249,-3.3123,-3.414,-3.5023,-3.577,-3.6263,-3.6769,-3.7207,-3.7404,-3.7422,-3.789,-3.8574,-3.9182,-3.9214,-3.9159,-3.9495,-3.9569,-3.891,-3.8327,-3.7857,-3.742,-3.6821,-3.6275,-3.6371,-3.6549,-3.5865,-3.5018,-3.348,-3.1753,-3.0702,-3.0401,-3.011,-2.958,-2.9115,-2.8781,-2.8409,-2.7987,-2.816,-2.8537,-2.7752,-2.6989,-2.6964,-2.6919,-2.6143,-2.5527,-2.5493,-2.5524,-2.5578,-2.5607,-2.5944,-2.5581,-2.5013,-2.4875,-2.4733,-2.4431,-2.4694,-2.7245,-2.9382,-2.9507,-2.9718,-2.9953,-3.0007,-3.5748,-3.7323,-3.7241,-3.7723,-3.8678,-3.9045,-3.9125,-3.9029,-3.9479,-3.9072,-3.7902,-3.7684,-3.7047,-3.6075,-3.5752,-3.5446,-3.5125,-3.4804,-3.4348,-3.3622,-3.3006,-3.2691,-3.2586,-3.276,-3.2719,-3.2962,-3.3434,-3.4094,-3.3902,-3.3839,-3.3643,-3.264,-3.249,-3.2313,-3.2148,-3.2133,-3.2007,-3.1734,-3.1646,-3.1468,-3.122,-3.094,-3.0642,-3.0355,-3.0083,-2.9917,-2.9813,-2.986,-3.0043,-3.0151,-3.0364,-3.0661,-3.136,-3.1804,-3.2512,-3.3393,-3.4286,-3.4998,-3.5593,-3.6153,-3.6695,-3.6819,-3.6717,-3.701,-3.7518,-3.8532,-3.8597,-3.8838,-3.9208,-3.9177,-3.8618,-3.8343,-3.8019,-3.7381,-3.675,-3.5882,-3.5259,-3.5313,-3.5054,-3.4151,-3.305,-3.1353,-3.0702,-3.0433,-2.9968,-2.9522,-2.9101,-2.8682,-2.8125,-2.775,-2.8026,-2.8367,-2.755,-2.6829,-2.6585,-2.6448,-2.6047,-2.5664,-2.5593,-2.5675,-2.5787,-2.5642,-2.5476,-2.4974,-2.4417,-2.4038,-2.3786,-2.3768,-2.486,-2.7828,-2.9415,-2.9505,-2.9665,-2.9669,-2.9999,-3.5707,-3.7002,-3.7293,-3.7838,-3.8512,-3.8621,-3.8229,-3.7544,-3.7685,-3.7468,-3.7049,-3.6724,-3.6153,-3.5154,-3.4926,-3.4667,-3.4589,-3.4287,-3.3891,-3.3393,-3.2762,-3.2359,-3.2073,-3.2288,-3.2318,-3.2496,-3.2872,-3.3246,-3.331,-3.3395,-3.333,-3.2671,-3.2413,-3.2135,-3.1981,-3.1981,-3.1883,-3.167,-3.1727,-3.1524,-3.1176,-3.0881,-3.0507,-3.0093,-2.9722,-2.9167,-2.8937,-2.8612,-2.8859,-2.9064,-2.9233,-2.9977,-3.1011,-3.1222,-3.1738,-3.2628,-3.3562,-3.4244,-3.4751,-3.5338,-3.5959,-3.6214,-3.605,-3.5736,-3.6108,-3.7327,-3.8166,-3.8504,-3.8727,-3.8616,-3.8488,-3.8383,-3.8181,-3.7462,-3.668,-3.5473,-3.4244,-3.4122,-3.4092,-3.3355,-3.246,-3.1646,-3.0925,-3.0335,-2.9812,-2.9421,-2.9085,-2.8569,-2.7909,-2.752,-2.7946,-2.8117,-2.7441,-2.6845,-2.6536,-2.5944,-2.5456,-2.5576,-2.5605,-2.5749,-2.5954,-2.5611,-2.5209,-2.4441,-2.3844,-2.3679,-2.3679,-2.3822,-2.5403,-2.7864,-2.829,-2.7854,-2.8318,-2.8499,-2.9279,-3.526,-3.6395,-3.6673,-3.6896,-3.7054,-3.6983,-3.657,-3.6035,-3.5944,-3.5639,-3.5393,-3.5488,-3.5197,-3.4534,-3.4386,-3.3977,-3.3959,-3.3707,-3.3221,-3.271,-3.25,-3.2158,-3.1989,-3.1966,-3.2165,-3.2358,-3.2523,-3.278,-3.2936,-3.2881,-3.2786,-3.2554,-3.2302,-3.215,-3.2038,-3.194,-3.1898,-3.1784,-3.1841,-3.1582,-3.1146,-3.0896,-3.0454,-2.9925,-2.9354,-2.8788,-2.8448,-2.8179,-2.8507,-2.9043,-2.9434,-2.9622,-3.0433,-3.0858,-3.1311,-3.2081,-3.2949,-3.3824,-3.4085,-3.4526,-3.5252,-3.5534,-3.5182,-3.4746,-3.4897,-3.6072,-3.7422,-3.7855,-3.8463,-3.8448,-3.8448,-3.8359,-3.8327,-3.785,-3.669,-3.5428,-3.4306,-3.3641,-3.365,-3.3457,-3.2542,-3.1629,-3.1058,-3.0673,-3.0206,-2.9929,-2.9493,-2.8586,-2.7886,-2.7409,-2.7821,-2.8033,-2.7551,-2.6972,-2.6626,-2.5788,-2.4895,-2.5076,-2.56,-2.5807,-2.5983,-2.5446,-2.4898,-2.4086,-2.3685,-2.3754,-2.3768,-2.3891,-2.4504,-2.6363,-2.6314,-2.583,-2.6553,-2.745,-2.824,-3.4833,-3.5774,-3.6001,-3.5838,-3.5403,-3.525,-3.5023,-3.4601,-3.4411,-3.391,-3.3464,-3.4056,-3.4241,-3.4257,-3.4168,-3.3652,-3.3303,-3.305,-3.2551,-3.2209,-3.2072,-3.1792,-3.1834,-3.1921,-3.212,-3.2302,-3.2523,-3.2773,-3.2982,-3.2827,-3.2702,-3.2468,-3.2287,-3.2135,-3.2094,-3.2094,-3.2038,-3.1883,-3.1811,-3.1592,-3.1275,-3.0954,-3.0368,-2.9769,-2.9116,-2.864,-2.8254,-2.8011,-2.8397,-2.8886,-2.9315,-2.9525,-2.9732,-3.0167,-3.0884,-3.1574,-3.2485,-3.3279,-3.3756,-3.4115,-3.4727,-3.4974,-3.4246,-3.406,-3.4258,-3.4936,-3.6292,-3.6915,-3.7519,-3.797,-3.7915,-3.8003,-3.797,-3.7818,-3.649,-3.5246,-3.4234,-3.3272,-3.3234,-3.3297,-3.2585,-3.164,-3.1292,-3.0925,-3.0585,-3.0322,-2.9668,-2.8764,-2.7983,-2.7721,-2.774,-2.8088,-2.8074,-2.7519,-2.7079,-2.5851,-2.4813,-2.5201,-2.5749,-2.597,-2.5909,-2.5203,-2.4505,-2.3734,-2.3465,-2.3661,-2.3843,-2.3978,-2.4696,-2.5405,-2.5477,-2.5466,-2.5793,-2.6636,-2.7252,-3.4934,-3.5985,-3.6179,-3.5969,-3.5664,-3.5427,-3.4823,-3.3903,-3.3556,-3.3016,-3.2562,-3.244,-3.2588,-3.2813,-3.2782,-3.2594,-3.2634,-3.2399,-3.2266,-3.2012,-3.1819,-3.1546,-3.144,-3.1678,-3.2018,-3.2266,-3.2462,-3.285,-3.2801,-3.2756,-3.2812,-3.2866,-3.2508,-3.2342,-3.2287,-3.2176,-3.2038,-3.1853,-3.1645,-3.1453,-3.0615,-3.0231,-3.0002,-2.9233,-2.8268,-2.7698,-2.7173,-2.6664,-2.6974,-2.7578,-2.8309,-2.8684,-2.9057,-2.944,-3.0136,-3.0929,-3.192,-3.2516,-3.2996,-3.3398,-3.3943,-3.4213,-3.369,-3.3742,-3.3893,-3.4027,-3.484,-3.4915,-3.5518,-3.6152,-3.6303,-3.6486,-3.6556,-3.6545,-3.5754,-3.4679,-3.3666,-3.3083,-3.2796,-3.2718,-3.2444,-3.1796,-3.1409,-3.1058,-3.0687,-3.0249,-2.9537,-2.8677,-2.805,-2.7891,-2.7625,-2.7959,-2.8301,-2.87,-2.8496,-2.6302,-2.5295,-2.5605,-2.5832,-2.5919,-2.5598,-2.4808,-2.4093,-2.3589,-2.3486,-2.3642,-2.384,-2.402,-2.4578,-2.519,-2.5348,-2.5462,-2.5626,-2.5848,-2.6475]}]]